<?xml version="1.0" encoding="UTF-8" standalone="no" ?>
<gpx xmlns="http://www.topografix.com/GPX/1/1" xmlns:xsi="http://www.w3.org/2001/XMLSchema-instance" xsi:schemaLocation="http://www.topografix.com/GPX/1/1 http://www.topografix.com/GPX/1/1/gpx.xsd" version="1.1" creator="VisuGPX - https://www.visugpx.com">
  <metadata>
    <name>2017-06-10 Le Val</name>
    <desc><![CDATA[A refaire dans l'autre sens parce que la montée vers Chateau Renard est un peu trop rocailleuse]]></desc>
  </metadata>
  <trk>
    <name><![CDATA[Mountain Biking 6/10/17 7:26 am]]></name>
    <trkseg>
      <trkpt lat="43.43352" lon="6.06018">
        <ele>248.5</ele>
        <time>2017-06-10T05:26:28Z</time>
      </trkpt>
      <trkpt lat="43.43352" lon="6.0603">
        <ele>248.3</ele>
        <time>2017-06-10T05:26:44Z</time>
      </trkpt>
      <trkpt lat="43.43358" lon="6.06043">
        <ele>248.1</ele>
        <time>2017-06-10T05:26:48Z</time>
      </trkpt>
      <trkpt lat="43.4337" lon="6.06045">
        <ele>248.1</ele>
        <time>2017-06-10T05:26:51Z</time>
      </trkpt>
      <trkpt lat="43.43383" lon="6.06045">
        <ele>248.1</ele>
        <time>2017-06-10T05:26:54Z</time>
      </trkpt>
      <trkpt lat="43.43395" lon="6.06046">
        <ele>248.3</ele>
        <time>2017-06-10T05:26:57Z</time>
      </trkpt>
      <trkpt lat="43.43408" lon="6.06051">
        <ele>248.4</ele>
        <time>2017-06-10T05:27:00Z</time>
      </trkpt>
      <trkpt lat="43.4342" lon="6.06054">
        <ele>248.5</ele>
        <time>2017-06-10T05:27:03Z</time>
      </trkpt>
      <trkpt lat="43.43434" lon="6.06054">
        <ele>248.7</ele>
        <time>2017-06-10T05:27:06Z</time>
      </trkpt>
      <trkpt lat="43.43448" lon="6.06055">
        <ele>249.1</ele>
        <time>2017-06-10T05:27:09Z</time>
      </trkpt>
      <trkpt lat="43.43458" lon="6.06065">
        <ele>249.5</ele>
        <time>2017-06-10T05:27:12Z</time>
      </trkpt>
      <trkpt lat="43.43462" lon="6.06078">
        <ele>250</ele>
        <time>2017-06-10T05:27:14Z</time>
      </trkpt>
      <trkpt lat="43.43466" lon="6.06093">
        <ele>250.5</ele>
        <time>2017-06-10T05:27:16Z</time>
      </trkpt>
      <trkpt lat="43.43471" lon="6.06108">
        <ele>250.8</ele>
        <time>2017-06-10T05:27:18Z</time>
      </trkpt>
      <trkpt lat="43.43474" lon="6.06123">
        <ele>251</ele>
        <time>2017-06-10T05:27:20Z</time>
      </trkpt>
      <trkpt lat="43.43477" lon="6.06137">
        <ele>251.2</ele>
        <time>2017-06-10T05:27:22Z</time>
      </trkpt>
      <trkpt lat="43.43481" lon="6.0615">
        <ele>251.2</ele>
        <time>2017-06-10T05:27:24Z</time>
      </trkpt>
      <trkpt lat="43.43486" lon="6.06164">
        <ele>251.2</ele>
        <time>2017-06-10T05:27:26Z</time>
      </trkpt>
      <trkpt lat="43.43485" lon="6.06178">
        <ele>251.3</ele>
        <time>2017-06-10T05:27:28Z</time>
      </trkpt>
      <trkpt lat="43.43484" lon="6.06191">
        <ele>251.4</ele>
        <time>2017-06-10T05:27:30Z</time>
      </trkpt>
      <trkpt lat="43.43484" lon="6.06204">
        <ele>251.5</ele>
        <time>2017-06-10T05:27:32Z</time>
      </trkpt>
      <trkpt lat="43.43485" lon="6.06217">
        <ele>251.8</ele>
        <time>2017-06-10T05:27:34Z</time>
      </trkpt>
      <trkpt lat="43.43486" lon="6.06234">
        <ele>252.1</ele>
        <time>2017-06-10T05:27:37Z</time>
      </trkpt>
      <trkpt lat="43.43489" lon="6.06249">
        <ele>252.4</ele>
        <time>2017-06-10T05:27:40Z</time>
      </trkpt>
      <trkpt lat="43.43489" lon="6.06266">
        <ele>252.8</ele>
        <time>2017-06-10T05:27:43Z</time>
      </trkpt>
      <trkpt lat="43.43488" lon="6.0628">
        <ele>253.5</ele>
        <time>2017-06-10T05:27:46Z</time>
      </trkpt>
      <trkpt lat="43.43487" lon="6.06294">
        <ele>254.1</ele>
        <time>2017-06-10T05:27:49Z</time>
      </trkpt>
      <trkpt lat="43.43484" lon="6.06309">
        <ele>254.7</ele>
        <time>2017-06-10T05:27:52Z</time>
      </trkpt>
      <trkpt lat="43.43483" lon="6.06322">
        <ele>255.4</ele>
        <time>2017-06-10T05:27:55Z</time>
      </trkpt>
      <trkpt lat="43.43484" lon="6.06337">
        <ele>255.9</ele>
        <time>2017-06-10T05:27:58Z</time>
      </trkpt>
      <trkpt lat="43.43486" lon="6.06352">
        <ele>256.4</ele>
        <time>2017-06-10T05:28:01Z</time>
      </trkpt>
      <trkpt lat="43.43488" lon="6.06366">
        <ele>256.7</ele>
        <time>2017-06-10T05:28:04Z</time>
      </trkpt>
      <trkpt lat="43.43491" lon="6.06381">
        <ele>257</ele>
        <time>2017-06-10T05:28:07Z</time>
      </trkpt>
      <trkpt lat="43.43495" lon="6.06394">
        <ele>257.4</ele>
        <time>2017-06-10T05:28:10Z</time>
      </trkpt>
      <trkpt lat="43.43499" lon="6.06408">
        <ele>257.8</ele>
        <time>2017-06-10T05:28:13Z</time>
      </trkpt>
      <trkpt lat="43.43501" lon="6.06421">
        <ele>258.4</ele>
        <time>2017-06-10T05:28:16Z</time>
      </trkpt>
      <trkpt lat="43.43503" lon="6.06436">
        <ele>258.8</ele>
        <time>2017-06-10T05:28:19Z</time>
      </trkpt>
      <trkpt lat="43.43506" lon="6.06452">
        <ele>259.2</ele>
        <time>2017-06-10T05:28:22Z</time>
      </trkpt>
      <trkpt lat="43.4351" lon="6.06464">
        <ele>259.5</ele>
        <time>2017-06-10T05:28:25Z</time>
      </trkpt>
      <trkpt lat="43.43518" lon="6.06475">
        <ele>259.8</ele>
        <time>2017-06-10T05:28:29Z</time>
      </trkpt>
      <trkpt lat="43.43525" lon="6.06483">
        <ele>260.1</ele>
        <time>2017-06-10T05:28:34Z</time>
      </trkpt>
      <trkpt lat="43.43534" lon="6.06491">
        <ele>260.4</ele>
        <time>2017-06-10T05:28:39Z</time>
      </trkpt>
      <trkpt lat="43.43541" lon="6.06483">
        <ele>260.6</ele>
        <time>2017-06-10T05:28:42Z</time>
      </trkpt>
      <trkpt lat="43.4354" lon="6.0647">
        <ele>260.9</ele>
        <time>2017-06-10T05:28:45Z</time>
      </trkpt>
      <trkpt lat="43.43539" lon="6.06457">
        <ele>261.2</ele>
        <time>2017-06-10T05:28:48Z</time>
      </trkpt>
      <trkpt lat="43.43538" lon="6.06443">
        <ele>261.4</ele>
        <time>2017-06-10T05:28:52Z</time>
      </trkpt>
      <trkpt lat="43.43541" lon="6.06428">
        <ele>261.5</ele>
        <time>2017-06-10T05:28:56Z</time>
      </trkpt>
      <trkpt lat="43.43543" lon="6.06415">
        <ele>261.6</ele>
        <time>2017-06-10T05:28:59Z</time>
      </trkpt>
      <trkpt lat="43.43546" lon="6.06401">
        <ele>261.9</ele>
        <time>2017-06-10T05:29:02Z</time>
      </trkpt>
      <trkpt lat="43.43549" lon="6.06388">
        <ele>262.1</ele>
        <time>2017-06-10T05:29:05Z</time>
      </trkpt>
      <trkpt lat="43.4355" lon="6.06372">
        <ele>262.3</ele>
        <time>2017-06-10T05:29:08Z</time>
      </trkpt>
      <trkpt lat="43.4355" lon="6.06356">
        <ele>262.5</ele>
        <time>2017-06-10T05:29:11Z</time>
      </trkpt>
      <trkpt lat="43.43552" lon="6.06342">
        <ele>262.6</ele>
        <time>2017-06-10T05:29:14Z</time>
      </trkpt>
      <trkpt lat="43.43554" lon="6.06327">
        <ele>262.9</ele>
        <time>2017-06-10T05:29:17Z</time>
      </trkpt>
      <trkpt lat="43.43557" lon="6.06311">
        <ele>263.2</ele>
        <time>2017-06-10T05:29:20Z</time>
      </trkpt>
      <trkpt lat="43.43559" lon="6.06296">
        <ele>263.3</ele>
        <time>2017-06-10T05:29:23Z</time>
      </trkpt>
      <trkpt lat="43.43562" lon="6.06282">
        <ele>263.4</ele>
        <time>2017-06-10T05:29:26Z</time>
      </trkpt>
      <trkpt lat="43.43563" lon="6.06265">
        <ele>263.4</ele>
        <time>2017-06-10T05:29:29Z</time>
      </trkpt>
      <trkpt lat="43.43564" lon="6.06248">
        <ele>263.3</ele>
        <time>2017-06-10T05:29:32Z</time>
      </trkpt>
      <trkpt lat="43.43565" lon="6.06231">
        <ele>263.2</ele>
        <time>2017-06-10T05:29:35Z</time>
      </trkpt>
      <trkpt lat="43.43565" lon="6.06214">
        <ele>263.2</ele>
        <time>2017-06-10T05:29:38Z</time>
      </trkpt>
      <trkpt lat="43.43562" lon="6.06197">
        <ele>263.2</ele>
        <time>2017-06-10T05:29:41Z</time>
      </trkpt>
      <trkpt lat="43.43558" lon="6.06179">
        <ele>263.2</ele>
        <time>2017-06-10T05:29:44Z</time>
      </trkpt>
      <trkpt lat="43.43554" lon="6.06166">
        <ele>263.2</ele>
        <time>2017-06-10T05:29:46Z</time>
      </trkpt>
      <trkpt lat="43.43554" lon="6.06153">
        <ele>263</ele>
        <time>2017-06-10T05:29:48Z</time>
      </trkpt>
      <trkpt lat="43.43555" lon="6.06139">
        <ele>262.9</ele>
        <time>2017-06-10T05:29:50Z</time>
      </trkpt>
      <trkpt lat="43.43556" lon="6.06125">
        <ele>262.9</ele>
        <time>2017-06-10T05:29:52Z</time>
      </trkpt>
      <trkpt lat="43.43554" lon="6.06113">
        <ele>262.9</ele>
        <time>2017-06-10T05:29:54Z</time>
      </trkpt>
      <trkpt lat="43.43555" lon="6.061">
        <ele>263</ele>
        <time>2017-06-10T05:29:56Z</time>
      </trkpt>
      <trkpt lat="43.43557" lon="6.06087">
        <ele>263</ele>
        <time>2017-06-10T05:29:58Z</time>
      </trkpt>
      <trkpt lat="43.43561" lon="6.06075">
        <ele>263</ele>
        <time>2017-06-10T05:30:00Z</time>
      </trkpt>
      <trkpt lat="43.43563" lon="6.06062">
        <ele>263</ele>
        <time>2017-06-10T05:30:02Z</time>
      </trkpt>
      <trkpt lat="43.43566" lon="6.06048">
        <ele>263</ele>
        <time>2017-06-10T05:30:04Z</time>
      </trkpt>
      <trkpt lat="43.43574" lon="6.06035">
        <ele>263</ele>
        <time>2017-06-10T05:30:06Z</time>
      </trkpt>
      <trkpt lat="43.43567" lon="6.0602">
        <ele>263.1</ele>
        <time>2017-06-10T05:30:08Z</time>
      </trkpt>
      <trkpt lat="43.43573" lon="6.06009">
        <ele>263.3</ele>
        <time>2017-06-10T05:30:10Z</time>
      </trkpt>
      <trkpt lat="43.43575" lon="6.05996">
        <ele>263.4</ele>
        <time>2017-06-10T05:30:12Z</time>
      </trkpt>
      <trkpt lat="43.43576" lon="6.05983">
        <ele>263.5</ele>
        <time>2017-06-10T05:30:14Z</time>
      </trkpt>
      <trkpt lat="43.4358" lon="6.0597">
        <ele>263.6</ele>
        <time>2017-06-10T05:30:16Z</time>
      </trkpt>
      <trkpt lat="43.43581" lon="6.05958">
        <ele>263.7</ele>
        <time>2017-06-10T05:30:18Z</time>
      </trkpt>
      <trkpt lat="43.43585" lon="6.05944">
        <ele>263.8</ele>
        <time>2017-06-10T05:30:20Z</time>
      </trkpt>
      <trkpt lat="43.43589" lon="6.05926">
        <ele>264</ele>
        <time>2017-06-10T05:30:23Z</time>
      </trkpt>
      <trkpt lat="43.43593" lon="6.05913">
        <ele>264.2</ele>
        <time>2017-06-10T05:30:25Z</time>
      </trkpt>
      <trkpt lat="43.43593" lon="6.059">
        <ele>264.3</ele>
        <time>2017-06-10T05:30:27Z</time>
      </trkpt>
      <trkpt lat="43.43593" lon="6.05887">
        <ele>264.3</ele>
        <time>2017-06-10T05:30:29Z</time>
      </trkpt>
      <trkpt lat="43.43587" lon="6.05873">
        <ele>264.1</ele>
        <time>2017-06-10T05:30:31Z</time>
      </trkpt>
      <trkpt lat="43.43587" lon="6.0586">
        <ele>263.9</ele>
        <time>2017-06-10T05:30:33Z</time>
      </trkpt>
      <trkpt lat="43.43589" lon="6.05846">
        <ele>263.6</ele>
        <time>2017-06-10T05:30:35Z</time>
      </trkpt>
      <trkpt lat="43.43591" lon="6.0583">
        <ele>263.3</ele>
        <time>2017-06-10T05:30:37Z</time>
      </trkpt>
      <trkpt lat="43.43592" lon="6.05809">
        <ele>262.7</ele>
        <time>2017-06-10T05:30:39Z</time>
      </trkpt>
      <trkpt lat="43.43592" lon="6.05786">
        <ele>262.1</ele>
        <time>2017-06-10T05:30:41Z</time>
      </trkpt>
      <trkpt lat="43.43596" lon="6.05767">
        <ele>261.5</ele>
        <time>2017-06-10T05:30:43Z</time>
      </trkpt>
      <trkpt lat="43.43598" lon="6.05755">
        <ele>260.9</ele>
        <time>2017-06-10T05:30:44Z</time>
      </trkpt>
      <trkpt lat="43.43595" lon="6.05737">
        <ele>260.3</ele>
        <time>2017-06-10T05:30:45Z</time>
      </trkpt>
      <trkpt lat="43.43597" lon="6.05723">
        <ele>259.9</ele>
        <time>2017-06-10T05:30:46Z</time>
      </trkpt>
      <trkpt lat="43.436" lon="6.05707">
        <ele>259.7</ele>
        <time>2017-06-10T05:30:47Z</time>
      </trkpt>
      <trkpt lat="43.43602" lon="6.0569">
        <ele>259.6</ele>
        <time>2017-06-10T05:30:48Z</time>
      </trkpt>
      <trkpt lat="43.43599" lon="6.05674">
        <ele>259.5</ele>
        <time>2017-06-10T05:30:49Z</time>
      </trkpt>
      <trkpt lat="43.43599" lon="6.05659">
        <ele>259.4</ele>
        <time>2017-06-10T05:30:50Z</time>
      </trkpt>
      <trkpt lat="43.43597" lon="6.05643">
        <ele>259.3</ele>
        <time>2017-06-10T05:30:51Z</time>
      </trkpt>
      <trkpt lat="43.43593" lon="6.05628">
        <ele>259.2</ele>
        <time>2017-06-10T05:30:52Z</time>
      </trkpt>
      <trkpt lat="43.43587" lon="6.05617">
        <ele>259.1</ele>
        <time>2017-06-10T05:30:53Z</time>
      </trkpt>
      <trkpt lat="43.43579" lon="6.05605">
        <ele>259</ele>
        <time>2017-06-10T05:30:54Z</time>
      </trkpt>
      <trkpt lat="43.43574" lon="6.05585">
        <ele>258.9</ele>
        <time>2017-06-10T05:30:56Z</time>
      </trkpt>
      <trkpt lat="43.43567" lon="6.05566">
        <ele>258.8</ele>
        <time>2017-06-10T05:30:58Z</time>
      </trkpt>
      <trkpt lat="43.43561" lon="6.05548">
        <ele>258.6</ele>
        <time>2017-06-10T05:31:00Z</time>
      </trkpt>
      <trkpt lat="43.43555" lon="6.05531">
        <ele>258.4</ele>
        <time>2017-06-10T05:31:02Z</time>
      </trkpt>
      <trkpt lat="43.43554" lon="6.05514">
        <ele>258.1</ele>
        <time>2017-06-10T05:31:04Z</time>
      </trkpt>
      <trkpt lat="43.43554" lon="6.05497">
        <ele>257.9</ele>
        <time>2017-06-10T05:31:06Z</time>
      </trkpt>
      <trkpt lat="43.43555" lon="6.05479">
        <ele>257.6</ele>
        <time>2017-06-10T05:31:08Z</time>
      </trkpt>
      <trkpt lat="43.43558" lon="6.0546">
        <ele>257.5</ele>
        <time>2017-06-10T05:31:10Z</time>
      </trkpt>
      <trkpt lat="43.43561" lon="6.0544">
        <ele>257.3</ele>
        <time>2017-06-10T05:31:12Z</time>
      </trkpt>
      <trkpt lat="43.43566" lon="6.0542">
        <ele>257.1</ele>
        <time>2017-06-10T05:31:14Z</time>
      </trkpt>
      <trkpt lat="43.43571" lon="6.05399">
        <ele>256.9</ele>
        <time>2017-06-10T05:31:16Z</time>
      </trkpt>
      <trkpt lat="43.43574" lon="6.05379">
        <ele>256.8</ele>
        <time>2017-06-10T05:31:18Z</time>
      </trkpt>
      <trkpt lat="43.43575" lon="6.05359">
        <ele>256.7</ele>
        <time>2017-06-10T05:31:20Z</time>
      </trkpt>
      <trkpt lat="43.43572" lon="6.05344">
        <ele>256.5</ele>
        <time>2017-06-10T05:31:22Z</time>
      </trkpt>
      <trkpt lat="43.43561" lon="6.05333">
        <ele>256.4</ele>
        <time>2017-06-10T05:31:24Z</time>
      </trkpt>
      <trkpt lat="43.43551" lon="6.05327">
        <ele>256.1</ele>
        <time>2017-06-10T05:31:26Z</time>
      </trkpt>
      <trkpt lat="43.43542" lon="6.05324">
        <ele>255.7</ele>
        <time>2017-06-10T05:31:28Z</time>
      </trkpt>
      <trkpt lat="43.43536" lon="6.05315">
        <ele>255.5</ele>
        <time>2017-06-10T05:31:29Z</time>
      </trkpt>
      <trkpt lat="43.43527" lon="6.05319">
        <ele>255.1</ele>
        <time>2017-06-10T05:31:32Z</time>
      </trkpt>
      <trkpt lat="43.4352" lon="6.05329">
        <ele>254.7</ele>
        <time>2017-06-10T05:31:35Z</time>
      </trkpt>
      <trkpt lat="43.43514" lon="6.05341">
        <ele>254.6</ele>
        <time>2017-06-10T05:31:37Z</time>
      </trkpt>
      <trkpt lat="43.43505" lon="6.05352">
        <ele>254.7</ele>
        <time>2017-06-10T05:31:40Z</time>
      </trkpt>
      <trkpt lat="43.43495" lon="6.05351">
        <ele>254.8</ele>
        <time>2017-06-10T05:31:43Z</time>
      </trkpt>
      <trkpt lat="43.43484" lon="6.05345">
        <ele>255</ele>
        <time>2017-06-10T05:31:46Z</time>
      </trkpt>
      <trkpt lat="43.43473" lon="6.05341">
        <ele>255.5</ele>
        <time>2017-06-10T05:31:49Z</time>
      </trkpt>
      <trkpt lat="43.43462" lon="6.05338">
        <ele>256</ele>
        <time>2017-06-10T05:31:52Z</time>
      </trkpt>
      <trkpt lat="43.43452" lon="6.05337">
        <ele>256.7</ele>
        <time>2017-06-10T05:31:55Z</time>
      </trkpt>
      <trkpt lat="43.43443" lon="6.05345">
        <ele>257.5</ele>
        <time>2017-06-10T05:31:59Z</time>
      </trkpt>
      <trkpt lat="43.43437" lon="6.05356">
        <ele>258.5</ele>
        <time>2017-06-10T05:32:03Z</time>
      </trkpt>
      <trkpt lat="43.43426" lon="6.05353">
        <ele>259.5</ele>
        <time>2017-06-10T05:32:08Z</time>
      </trkpt>
      <trkpt lat="43.43416" lon="6.05356">
        <ele>260.6</ele>
        <time>2017-06-10T05:32:13Z</time>
      </trkpt>
      <trkpt lat="43.43412" lon="6.05343">
        <ele>261.7</ele>
        <time>2017-06-10T05:32:18Z</time>
      </trkpt>
      <trkpt lat="43.43404" lon="6.05332">
        <ele>262.6</ele>
        <time>2017-06-10T05:32:23Z</time>
      </trkpt>
      <trkpt lat="43.43394" lon="6.05334">
        <ele>263.5</ele>
        <time>2017-06-10T05:32:27Z</time>
      </trkpt>
      <trkpt lat="43.43383" lon="6.05332">
        <ele>264.4</ele>
        <time>2017-06-10T05:32:31Z</time>
      </trkpt>
      <trkpt lat="43.43374" lon="6.05329">
        <ele>265</ele>
        <time>2017-06-10T05:32:35Z</time>
      </trkpt>
      <trkpt lat="43.43364" lon="6.05329">
        <ele>265.5</ele>
        <time>2017-06-10T05:32:39Z</time>
      </trkpt>
      <trkpt lat="43.43353" lon="6.05327">
        <ele>266</ele>
        <time>2017-06-10T05:32:44Z</time>
      </trkpt>
      <trkpt lat="43.43344" lon="6.05327">
        <ele>266.5</ele>
        <time>2017-06-10T05:32:48Z</time>
      </trkpt>
      <trkpt lat="43.43334" lon="6.05327">
        <ele>266.7</ele>
        <time>2017-06-10T05:32:52Z</time>
      </trkpt>
      <trkpt lat="43.43324" lon="6.05323">
        <ele>267</ele>
        <time>2017-06-10T05:32:57Z</time>
      </trkpt>
      <trkpt lat="43.43324" lon="6.05308">
        <ele>267.2</ele>
        <time>2017-06-10T05:33:02Z</time>
      </trkpt>
      <trkpt lat="43.43329" lon="6.05294">
        <ele>267.3</ele>
        <time>2017-06-10T05:33:05Z</time>
      </trkpt>
      <trkpt lat="43.43335" lon="6.05279">
        <ele>267.5</ele>
        <time>2017-06-10T05:33:08Z</time>
      </trkpt>
      <trkpt lat="43.43341" lon="6.05263">
        <ele>267.5</ele>
        <time>2017-06-10T05:33:11Z</time>
      </trkpt>
      <trkpt lat="43.43345" lon="6.05251">
        <ele>267.6</ele>
        <time>2017-06-10T05:33:13Z</time>
      </trkpt>
      <trkpt lat="43.43352" lon="6.05236">
        <ele>267.6</ele>
        <time>2017-06-10T05:33:16Z</time>
      </trkpt>
      <trkpt lat="43.43358" lon="6.05224">
        <ele>267.7</ele>
        <time>2017-06-10T05:33:19Z</time>
      </trkpt>
      <trkpt lat="43.43362" lon="6.0521">
        <ele>267.8</ele>
        <time>2017-06-10T05:33:22Z</time>
      </trkpt>
      <trkpt lat="43.43367" lon="6.05197">
        <ele>268</ele>
        <time>2017-06-10T05:33:25Z</time>
      </trkpt>
      <trkpt lat="43.43372" lon="6.05184">
        <ele>268.3</ele>
        <time>2017-06-10T05:33:28Z</time>
      </trkpt>
      <trkpt lat="43.43377" lon="6.0517">
        <ele>268.6</ele>
        <time>2017-06-10T05:33:31Z</time>
      </trkpt>
      <trkpt lat="43.4338" lon="6.05157">
        <ele>269</ele>
        <time>2017-06-10T05:33:34Z</time>
      </trkpt>
      <trkpt lat="43.43383" lon="6.05144">
        <ele>269.4</ele>
        <time>2017-06-10T05:33:37Z</time>
      </trkpt>
      <trkpt lat="43.43387" lon="6.05132">
        <ele>269.6</ele>
        <time>2017-06-10T05:33:40Z</time>
      </trkpt>
      <trkpt lat="43.43392" lon="6.05118">
        <ele>269.9</ele>
        <time>2017-06-10T05:33:44Z</time>
      </trkpt>
      <trkpt lat="43.43397" lon="6.05106">
        <ele>270.1</ele>
        <time>2017-06-10T05:33:47Z</time>
      </trkpt>
      <trkpt lat="43.43402" lon="6.05093">
        <ele>270.3</ele>
        <time>2017-06-10T05:33:50Z</time>
      </trkpt>
      <trkpt lat="43.43406" lon="6.05076">
        <ele>270.3</ele>
        <time>2017-06-10T05:33:53Z</time>
      </trkpt>
      <trkpt lat="43.43409" lon="6.05063">
        <ele>270.2</ele>
        <time>2017-06-10T05:33:55Z</time>
      </trkpt>
      <trkpt lat="43.43411" lon="6.05048">
        <ele>269.9</ele>
        <time>2017-06-10T05:33:57Z</time>
      </trkpt>
      <trkpt lat="43.43414" lon="6.05032">
        <ele>269.6</ele>
        <time>2017-06-10T05:33:59Z</time>
      </trkpt>
      <trkpt lat="43.43417" lon="6.05016">
        <ele>269.3</ele>
        <time>2017-06-10T05:34:01Z</time>
      </trkpt>
      <trkpt lat="43.43421" lon="6.05">
        <ele>269</ele>
        <time>2017-06-10T05:34:03Z</time>
      </trkpt>
      <trkpt lat="43.43425" lon="6.04984">
        <ele>268.6</ele>
        <time>2017-06-10T05:34:05Z</time>
      </trkpt>
      <trkpt lat="43.43427" lon="6.04966">
        <ele>268.3</ele>
        <time>2017-06-10T05:34:07Z</time>
      </trkpt>
      <trkpt lat="43.43429" lon="6.04949">
        <ele>267.9</ele>
        <time>2017-06-10T05:34:09Z</time>
      </trkpt>
      <trkpt lat="43.43429" lon="6.04931">
        <ele>267.6</ele>
        <time>2017-06-10T05:34:11Z</time>
      </trkpt>
      <trkpt lat="43.4343" lon="6.04915">
        <ele>267.3</ele>
        <time>2017-06-10T05:34:13Z</time>
      </trkpt>
      <trkpt lat="43.43432" lon="6.049">
        <ele>267</ele>
        <time>2017-06-10T05:34:15Z</time>
      </trkpt>
      <trkpt lat="43.43432" lon="6.04885">
        <ele>266.8</ele>
        <time>2017-06-10T05:34:17Z</time>
      </trkpt>
      <trkpt lat="43.43432" lon="6.04871">
        <ele>266.8</ele>
        <time>2017-06-10T05:34:19Z</time>
      </trkpt>
      <trkpt lat="43.43433" lon="6.04857">
        <ele>266.9</ele>
        <time>2017-06-10T05:34:21Z</time>
      </trkpt>
      <trkpt lat="43.43433" lon="6.04843">
        <ele>267</ele>
        <time>2017-06-10T05:34:23Z</time>
      </trkpt>
      <trkpt lat="43.43434" lon="6.04831">
        <ele>267.1</ele>
        <time>2017-06-10T05:34:25Z</time>
      </trkpt>
      <trkpt lat="43.43434" lon="6.04817">
        <ele>267.3</ele>
        <time>2017-06-10T05:34:27Z</time>
      </trkpt>
      <trkpt lat="43.43434" lon="6.04804">
        <ele>267.5</ele>
        <time>2017-06-10T05:34:29Z</time>
      </trkpt>
      <trkpt lat="43.43435" lon="6.04791">
        <ele>267.6</ele>
        <time>2017-06-10T05:34:31Z</time>
      </trkpt>
      <trkpt lat="43.43437" lon="6.04779">
        <ele>267.9</ele>
        <time>2017-06-10T05:34:33Z</time>
      </trkpt>
      <trkpt lat="43.43438" lon="6.04766">
        <ele>268.3</ele>
        <time>2017-06-10T05:34:35Z</time>
      </trkpt>
      <trkpt lat="43.4344" lon="6.04754">
        <ele>268.7</ele>
        <time>2017-06-10T05:34:37Z</time>
      </trkpt>
      <trkpt lat="43.43441" lon="6.04737">
        <ele>269.2</ele>
        <time>2017-06-10T05:34:40Z</time>
      </trkpt>
      <trkpt lat="43.43443" lon="6.04719">
        <ele>269.5</ele>
        <time>2017-06-10T05:34:43Z</time>
      </trkpt>
      <trkpt lat="43.43444" lon="6.04702">
        <ele>269.8</ele>
        <time>2017-06-10T05:34:46Z</time>
      </trkpt>
      <trkpt lat="43.43443" lon="6.04689">
        <ele>270.1</ele>
        <time>2017-06-10T05:34:48Z</time>
      </trkpt>
      <trkpt lat="43.43444" lon="6.04676">
        <ele>270.2</ele>
        <time>2017-06-10T05:34:50Z</time>
      </trkpt>
      <trkpt lat="43.43447" lon="6.04664">
        <ele>270.3</ele>
        <time>2017-06-10T05:34:52Z</time>
      </trkpt>
      <trkpt lat="43.43451" lon="6.04646">
        <ele>270.4</ele>
        <time>2017-06-10T05:34:55Z</time>
      </trkpt>
      <trkpt lat="43.43455" lon="6.04634">
        <ele>270.5</ele>
        <time>2017-06-10T05:34:57Z</time>
      </trkpt>
      <trkpt lat="43.43455" lon="6.04617">
        <ele>270.6</ele>
        <time>2017-06-10T05:35:00Z</time>
      </trkpt>
      <trkpt lat="43.43458" lon="6.04599">
        <ele>270.7</ele>
        <time>2017-06-10T05:35:03Z</time>
      </trkpt>
      <trkpt lat="43.43461" lon="6.04582">
        <ele>270.6</ele>
        <time>2017-06-10T05:35:06Z</time>
      </trkpt>
      <trkpt lat="43.43464" lon="6.04565">
        <ele>270.5</ele>
        <time>2017-06-10T05:35:09Z</time>
      </trkpt>
      <trkpt lat="43.43466" lon="6.04548">
        <ele>270.5</ele>
        <time>2017-06-10T05:35:12Z</time>
      </trkpt>
      <trkpt lat="43.43471" lon="6.04537">
        <ele>270.4</ele>
        <time>2017-06-10T05:35:14Z</time>
      </trkpt>
      <trkpt lat="43.43478" lon="6.04521">
        <ele>270.3</ele>
        <time>2017-06-10T05:35:17Z</time>
      </trkpt>
      <trkpt lat="43.43482" lon="6.0451">
        <ele>270.4</ele>
        <time>2017-06-10T05:35:19Z</time>
      </trkpt>
      <trkpt lat="43.43485" lon="6.04498">
        <ele>270.5</ele>
        <time>2017-06-10T05:35:21Z</time>
      </trkpt>
      <trkpt lat="43.43487" lon="6.04485">
        <ele>270.6</ele>
        <time>2017-06-10T05:35:23Z</time>
      </trkpt>
      <trkpt lat="43.43488" lon="6.04472">
        <ele>270.7</ele>
        <time>2017-06-10T05:35:25Z</time>
      </trkpt>
      <trkpt lat="43.43488" lon="6.0446">
        <ele>270.8</ele>
        <time>2017-06-10T05:35:27Z</time>
      </trkpt>
      <trkpt lat="43.43488" lon="6.04447">
        <ele>270.9</ele>
        <time>2017-06-10T05:35:29Z</time>
      </trkpt>
      <trkpt lat="43.43488" lon="6.0443">
        <ele>271.1</ele>
        <time>2017-06-10T05:35:32Z</time>
      </trkpt>
      <trkpt lat="43.43486" lon="6.04411">
        <ele>271.3</ele>
        <time>2017-06-10T05:35:35Z</time>
      </trkpt>
      <trkpt lat="43.43484" lon="6.04395">
        <ele>271.5</ele>
        <time>2017-06-10T05:35:38Z</time>
      </trkpt>
      <trkpt lat="43.43485" lon="6.04378">
        <ele>271.8</ele>
        <time>2017-06-10T05:35:41Z</time>
      </trkpt>
      <trkpt lat="43.43487" lon="6.04362">
        <ele>272.1</ele>
        <time>2017-06-10T05:35:44Z</time>
      </trkpt>
      <trkpt lat="43.4349" lon="6.04345">
        <ele>272.3</ele>
        <time>2017-06-10T05:35:47Z</time>
      </trkpt>
      <trkpt lat="43.4349" lon="6.04332">
        <ele>272.5</ele>
        <time>2017-06-10T05:35:49Z</time>
      </trkpt>
      <trkpt lat="43.43491" lon="6.04318">
        <ele>272.5</ele>
        <time>2017-06-10T05:35:51Z</time>
      </trkpt>
      <trkpt lat="43.43492" lon="6.04305">
        <ele>272.4</ele>
        <time>2017-06-10T05:35:53Z</time>
      </trkpt>
      <trkpt lat="43.43495" lon="6.04291">
        <ele>272.1</ele>
        <time>2017-06-10T05:35:55Z</time>
      </trkpt>
      <trkpt lat="43.43498" lon="6.04277">
        <ele>271.7</ele>
        <time>2017-06-10T05:35:57Z</time>
      </trkpt>
      <trkpt lat="43.43502" lon="6.04263">
        <ele>271.3</ele>
        <time>2017-06-10T05:35:59Z</time>
      </trkpt>
      <trkpt lat="43.43507" lon="6.04251">
        <ele>270.8</ele>
        <time>2017-06-10T05:36:01Z</time>
      </trkpt>
      <trkpt lat="43.43516" lon="6.04241">
        <ele>270.4</ele>
        <time>2017-06-10T05:36:03Z</time>
      </trkpt>
      <trkpt lat="43.43526" lon="6.04234">
        <ele>270.1</ele>
        <time>2017-06-10T05:36:05Z</time>
      </trkpt>
      <trkpt lat="43.43535" lon="6.04225">
        <ele>270</ele>
        <time>2017-06-10T05:36:07Z</time>
      </trkpt>
      <trkpt lat="43.43541" lon="6.04214">
        <ele>270</ele>
        <time>2017-06-10T05:36:09Z</time>
      </trkpt>
      <trkpt lat="43.43545" lon="6.04202">
        <ele>270</ele>
        <time>2017-06-10T05:36:11Z</time>
      </trkpt>
      <trkpt lat="43.43543" lon="6.04189">
        <ele>270.1</ele>
        <time>2017-06-10T05:36:13Z</time>
      </trkpt>
      <trkpt lat="43.43537" lon="6.04174">
        <ele>270.4</ele>
        <time>2017-06-10T05:36:16Z</time>
      </trkpt>
      <trkpt lat="43.43535" lon="6.04161">
        <ele>270.9</ele>
        <time>2017-06-10T05:36:19Z</time>
      </trkpt>
      <trkpt lat="43.43537" lon="6.04146">
        <ele>271.6</ele>
        <time>2017-06-10T05:36:22Z</time>
      </trkpt>
      <trkpt lat="43.43542" lon="6.04134">
        <ele>272.5</ele>
        <time>2017-06-10T05:36:25Z</time>
      </trkpt>
      <trkpt lat="43.4355" lon="6.04122">
        <ele>273.2</ele>
        <time>2017-06-10T05:36:28Z</time>
      </trkpt>
      <trkpt lat="43.43556" lon="6.04107">
        <ele>273.7</ele>
        <time>2017-06-10T05:36:31Z</time>
      </trkpt>
      <trkpt lat="43.43561" lon="6.04091">
        <ele>274</ele>
        <time>2017-06-10T05:36:34Z</time>
      </trkpt>
      <trkpt lat="43.43564" lon="6.04079">
        <ele>274.2</ele>
        <time>2017-06-10T05:36:36Z</time>
      </trkpt>
      <trkpt lat="43.43568" lon="6.04063">
        <ele>274.3</ele>
        <time>2017-06-10T05:36:39Z</time>
      </trkpt>
      <trkpt lat="43.43576" lon="6.04051">
        <ele>274.4</ele>
        <time>2017-06-10T05:36:42Z</time>
      </trkpt>
      <trkpt lat="43.43582" lon="6.0404">
        <ele>274.5</ele>
        <time>2017-06-10T05:36:45Z</time>
      </trkpt>
      <trkpt lat="43.43589" lon="6.0403">
        <ele>274.5</ele>
        <time>2017-06-10T05:36:48Z</time>
      </trkpt>
      <trkpt lat="43.43594" lon="6.04019">
        <ele>274.4</ele>
        <time>2017-06-10T05:36:51Z</time>
      </trkpt>
      <trkpt lat="43.43599" lon="6.04007">
        <ele>274.3</ele>
        <time>2017-06-10T05:36:54Z</time>
      </trkpt>
      <trkpt lat="43.43603" lon="6.03992">
        <ele>274.4</ele>
        <time>2017-06-10T05:36:58Z</time>
      </trkpt>
      <trkpt lat="43.43607" lon="6.03979">
        <ele>274.6</ele>
        <time>2017-06-10T05:37:01Z</time>
      </trkpt>
      <trkpt lat="43.43608" lon="6.03966">
        <ele>275.1</ele>
        <time>2017-06-10T05:37:03Z</time>
      </trkpt>
      <trkpt lat="43.43609" lon="6.03947">
        <ele>275.6</ele>
        <time>2017-06-10T05:37:05Z</time>
      </trkpt>
      <trkpt lat="43.43605" lon="6.0393">
        <ele>276.2</ele>
        <time>2017-06-10T05:37:07Z</time>
      </trkpt>
      <trkpt lat="43.43599" lon="6.03918">
        <ele>276.8</ele>
        <time>2017-06-10T05:37:09Z</time>
      </trkpt>
      <trkpt lat="43.43593" lon="6.03902">
        <ele>277.5</ele>
        <time>2017-06-10T05:37:12Z</time>
      </trkpt>
      <trkpt lat="43.43592" lon="6.03889">
        <ele>278.1</ele>
        <time>2017-06-10T05:37:15Z</time>
      </trkpt>
      <trkpt lat="43.43592" lon="6.03873">
        <ele>278.8</ele>
        <time>2017-06-10T05:37:19Z</time>
      </trkpt>
      <trkpt lat="43.4359" lon="6.03857">
        <ele>279.5</ele>
        <time>2017-06-10T05:37:23Z</time>
      </trkpt>
      <trkpt lat="43.43588" lon="6.03844">
        <ele>280.1</ele>
        <time>2017-06-10T05:37:26Z</time>
      </trkpt>
      <trkpt lat="43.43587" lon="6.0383">
        <ele>280.4</ele>
        <time>2017-06-10T05:37:29Z</time>
      </trkpt>
      <trkpt lat="43.43584" lon="6.03817">
        <ele>280.4</ele>
        <time>2017-06-10T05:37:32Z</time>
      </trkpt>
      <trkpt lat="43.43578" lon="6.03805">
        <ele>280.2</ele>
        <time>2017-06-10T05:37:35Z</time>
      </trkpt>
      <trkpt lat="43.43572" lon="6.03793">
        <ele>279.9</ele>
        <time>2017-06-10T05:37:39Z</time>
      </trkpt>
      <trkpt lat="43.43571" lon="6.0378">
        <ele>279.5</ele>
        <time>2017-06-10T05:37:43Z</time>
      </trkpt>
      <trkpt lat="43.43573" lon="6.03765">
        <ele>279.1</ele>
        <time>2017-06-10T05:37:48Z</time>
      </trkpt>
      <trkpt lat="43.43573" lon="6.03749">
        <ele>278.6</ele>
        <time>2017-06-10T05:37:51Z</time>
      </trkpt>
      <trkpt lat="43.43573" lon="6.03737">
        <ele>278.2</ele>
        <time>2017-06-10T05:37:53Z</time>
      </trkpt>
      <trkpt lat="43.43573" lon="6.03724">
        <ele>277.6</ele>
        <time>2017-06-10T05:37:55Z</time>
      </trkpt>
      <trkpt lat="43.43572" lon="6.03711">
        <ele>277</ele>
        <time>2017-06-10T05:37:57Z</time>
      </trkpt>
      <trkpt lat="43.43573" lon="6.03693">
        <ele>276.5</ele>
        <time>2017-06-10T05:38:00Z</time>
      </trkpt>
      <trkpt lat="43.43575" lon="6.0368">
        <ele>276</ele>
        <time>2017-06-10T05:38:02Z</time>
      </trkpt>
      <trkpt lat="43.43578" lon="6.03663">
        <ele>275.9</ele>
        <time>2017-06-10T05:38:05Z</time>
      </trkpt>
      <trkpt lat="43.4358" lon="6.03648">
        <ele>276</ele>
        <time>2017-06-10T05:38:08Z</time>
      </trkpt>
      <trkpt lat="43.43582" lon="6.03636">
        <ele>276.3</ele>
        <time>2017-06-10T05:38:10Z</time>
      </trkpt>
      <trkpt lat="43.43583" lon="6.03623">
        <ele>276.5</ele>
        <time>2017-06-10T05:38:12Z</time>
      </trkpt>
      <trkpt lat="43.43583" lon="6.0361">
        <ele>276.7</ele>
        <time>2017-06-10T05:38:14Z</time>
      </trkpt>
      <trkpt lat="43.43582" lon="6.03597">
        <ele>276.9</ele>
        <time>2017-06-10T05:38:16Z</time>
      </trkpt>
      <trkpt lat="43.43583" lon="6.03584">
        <ele>277.1</ele>
        <time>2017-06-10T05:38:18Z</time>
      </trkpt>
      <trkpt lat="43.43585" lon="6.03571">
        <ele>277.3</ele>
        <time>2017-06-10T05:38:20Z</time>
      </trkpt>
      <trkpt lat="43.43591" lon="6.03555">
        <ele>277.6</ele>
        <time>2017-06-10T05:38:23Z</time>
      </trkpt>
      <trkpt lat="43.436" lon="6.03542">
        <ele>278.1</ele>
        <time>2017-06-10T05:38:26Z</time>
      </trkpt>
      <trkpt lat="43.43605" lon="6.03531">
        <ele>278.5</ele>
        <time>2017-06-10T05:38:28Z</time>
      </trkpt>
      <trkpt lat="43.4361" lon="6.0352">
        <ele>278.8</ele>
        <time>2017-06-10T05:38:30Z</time>
      </trkpt>
      <trkpt lat="43.43614" lon="6.03506">
        <ele>279</ele>
        <time>2017-06-10T05:38:33Z</time>
      </trkpt>
      <trkpt lat="43.43615" lon="6.03489">
        <ele>279.1</ele>
        <time>2017-06-10T05:38:36Z</time>
      </trkpt>
      <trkpt lat="43.43618" lon="6.03473">
        <ele>279.3</ele>
        <time>2017-06-10T05:38:39Z</time>
      </trkpt>
      <trkpt lat="43.43622" lon="6.0346">
        <ele>279.5</ele>
        <time>2017-06-10T05:38:42Z</time>
      </trkpt>
      <trkpt lat="43.43626" lon="6.03447">
        <ele>279.7</ele>
        <time>2017-06-10T05:38:45Z</time>
      </trkpt>
      <trkpt lat="43.43628" lon="6.03433">
        <ele>279.9</ele>
        <time>2017-06-10T05:38:48Z</time>
      </trkpt>
      <trkpt lat="43.43627" lon="6.03418">
        <ele>280.1</ele>
        <time>2017-06-10T05:38:51Z</time>
      </trkpt>
      <trkpt lat="43.43627" lon="6.03402">
        <ele>280.2</ele>
        <time>2017-06-10T05:38:54Z</time>
      </trkpt>
      <trkpt lat="43.43628" lon="6.03385">
        <ele>280.2</ele>
        <time>2017-06-10T05:38:57Z</time>
      </trkpt>
      <trkpt lat="43.43637" lon="6.03373">
        <ele>280.3</ele>
        <time>2017-06-10T05:39:00Z</time>
      </trkpt>
      <trkpt lat="43.43644" lon="6.0336">
        <ele>280.3</ele>
        <time>2017-06-10T05:39:03Z</time>
      </trkpt>
      <trkpt lat="43.43651" lon="6.03346">
        <ele>280.3</ele>
        <time>2017-06-10T05:39:06Z</time>
      </trkpt>
      <trkpt lat="43.43659" lon="6.03333">
        <ele>280.2</ele>
        <time>2017-06-10T05:39:09Z</time>
      </trkpt>
      <trkpt lat="43.43666" lon="6.03319">
        <ele>279.9</ele>
        <time>2017-06-10T05:39:12Z</time>
      </trkpt>
      <trkpt lat="43.43669" lon="6.03306">
        <ele>279.6</ele>
        <time>2017-06-10T05:39:15Z</time>
      </trkpt>
      <trkpt lat="43.43677" lon="6.03293">
        <ele>279.5</ele>
        <time>2017-06-10T05:39:19Z</time>
      </trkpt>
      <trkpt lat="43.43685" lon="6.03282">
        <ele>279.5</ele>
        <time>2017-06-10T05:39:22Z</time>
      </trkpt>
      <trkpt lat="43.4369" lon="6.03268">
        <ele>279.5</ele>
        <time>2017-06-10T05:39:25Z</time>
      </trkpt>
      <trkpt lat="43.43692" lon="6.03253">
        <ele>279.5</ele>
        <time>2017-06-10T05:39:28Z</time>
      </trkpt>
      <trkpt lat="43.4369" lon="6.0324">
        <ele>279.5</ele>
        <time>2017-06-10T05:39:31Z</time>
      </trkpt>
      <trkpt lat="43.43687" lon="6.03227">
        <ele>279.4</ele>
        <time>2017-06-10T05:39:34Z</time>
      </trkpt>
      <trkpt lat="43.43687" lon="6.03214">
        <ele>279.5</ele>
        <time>2017-06-10T05:39:37Z</time>
      </trkpt>
      <trkpt lat="43.43691" lon="6.032">
        <ele>279.5</ele>
        <time>2017-06-10T05:39:40Z</time>
      </trkpt>
      <trkpt lat="43.43694" lon="6.03188">
        <ele>279.7</ele>
        <time>2017-06-10T05:39:43Z</time>
      </trkpt>
      <trkpt lat="43.43694" lon="6.03173">
        <ele>279.9</ele>
        <time>2017-06-10T05:39:46Z</time>
      </trkpt>
      <trkpt lat="43.43695" lon="6.03159">
        <ele>280.1</ele>
        <time>2017-06-10T05:39:49Z</time>
      </trkpt>
      <trkpt lat="43.43695" lon="6.03143">
        <ele>280.2</ele>
        <time>2017-06-10T05:39:52Z</time>
      </trkpt>
      <trkpt lat="43.43693" lon="6.03127">
        <ele>280.4</ele>
        <time>2017-06-10T05:39:55Z</time>
      </trkpt>
      <trkpt lat="43.43693" lon="6.03111">
        <ele>280.5</ele>
        <time>2017-06-10T05:39:58Z</time>
      </trkpt>
      <trkpt lat="43.43696" lon="6.03094">
        <ele>280.5</ele>
        <time>2017-06-10T05:40:01Z</time>
      </trkpt>
      <trkpt lat="43.437" lon="6.03079">
        <ele>280.6</ele>
        <time>2017-06-10T05:40:04Z</time>
      </trkpt>
      <trkpt lat="43.43707" lon="6.03065">
        <ele>280.6</ele>
        <time>2017-06-10T05:40:07Z</time>
      </trkpt>
      <trkpt lat="43.43718" lon="6.03056">
        <ele>280.5</ele>
        <time>2017-06-10T05:40:10Z</time>
      </trkpt>
      <trkpt lat="43.43728" lon="6.03051">
        <ele>280.5</ele>
        <time>2017-06-10T05:40:12Z</time>
      </trkpt>
      <trkpt lat="43.43736" lon="6.03046">
        <ele>280.4</ele>
        <time>2017-06-10T05:40:14Z</time>
      </trkpt>
      <trkpt lat="43.4375" lon="6.03041">
        <ele>280.4</ele>
        <time>2017-06-10T05:40:17Z</time>
      </trkpt>
      <trkpt lat="43.43759" lon="6.03037">
        <ele>280.5</ele>
        <time>2017-06-10T05:40:19Z</time>
      </trkpt>
      <trkpt lat="43.43768" lon="6.03024">
        <ele>280.5</ele>
        <time>2017-06-10T05:40:22Z</time>
      </trkpt>
      <trkpt lat="43.43774" lon="6.03009">
        <ele>280.5</ele>
        <time>2017-06-10T05:40:25Z</time>
      </trkpt>
      <trkpt lat="43.43782" lon="6.02995">
        <ele>280.5</ele>
        <time>2017-06-10T05:40:28Z</time>
      </trkpt>
      <trkpt lat="43.43787" lon="6.02984">
        <ele>280.6</ele>
        <time>2017-06-10T05:40:30Z</time>
      </trkpt>
      <trkpt lat="43.43787" lon="6.02967">
        <ele>280.7</ele>
        <time>2017-06-10T05:40:33Z</time>
      </trkpt>
      <trkpt lat="43.43788" lon="6.02953">
        <ele>280.9</ele>
        <time>2017-06-10T05:40:36Z</time>
      </trkpt>
      <trkpt lat="43.43793" lon="6.02941">
        <ele>281.1</ele>
        <time>2017-06-10T05:40:39Z</time>
      </trkpt>
      <trkpt lat="43.43796" lon="6.02928">
        <ele>281.3</ele>
        <time>2017-06-10T05:40:42Z</time>
      </trkpt>
      <trkpt lat="43.43795" lon="6.02912">
        <ele>281.5</ele>
        <time>2017-06-10T05:40:46Z</time>
      </trkpt>
      <trkpt lat="43.43792" lon="6.029">
        <ele>281.6</ele>
        <time>2017-06-10T05:40:49Z</time>
      </trkpt>
      <trkpt lat="43.43794" lon="6.02887">
        <ele>281.7</ele>
        <time>2017-06-10T05:40:52Z</time>
      </trkpt>
      <trkpt lat="43.43796" lon="6.02871">
        <ele>281.8</ele>
        <time>2017-06-10T05:40:56Z</time>
      </trkpt>
      <trkpt lat="43.438" lon="6.02858">
        <ele>281.9</ele>
        <time>2017-06-10T05:40:59Z</time>
      </trkpt>
      <trkpt lat="43.43805" lon="6.02846">
        <ele>282</ele>
        <time>2017-06-10T05:41:02Z</time>
      </trkpt>
      <trkpt lat="43.4381" lon="6.02834">
        <ele>281.9</ele>
        <time>2017-06-10T05:41:05Z</time>
      </trkpt>
      <trkpt lat="43.43811" lon="6.02821">
        <ele>281.9</ele>
        <time>2017-06-10T05:41:08Z</time>
      </trkpt>
      <trkpt lat="43.43806" lon="6.02807">
        <ele>282</ele>
        <time>2017-06-10T05:41:12Z</time>
      </trkpt>
      <trkpt lat="43.43799" lon="6.02798">
        <ele>282.2</ele>
        <time>2017-06-10T05:41:16Z</time>
      </trkpt>
      <trkpt lat="43.43793" lon="6.02786">
        <ele>282.4</ele>
        <time>2017-06-10T05:41:21Z</time>
      </trkpt>
      <trkpt lat="43.43787" lon="6.02776">
        <ele>282.5</ele>
        <time>2017-06-10T05:41:25Z</time>
      </trkpt>
      <trkpt lat="43.43786" lon="6.02761">
        <ele>282.7</ele>
        <time>2017-06-10T05:41:30Z</time>
      </trkpt>
      <trkpt lat="43.43788" lon="6.02746">
        <ele>283</ele>
        <time>2017-06-10T05:41:34Z</time>
      </trkpt>
      <trkpt lat="43.43787" lon="6.02733">
        <ele>283.3</ele>
        <time>2017-06-10T05:41:38Z</time>
      </trkpt>
      <trkpt lat="43.43783" lon="6.02721">
        <ele>283.5</ele>
        <time>2017-06-10T05:41:42Z</time>
      </trkpt>
      <trkpt lat="43.43772" lon="6.02716">
        <ele>283.6</ele>
        <time>2017-06-10T05:41:46Z</time>
      </trkpt>
      <trkpt lat="43.43765" lon="6.02707">
        <ele>283.9</ele>
        <time>2017-06-10T05:41:50Z</time>
      </trkpt>
      <trkpt lat="43.43773" lon="6.02697">
        <ele>284.1</ele>
        <time>2017-06-10T05:41:55Z</time>
      </trkpt>
      <trkpt lat="43.43783" lon="6.0269">
        <ele>284.3</ele>
        <time>2017-06-10T05:41:59Z</time>
      </trkpt>
      <trkpt lat="43.4379" lon="6.02678">
        <ele>284.5</ele>
        <time>2017-06-10T05:42:03Z</time>
      </trkpt>
      <trkpt lat="43.43787" lon="6.02665">
        <ele>284.7</ele>
        <time>2017-06-10T05:42:07Z</time>
      </trkpt>
      <trkpt lat="43.43786" lon="6.0265">
        <ele>285.1</ele>
        <time>2017-06-10T05:42:11Z</time>
      </trkpt>
      <trkpt lat="43.43783" lon="6.02635">
        <ele>285.5</ele>
        <time>2017-06-10T05:42:15Z</time>
      </trkpt>
      <trkpt lat="43.43786" lon="6.02623">
        <ele>285.8</ele>
        <time>2017-06-10T05:42:18Z</time>
      </trkpt>
      <trkpt lat="43.4379" lon="6.02609">
        <ele>286.2</ele>
        <time>2017-06-10T05:42:21Z</time>
      </trkpt>
      <trkpt lat="43.43793" lon="6.02595">
        <ele>286.7</ele>
        <time>2017-06-10T05:42:24Z</time>
      </trkpt>
      <trkpt lat="43.43793" lon="6.02581">
        <ele>287.3</ele>
        <time>2017-06-10T05:42:27Z</time>
      </trkpt>
      <trkpt lat="43.43791" lon="6.02566">
        <ele>287.8</ele>
        <time>2017-06-10T05:42:30Z</time>
      </trkpt>
      <trkpt lat="43.43788" lon="6.02553">
        <ele>288.3</ele>
        <time>2017-06-10T05:42:33Z</time>
      </trkpt>
      <trkpt lat="43.43788" lon="6.02538">
        <ele>288.7</ele>
        <time>2017-06-10T05:42:36Z</time>
      </trkpt>
      <trkpt lat="43.43789" lon="6.02525">
        <ele>289.2</ele>
        <time>2017-06-10T05:42:39Z</time>
      </trkpt>
      <trkpt lat="43.43795" lon="6.02509">
        <ele>289.5</ele>
        <time>2017-06-10T05:42:42Z</time>
      </trkpt>
      <trkpt lat="43.43795" lon="6.02493">
        <ele>289.8</ele>
        <time>2017-06-10T05:42:45Z</time>
      </trkpt>
      <trkpt lat="43.43795" lon="6.0248">
        <ele>289.9</ele>
        <time>2017-06-10T05:42:49Z</time>
      </trkpt>
      <trkpt lat="43.43787" lon="6.02475">
        <ele>289.9</ele>
        <time>2017-06-10T05:43:08Z</time>
      </trkpt>
      <trkpt lat="43.43778" lon="6.02469">
        <ele>290</ele>
        <time>2017-06-10T05:43:19Z</time>
      </trkpt>
      <trkpt lat="43.43774" lon="6.02457">
        <ele>290</ele>
        <time>2017-06-10T05:43:23Z</time>
      </trkpt>
      <trkpt lat="43.4377" lon="6.02446">
        <ele>290.2</ele>
        <time>2017-06-10T05:43:29Z</time>
      </trkpt>
      <trkpt lat="43.43775" lon="6.02434">
        <ele>290.4</ele>
        <time>2017-06-10T05:43:34Z</time>
      </trkpt>
      <trkpt lat="43.4377" lon="6.02423">
        <ele>290.5</ele>
        <time>2017-06-10T05:43:38Z</time>
      </trkpt>
      <trkpt lat="43.43763" lon="6.02414">
        <ele>290.6</ele>
        <time>2017-06-10T05:43:43Z</time>
      </trkpt>
      <trkpt lat="43.43757" lon="6.02401">
        <ele>290.7</ele>
        <time>2017-06-10T05:43:49Z</time>
      </trkpt>
      <trkpt lat="43.43749" lon="6.02396">
        <ele>290.8</ele>
        <time>2017-06-10T05:43:54Z</time>
      </trkpt>
      <trkpt lat="43.43743" lon="6.02383">
        <ele>290.9</ele>
        <time>2017-06-10T05:43:59Z</time>
      </trkpt>
      <trkpt lat="43.43739" lon="6.02371">
        <ele>291.1</ele>
        <time>2017-06-10T05:44:03Z</time>
      </trkpt>
      <trkpt lat="43.43734" lon="6.02361">
        <ele>291.3</ele>
        <time>2017-06-10T05:44:07Z</time>
      </trkpt>
      <trkpt lat="43.43724" lon="6.02361">
        <ele>291.4</ele>
        <time>2017-06-10T05:44:12Z</time>
      </trkpt>
      <trkpt lat="43.43719" lon="6.02352">
        <ele>291.5</ele>
        <time>2017-06-10T05:44:16Z</time>
      </trkpt>
      <trkpt lat="43.43718" lon="6.02335">
        <ele>291.3</ele>
        <time>2017-06-10T05:44:20Z</time>
      </trkpt>
      <trkpt lat="43.43725" lon="6.02326">
        <ele>291</ele>
        <time>2017-06-10T05:44:23Z</time>
      </trkpt>
      <trkpt lat="43.43734" lon="6.02313">
        <ele>290.7</ele>
        <time>2017-06-10T05:44:26Z</time>
      </trkpt>
      <trkpt lat="43.4374" lon="6.023">
        <ele>290.5</ele>
        <time>2017-06-10T05:44:28Z</time>
      </trkpt>
      <trkpt lat="43.43745" lon="6.02288">
        <ele>290</ele>
        <time>2017-06-10T05:44:30Z</time>
      </trkpt>
      <trkpt lat="43.43753" lon="6.02272">
        <ele>289.6</ele>
        <time>2017-06-10T05:44:33Z</time>
      </trkpt>
      <trkpt lat="43.43759" lon="6.02261">
        <ele>289.3</ele>
        <time>2017-06-10T05:44:35Z</time>
      </trkpt>
      <trkpt lat="43.43765" lon="6.02249">
        <ele>289.1</ele>
        <time>2017-06-10T05:44:37Z</time>
      </trkpt>
      <trkpt lat="43.4377" lon="6.02234">
        <ele>288.9</ele>
        <time>2017-06-10T05:44:40Z</time>
      </trkpt>
      <trkpt lat="43.43772" lon="6.02216">
        <ele>288.7</ele>
        <time>2017-06-10T05:44:43Z</time>
      </trkpt>
      <trkpt lat="43.43769" lon="6.02199">
        <ele>288.5</ele>
        <time>2017-06-10T05:44:46Z</time>
      </trkpt>
      <trkpt lat="43.43769" lon="6.02185">
        <ele>288.4</ele>
        <time>2017-06-10T05:44:49Z</time>
      </trkpt>
      <trkpt lat="43.43774" lon="6.02174">
        <ele>288.3</ele>
        <time>2017-06-10T05:44:52Z</time>
      </trkpt>
      <trkpt lat="43.43779" lon="6.02157">
        <ele>288.3</ele>
        <time>2017-06-10T05:44:55Z</time>
      </trkpt>
      <trkpt lat="43.43787" lon="6.02143">
        <ele>288.3</ele>
        <time>2017-06-10T05:44:58Z</time>
      </trkpt>
      <trkpt lat="43.43795" lon="6.02137">
        <ele>288.4</ele>
        <time>2017-06-10T05:45:00Z</time>
      </trkpt>
      <trkpt lat="43.43803" lon="6.0213">
        <ele>288.4</ele>
        <time>2017-06-10T05:45:02Z</time>
      </trkpt>
      <trkpt lat="43.4381" lon="6.02123">
        <ele>288.3</ele>
        <time>2017-06-10T05:45:04Z</time>
      </trkpt>
      <trkpt lat="43.43817" lon="6.0211">
        <ele>288.1</ele>
        <time>2017-06-10T05:45:07Z</time>
      </trkpt>
      <trkpt lat="43.43818" lon="6.02097">
        <ele>287.9</ele>
        <time>2017-06-10T05:45:10Z</time>
      </trkpt>
      <trkpt lat="43.4382" lon="6.02083">
        <ele>287.8</ele>
        <time>2017-06-10T05:45:13Z</time>
      </trkpt>
      <trkpt lat="43.43823" lon="6.0207">
        <ele>287.7</ele>
        <time>2017-06-10T05:45:16Z</time>
      </trkpt>
      <trkpt lat="43.43831" lon="6.02056">
        <ele>287.8</ele>
        <time>2017-06-10T05:45:19Z</time>
      </trkpt>
      <trkpt lat="43.43837" lon="6.02046">
        <ele>287.9</ele>
        <time>2017-06-10T05:45:21Z</time>
      </trkpt>
      <trkpt lat="43.43838" lon="6.02028">
        <ele>288</ele>
        <time>2017-06-10T05:45:24Z</time>
      </trkpt>
      <trkpt lat="43.43839" lon="6.02011">
        <ele>288.1</ele>
        <time>2017-06-10T05:45:27Z</time>
      </trkpt>
      <trkpt lat="43.43842" lon="6.01994">
        <ele>288.3</ele>
        <time>2017-06-10T05:45:30Z</time>
      </trkpt>
      <trkpt lat="43.43843" lon="6.01977">
        <ele>288.5</ele>
        <time>2017-06-10T05:45:33Z</time>
      </trkpt>
      <trkpt lat="43.43847" lon="6.01964">
        <ele>288.9</ele>
        <time>2017-06-10T05:45:36Z</time>
      </trkpt>
      <trkpt lat="43.43851" lon="6.01952">
        <ele>289.4</ele>
        <time>2017-06-10T05:45:47Z</time>
      </trkpt>
      <trkpt lat="43.43858" lon="6.01941">
        <ele>289.8</ele>
        <time>2017-06-10T05:45:50Z</time>
      </trkpt>
      <trkpt lat="43.43867" lon="6.01928">
        <ele>290.2</ele>
        <time>2017-06-10T05:45:53Z</time>
      </trkpt>
      <trkpt lat="43.43872" lon="6.01911">
        <ele>290.6</ele>
        <time>2017-06-10T05:45:56Z</time>
      </trkpt>
      <trkpt lat="43.43874" lon="6.01894">
        <ele>291</ele>
        <time>2017-06-10T05:45:59Z</time>
      </trkpt>
      <trkpt lat="43.43877" lon="6.01878">
        <ele>291.4</ele>
        <time>2017-06-10T05:46:02Z</time>
      </trkpt>
      <trkpt lat="43.4388" lon="6.01861">
        <ele>291.7</ele>
        <time>2017-06-10T05:46:05Z</time>
      </trkpt>
      <trkpt lat="43.43883" lon="6.01844">
        <ele>292.1</ele>
        <time>2017-06-10T05:46:08Z</time>
      </trkpt>
      <trkpt lat="43.43885" lon="6.01827">
        <ele>292.5</ele>
        <time>2017-06-10T05:46:11Z</time>
      </trkpt>
      <trkpt lat="43.43885" lon="6.01812">
        <ele>292.8</ele>
        <time>2017-06-10T05:46:14Z</time>
      </trkpt>
      <trkpt lat="43.43883" lon="6.01799">
        <ele>293.3</ele>
        <time>2017-06-10T05:46:17Z</time>
      </trkpt>
      <trkpt lat="43.43888" lon="6.01785">
        <ele>293.6</ele>
        <time>2017-06-10T05:46:21Z</time>
      </trkpt>
      <trkpt lat="43.4389" lon="6.01771">
        <ele>294</ele>
        <time>2017-06-10T05:46:25Z</time>
      </trkpt>
      <trkpt lat="43.43891" lon="6.01756">
        <ele>294.5</ele>
        <time>2017-06-10T05:46:29Z</time>
      </trkpt>
      <trkpt lat="43.43889" lon="6.01741">
        <ele>294.7</ele>
        <time>2017-06-10T05:46:33Z</time>
      </trkpt>
      <trkpt lat="43.43886" lon="6.01729">
        <ele>295</ele>
        <time>2017-06-10T05:46:36Z</time>
      </trkpt>
      <trkpt lat="43.43881" lon="6.01717">
        <ele>295.4</ele>
        <time>2017-06-10T05:46:39Z</time>
      </trkpt>
      <trkpt lat="43.43876" lon="6.01705">
        <ele>295.7</ele>
        <time>2017-06-10T05:46:42Z</time>
      </trkpt>
      <trkpt lat="43.43873" lon="6.01692">
        <ele>296.1</ele>
        <time>2017-06-10T05:46:45Z</time>
      </trkpt>
      <trkpt lat="43.43872" lon="6.01678">
        <ele>296.5</ele>
        <time>2017-06-10T05:46:48Z</time>
      </trkpt>
      <trkpt lat="43.43873" lon="6.01665">
        <ele>296.7</ele>
        <time>2017-06-10T05:46:51Z</time>
      </trkpt>
      <trkpt lat="43.43867" lon="6.01654">
        <ele>296.9</ele>
        <time>2017-06-10T05:46:55Z</time>
      </trkpt>
      <trkpt lat="43.43857" lon="6.01658">
        <ele>297.2</ele>
        <time>2017-06-10T05:46:58Z</time>
      </trkpt>
      <trkpt lat="43.43849" lon="6.01668">
        <ele>297.5</ele>
        <time>2017-06-10T05:47:01Z</time>
      </trkpt>
      <trkpt lat="43.43841" lon="6.01677">
        <ele>297.5</ele>
        <time>2017-06-10T05:47:04Z</time>
      </trkpt>
      <trkpt lat="43.43832" lon="6.01684">
        <ele>297.7</ele>
        <time>2017-06-10T05:47:07Z</time>
      </trkpt>
      <trkpt lat="43.43823" lon="6.01689">
        <ele>297.9</ele>
        <time>2017-06-10T05:47:10Z</time>
      </trkpt>
      <trkpt lat="43.43813" lon="6.01693">
        <ele>298</ele>
        <time>2017-06-10T05:47:13Z</time>
      </trkpt>
      <trkpt lat="43.43804" lon="6.01697">
        <ele>298.2</ele>
        <time>2017-06-10T05:47:16Z</time>
      </trkpt>
      <trkpt lat="43.43794" lon="6.017">
        <ele>298.4</ele>
        <time>2017-06-10T05:47:19Z</time>
      </trkpt>
      <trkpt lat="43.43785" lon="6.017">
        <ele>298.5</ele>
        <time>2017-06-10T05:47:22Z</time>
      </trkpt>
      <trkpt lat="43.43775" lon="6.01697">
        <ele>298.6</ele>
        <time>2017-06-10T05:47:25Z</time>
      </trkpt>
      <trkpt lat="43.43765" lon="6.01693">
        <ele>298.7</ele>
        <time>2017-06-10T05:47:29Z</time>
      </trkpt>
      <trkpt lat="43.43755" lon="6.01687">
        <ele>298.7</ele>
        <time>2017-06-10T05:47:33Z</time>
      </trkpt>
      <trkpt lat="43.43746" lon="6.01682">
        <ele>298.7</ele>
        <time>2017-06-10T05:47:37Z</time>
      </trkpt>
      <trkpt lat="43.43742" lon="6.01671">
        <ele>298.8</ele>
        <time>2017-06-10T05:47:41Z</time>
      </trkpt>
      <trkpt lat="43.43745" lon="6.01659">
        <ele>298.9</ele>
        <time>2017-06-10T05:47:44Z</time>
      </trkpt>
      <trkpt lat="43.4375" lon="6.01645">
        <ele>299</ele>
        <time>2017-06-10T05:47:47Z</time>
      </trkpt>
      <trkpt lat="43.43754" lon="6.01629">
        <ele>299</ele>
        <time>2017-06-10T05:47:50Z</time>
      </trkpt>
      <trkpt lat="43.4376" lon="6.01612">
        <ele>298.9</ele>
        <time>2017-06-10T05:47:53Z</time>
      </trkpt>
      <trkpt lat="43.43763" lon="6.01599">
        <ele>298.8</ele>
        <time>2017-06-10T05:47:55Z</time>
      </trkpt>
      <trkpt lat="43.43767" lon="6.01588">
        <ele>298.6</ele>
        <time>2017-06-10T05:47:57Z</time>
      </trkpt>
      <trkpt lat="43.43773" lon="6.01571">
        <ele>298.6</ele>
        <time>2017-06-10T05:48:00Z</time>
      </trkpt>
      <trkpt lat="43.43777" lon="6.0156">
        <ele>298.7</ele>
        <time>2017-06-10T05:48:02Z</time>
      </trkpt>
      <trkpt lat="43.4378" lon="6.01547">
        <ele>298.8</ele>
        <time>2017-06-10T05:48:04Z</time>
      </trkpt>
      <trkpt lat="43.43783" lon="6.01534">
        <ele>298.9</ele>
        <time>2017-06-10T05:48:06Z</time>
      </trkpt>
      <trkpt lat="43.43786" lon="6.01521">
        <ele>299</ele>
        <time>2017-06-10T05:48:08Z</time>
      </trkpt>
      <trkpt lat="43.43788" lon="6.01507">
        <ele>299</ele>
        <time>2017-06-10T05:48:10Z</time>
      </trkpt>
      <trkpt lat="43.4379" lon="6.01493">
        <ele>298.9</ele>
        <time>2017-06-10T05:48:12Z</time>
      </trkpt>
      <trkpt lat="43.43791" lon="6.01481">
        <ele>298.8</ele>
        <time>2017-06-10T05:48:14Z</time>
      </trkpt>
      <trkpt lat="43.4379" lon="6.01461">
        <ele>298.6</ele>
        <time>2017-06-10T05:48:18Z</time>
      </trkpt>
      <trkpt lat="43.43789" lon="6.01446">
        <ele>298.5</ele>
        <time>2017-06-10T05:48:21Z</time>
      </trkpt>
      <trkpt lat="43.43787" lon="6.01428">
        <ele>298.5</ele>
        <time>2017-06-10T05:48:24Z</time>
      </trkpt>
      <trkpt lat="43.43786" lon="6.01416">
        <ele>298.4</ele>
        <time>2017-06-10T05:48:26Z</time>
      </trkpt>
      <trkpt lat="43.43785" lon="6.01403">
        <ele>298.4</ele>
        <time>2017-06-10T05:48:28Z</time>
      </trkpt>
      <trkpt lat="43.43785" lon="6.01388">
        <ele>298.5</ele>
        <time>2017-06-10T05:48:30Z</time>
      </trkpt>
      <trkpt lat="43.43781" lon="6.0137">
        <ele>298.8</ele>
        <time>2017-06-10T05:48:33Z</time>
      </trkpt>
      <trkpt lat="43.43782" lon="6.01355">
        <ele>299.1</ele>
        <time>2017-06-10T05:48:36Z</time>
      </trkpt>
      <trkpt lat="43.43781" lon="6.01341">
        <ele>299.5</ele>
        <time>2017-06-10T05:48:39Z</time>
      </trkpt>
      <trkpt lat="43.4378" lon="6.01324">
        <ele>299.9</ele>
        <time>2017-06-10T05:48:42Z</time>
      </trkpt>
      <trkpt lat="43.43778" lon="6.01307">
        <ele>300.5</ele>
        <time>2017-06-10T05:48:45Z</time>
      </trkpt>
      <trkpt lat="43.43776" lon="6.01291">
        <ele>301.1</ele>
        <time>2017-06-10T05:48:48Z</time>
      </trkpt>
      <trkpt lat="43.43773" lon="6.01279">
        <ele>301.6</ele>
        <time>2017-06-10T05:48:51Z</time>
      </trkpt>
      <trkpt lat="43.43771" lon="6.01265">
        <ele>302.2</ele>
        <time>2017-06-10T05:48:55Z</time>
      </trkpt>
      <trkpt lat="43.43767" lon="6.01251">
        <ele>302.6</ele>
        <time>2017-06-10T05:48:59Z</time>
      </trkpt>
      <trkpt lat="43.43765" lon="6.01237">
        <ele>302.9</ele>
        <time>2017-06-10T05:49:03Z</time>
      </trkpt>
      <trkpt lat="43.43764" lon="6.01222">
        <ele>303</ele>
        <time>2017-06-10T05:49:07Z</time>
      </trkpt>
      <trkpt lat="43.43765" lon="6.01209">
        <ele>303</ele>
        <time>2017-06-10T05:49:11Z</time>
      </trkpt>
      <trkpt lat="43.43765" lon="6.01194">
        <ele>303.1</ele>
        <time>2017-06-10T05:49:16Z</time>
      </trkpt>
      <trkpt lat="43.43768" lon="6.01178">
        <ele>303.3</ele>
        <time>2017-06-10T05:49:21Z</time>
      </trkpt>
      <trkpt lat="43.43771" lon="6.01167">
        <ele>303.5</ele>
        <time>2017-06-10T05:49:24Z</time>
      </trkpt>
      <trkpt lat="43.43775" lon="6.01154">
        <ele>303.6</ele>
        <time>2017-06-10T05:49:27Z</time>
      </trkpt>
      <trkpt lat="43.4378" lon="6.01141">
        <ele>303.8</ele>
        <time>2017-06-10T05:49:30Z</time>
      </trkpt>
      <trkpt lat="43.43785" lon="6.01128">
        <ele>304.1</ele>
        <time>2017-06-10T05:49:33Z</time>
      </trkpt>
      <trkpt lat="43.43791" lon="6.01116">
        <ele>304.4</ele>
        <time>2017-06-10T05:49:36Z</time>
      </trkpt>
      <trkpt lat="43.43796" lon="6.01102">
        <ele>304.6</ele>
        <time>2017-06-10T05:49:39Z</time>
      </trkpt>
      <trkpt lat="43.438" lon="6.01088">
        <ele>304.9</ele>
        <time>2017-06-10T05:49:42Z</time>
      </trkpt>
      <trkpt lat="43.43803" lon="6.01074">
        <ele>305.3</ele>
        <time>2017-06-10T05:49:45Z</time>
      </trkpt>
      <trkpt lat="43.43808" lon="6.0106">
        <ele>305.6</ele>
        <time>2017-06-10T05:49:48Z</time>
      </trkpt>
      <trkpt lat="43.43814" lon="6.01044">
        <ele>306</ele>
        <time>2017-06-10T05:49:51Z</time>
      </trkpt>
      <trkpt lat="43.43819" lon="6.01033">
        <ele>306.4</ele>
        <time>2017-06-10T05:49:53Z</time>
      </trkpt>
      <trkpt lat="43.43821" lon="6.01017">
        <ele>306.8</ele>
        <time>2017-06-10T05:49:56Z</time>
      </trkpt>
      <trkpt lat="43.43825" lon="6.01005">
        <ele>307.3</ele>
        <time>2017-06-10T05:49:58Z</time>
      </trkpt>
      <trkpt lat="43.43828" lon="6.0099">
        <ele>307.7</ele>
        <time>2017-06-10T05:50:01Z</time>
      </trkpt>
      <trkpt lat="43.43828" lon="6.00975">
        <ele>308.1</ele>
        <time>2017-06-10T05:50:04Z</time>
      </trkpt>
      <trkpt lat="43.43825" lon="6.00959">
        <ele>308.5</ele>
        <time>2017-06-10T05:50:08Z</time>
      </trkpt>
      <trkpt lat="43.43822" lon="6.00945">
        <ele>309</ele>
        <time>2017-06-10T05:50:12Z</time>
      </trkpt>
      <trkpt lat="43.43816" lon="6.00931">
        <ele>309.5</ele>
        <time>2017-06-10T05:50:17Z</time>
      </trkpt>
      <trkpt lat="43.43812" lon="6.00919">
        <ele>310</ele>
        <time>2017-06-10T05:50:21Z</time>
      </trkpt>
      <trkpt lat="43.43813" lon="6.00904">
        <ele>310.5</ele>
        <time>2017-06-10T05:50:25Z</time>
      </trkpt>
      <trkpt lat="43.43811" lon="6.00891">
        <ele>310.7</ele>
        <time>2017-06-10T05:50:29Z</time>
      </trkpt>
      <trkpt lat="43.43806" lon="6.00877">
        <ele>310.9</ele>
        <time>2017-06-10T05:50:33Z</time>
      </trkpt>
      <trkpt lat="43.43804" lon="6.00863">
        <ele>311</ele>
        <time>2017-06-10T05:50:37Z</time>
      </trkpt>
      <trkpt lat="43.43807" lon="6.00848">
        <ele>311.2</ele>
        <time>2017-06-10T05:50:41Z</time>
      </trkpt>
      <trkpt lat="43.43811" lon="6.00836">
        <ele>311.5</ele>
        <time>2017-06-10T05:50:44Z</time>
      </trkpt>
      <trkpt lat="43.43817" lon="6.00822">
        <ele>311.9</ele>
        <time>2017-06-10T05:50:47Z</time>
      </trkpt>
      <trkpt lat="43.43822" lon="6.00806">
        <ele>312.5</ele>
        <time>2017-06-10T05:50:50Z</time>
      </trkpt>
      <trkpt lat="43.43825" lon="6.00793">
        <ele>313.2</ele>
        <time>2017-06-10T05:50:53Z</time>
      </trkpt>
      <trkpt lat="43.43826" lon="6.00776">
        <ele>313.8</ele>
        <time>2017-06-10T05:50:57Z</time>
      </trkpt>
      <trkpt lat="43.43823" lon="6.0076">
        <ele>314.5</ele>
        <time>2017-06-10T05:51:01Z</time>
      </trkpt>
      <trkpt lat="43.43819" lon="6.00748">
        <ele>315.4</ele>
        <time>2017-06-10T05:51:05Z</time>
      </trkpt>
      <trkpt lat="43.43819" lon="6.00734">
        <ele>316.2</ele>
        <time>2017-06-10T05:51:09Z</time>
      </trkpt>
      <trkpt lat="43.43819" lon="6.0072">
        <ele>316.8</ele>
        <time>2017-06-10T05:51:13Z</time>
      </trkpt>
      <trkpt lat="43.43819" lon="6.00706">
        <ele>317.4</ele>
        <time>2017-06-10T05:51:17Z</time>
      </trkpt>
      <trkpt lat="43.43817" lon="6.00692">
        <ele>317.7</ele>
        <time>2017-06-10T05:51:21Z</time>
      </trkpt>
      <trkpt lat="43.43818" lon="6.00679">
        <ele>317.9</ele>
        <time>2017-06-10T05:51:25Z</time>
      </trkpt>
      <trkpt lat="43.43821" lon="6.00667">
        <ele>317.7</ele>
        <time>2017-06-10T05:51:30Z</time>
      </trkpt>
      <trkpt lat="43.43833" lon="6.00664">
        <ele>317.4</ele>
        <time>2017-06-10T05:51:45Z</time>
      </trkpt>
      <trkpt lat="43.43839" lon="6.00654">
        <ele>316.9</ele>
        <time>2017-06-10T05:51:58Z</time>
      </trkpt>
      <trkpt lat="43.43844" lon="6.00644">
        <ele>316.5</ele>
        <time>2017-06-10T05:53:32Z</time>
      </trkpt>
      <trkpt lat="43.43847" lon="6.0063">
        <ele>316.2</ele>
        <time>2017-06-10T05:53:35Z</time>
      </trkpt>
      <trkpt lat="43.43853" lon="6.00615">
        <ele>315.8</ele>
        <time>2017-06-10T05:53:38Z</time>
      </trkpt>
      <trkpt lat="43.43858" lon="6.00601">
        <ele>315.6</ele>
        <time>2017-06-10T05:53:40Z</time>
      </trkpt>
      <trkpt lat="43.43864" lon="6.00586">
        <ele>315.7</ele>
        <time>2017-06-10T05:53:42Z</time>
      </trkpt>
      <trkpt lat="43.43869" lon="6.00572">
        <ele>316</ele>
        <time>2017-06-10T05:53:44Z</time>
      </trkpt>
      <trkpt lat="43.43871" lon="6.00559">
        <ele>316.4</ele>
        <time>2017-06-10T05:53:46Z</time>
      </trkpt>
      <trkpt lat="43.43875" lon="6.00547">
        <ele>316.9</ele>
        <time>2017-06-10T05:53:49Z</time>
      </trkpt>
      <trkpt lat="43.43878" lon="6.00534">
        <ele>317.7</ele>
        <time>2017-06-10T05:53:53Z</time>
      </trkpt>
      <trkpt lat="43.43882" lon="6.00523">
        <ele>318.5</ele>
        <time>2017-06-10T05:53:57Z</time>
      </trkpt>
      <trkpt lat="43.43886" lon="6.00512">
        <ele>319.3</ele>
        <time>2017-06-10T05:54:01Z</time>
      </trkpt>
      <trkpt lat="43.43889" lon="6.00498">
        <ele>319.8</ele>
        <time>2017-06-10T05:54:05Z</time>
      </trkpt>
      <trkpt lat="43.43894" lon="6.00485">
        <ele>320.3</ele>
        <time>2017-06-10T05:54:09Z</time>
      </trkpt>
      <trkpt lat="43.43897" lon="6.00471">
        <ele>320.6</ele>
        <time>2017-06-10T05:54:13Z</time>
      </trkpt>
      <trkpt lat="43.43901" lon="6.00456">
        <ele>320.9</ele>
        <time>2017-06-10T05:54:17Z</time>
      </trkpt>
      <trkpt lat="43.43906" lon="6.00443">
        <ele>321.1</ele>
        <time>2017-06-10T05:54:20Z</time>
      </trkpt>
      <trkpt lat="43.43913" lon="6.00428">
        <ele>321.3</ele>
        <time>2017-06-10T05:54:23Z</time>
      </trkpt>
      <trkpt lat="43.43918" lon="6.00416">
        <ele>321.5</ele>
        <time>2017-06-10T05:54:26Z</time>
      </trkpt>
      <trkpt lat="43.43924" lon="6.00404">
        <ele>321.8</ele>
        <time>2017-06-10T05:54:29Z</time>
      </trkpt>
      <trkpt lat="43.43929" lon="6.00393">
        <ele>322.1</ele>
        <time>2017-06-10T05:54:32Z</time>
      </trkpt>
      <trkpt lat="43.43935" lon="6.00381">
        <ele>322.4</ele>
        <time>2017-06-10T05:54:35Z</time>
      </trkpt>
      <trkpt lat="43.4394" lon="6.0037">
        <ele>322.6</ele>
        <time>2017-06-10T05:54:38Z</time>
      </trkpt>
      <trkpt lat="43.43944" lon="6.00356">
        <ele>323</ele>
        <time>2017-06-10T05:54:42Z</time>
      </trkpt>
      <trkpt lat="43.43949" lon="6.00344">
        <ele>323.5</ele>
        <time>2017-06-10T05:54:46Z</time>
      </trkpt>
      <trkpt lat="43.43953" lon="6.00333">
        <ele>323.8</ele>
        <time>2017-06-10T05:54:49Z</time>
      </trkpt>
      <trkpt lat="43.43958" lon="6.00322">
        <ele>324.2</ele>
        <time>2017-06-10T05:54:53Z</time>
      </trkpt>
      <trkpt lat="43.43963" lon="6.0031">
        <ele>324.5</ele>
        <time>2017-06-10T05:54:58Z</time>
      </trkpt>
      <trkpt lat="43.43969" lon="6.00299">
        <ele>324.6</ele>
        <time>2017-06-10T05:55:03Z</time>
      </trkpt>
      <trkpt lat="43.43974" lon="6.00286">
        <ele>324.7</ele>
        <time>2017-06-10T05:55:08Z</time>
      </trkpt>
      <trkpt lat="43.43977" lon="6.00274">
        <ele>324.7</ele>
        <time>2017-06-10T05:55:12Z</time>
      </trkpt>
      <trkpt lat="43.43982" lon="6.00262">
        <ele>324.5</ele>
        <time>2017-06-10T05:55:16Z</time>
      </trkpt>
      <trkpt lat="43.43987" lon="6.00249">
        <ele>324.4</ele>
        <time>2017-06-10T05:55:20Z</time>
      </trkpt>
      <trkpt lat="43.43992" lon="6.00233">
        <ele>324.3</ele>
        <time>2017-06-10T05:55:24Z</time>
      </trkpt>
      <trkpt lat="43.43998" lon="6.00216">
        <ele>324.2</ele>
        <time>2017-06-10T05:55:27Z</time>
      </trkpt>
      <trkpt lat="43.44003" lon="6.002">
        <ele>324</ele>
        <time>2017-06-10T05:55:29Z</time>
      </trkpt>
      <trkpt lat="43.44008" lon="6.0018">
        <ele>323.9</ele>
        <time>2017-06-10T05:55:31Z</time>
      </trkpt>
      <trkpt lat="43.44016" lon="6.00157">
        <ele>323.7</ele>
        <time>2017-06-10T05:55:33Z</time>
      </trkpt>
      <trkpt lat="43.44021" lon="6.00146">
        <ele>323.6</ele>
        <time>2017-06-10T05:55:34Z</time>
      </trkpt>
      <trkpt lat="43.44028" lon="6.0013">
        <ele>323.5</ele>
        <time>2017-06-10T05:55:36Z</time>
      </trkpt>
      <trkpt lat="43.44035" lon="6.00118">
        <ele>323.2</ele>
        <time>2017-06-10T05:55:38Z</time>
      </trkpt>
      <trkpt lat="43.44043" lon="6.00105">
        <ele>322.8</ele>
        <time>2017-06-10T05:55:41Z</time>
      </trkpt>
      <trkpt lat="43.44049" lon="6.00089">
        <ele>322.5</ele>
        <time>2017-06-10T05:55:44Z</time>
      </trkpt>
      <trkpt lat="43.44053" lon="6.00076">
        <ele>322.2</ele>
        <time>2017-06-10T05:55:46Z</time>
      </trkpt>
      <trkpt lat="43.44058" lon="6.00064">
        <ele>321.7</ele>
        <time>2017-06-10T05:55:48Z</time>
      </trkpt>
      <trkpt lat="43.44065" lon="6.00048">
        <ele>321.4</ele>
        <time>2017-06-10T05:55:51Z</time>
      </trkpt>
      <trkpt lat="43.44069" lon="6.00036">
        <ele>321</ele>
        <time>2017-06-10T05:55:53Z</time>
      </trkpt>
      <trkpt lat="43.44075" lon="6.0002">
        <ele>320.6</ele>
        <time>2017-06-10T05:55:56Z</time>
      </trkpt>
      <trkpt lat="43.4408" lon="6.00005">
        <ele>320.4</ele>
        <time>2017-06-10T05:55:59Z</time>
      </trkpt>
      <trkpt lat="43.44086" lon="5.99991">
        <ele>320.1</ele>
        <time>2017-06-10T05:56:02Z</time>
      </trkpt>
      <trkpt lat="43.44092" lon="5.99977">
        <ele>319.9</ele>
        <time>2017-06-10T05:56:05Z</time>
      </trkpt>
      <trkpt lat="43.44097" lon="5.99961">
        <ele>319.8</ele>
        <time>2017-06-10T05:56:08Z</time>
      </trkpt>
      <trkpt lat="43.44099" lon="5.99948">
        <ele>319.7</ele>
        <time>2017-06-10T05:56:10Z</time>
      </trkpt>
      <trkpt lat="43.44101" lon="5.99935">
        <ele>319.5</ele>
        <time>2017-06-10T05:56:12Z</time>
      </trkpt>
      <trkpt lat="43.44106" lon="5.99923">
        <ele>319.5</ele>
        <time>2017-06-10T05:56:14Z</time>
      </trkpt>
      <trkpt lat="43.44112" lon="5.99913">
        <ele>319.3</ele>
        <time>2017-06-10T05:56:16Z</time>
      </trkpt>
      <trkpt lat="43.44117" lon="5.99902">
        <ele>319</ele>
        <time>2017-06-10T05:56:18Z</time>
      </trkpt>
      <trkpt lat="43.44122" lon="5.99889">
        <ele>318.7</ele>
        <time>2017-06-10T05:56:20Z</time>
      </trkpt>
      <trkpt lat="43.44127" lon="5.99877">
        <ele>318.5</ele>
        <time>2017-06-10T05:56:22Z</time>
      </trkpt>
      <trkpt lat="43.44132" lon="5.99865">
        <ele>318.2</ele>
        <time>2017-06-10T05:56:24Z</time>
      </trkpt>
      <trkpt lat="43.44137" lon="5.99853">
        <ele>317.9</ele>
        <time>2017-06-10T05:56:26Z</time>
      </trkpt>
      <trkpt lat="43.44142" lon="5.9984">
        <ele>317.7</ele>
        <time>2017-06-10T05:56:28Z</time>
      </trkpt>
      <trkpt lat="43.44146" lon="5.99826">
        <ele>317.5</ele>
        <time>2017-06-10T05:56:30Z</time>
      </trkpt>
      <trkpt lat="43.44152" lon="5.99813">
        <ele>317.4</ele>
        <time>2017-06-10T05:56:32Z</time>
      </trkpt>
      <trkpt lat="43.44156" lon="5.99802">
        <ele>317.3</ele>
        <time>2017-06-10T05:56:34Z</time>
      </trkpt>
      <trkpt lat="43.44162" lon="5.99789">
        <ele>317.2</ele>
        <time>2017-06-10T05:56:37Z</time>
      </trkpt>
      <trkpt lat="43.44167" lon="5.99777">
        <ele>317.2</ele>
        <time>2017-06-10T05:56:40Z</time>
      </trkpt>
      <trkpt lat="43.44175" lon="5.99762">
        <ele>317.1</ele>
        <time>2017-06-10T05:56:43Z</time>
      </trkpt>
      <trkpt lat="43.44182" lon="5.99752">
        <ele>317</ele>
        <time>2017-06-10T05:56:45Z</time>
      </trkpt>
      <trkpt lat="43.4419" lon="5.99742">
        <ele>316.9</ele>
        <time>2017-06-10T05:56:47Z</time>
      </trkpt>
      <trkpt lat="43.44197" lon="5.99731">
        <ele>316.8</ele>
        <time>2017-06-10T05:56:49Z</time>
      </trkpt>
      <trkpt lat="43.44203" lon="5.99721">
        <ele>316.7</ele>
        <time>2017-06-10T05:56:51Z</time>
      </trkpt>
      <trkpt lat="43.44212" lon="5.99708">
        <ele>316.5</ele>
        <time>2017-06-10T05:56:54Z</time>
      </trkpt>
      <trkpt lat="43.44218" lon="5.99694">
        <ele>316.4</ele>
        <time>2017-06-10T05:56:57Z</time>
      </trkpt>
      <trkpt lat="43.44223" lon="5.99681">
        <ele>316.4</ele>
        <time>2017-06-10T05:56:59Z</time>
      </trkpt>
      <trkpt lat="43.44227" lon="5.99668">
        <ele>316.5</ele>
        <time>2017-06-10T05:57:01Z</time>
      </trkpt>
      <trkpt lat="43.44229" lon="5.99655">
        <ele>316.5</ele>
        <time>2017-06-10T05:57:03Z</time>
      </trkpt>
      <trkpt lat="43.44238" lon="5.99644">
        <ele>316.7</ele>
        <time>2017-06-10T05:57:05Z</time>
      </trkpt>
      <trkpt lat="43.44247" lon="5.99636">
        <ele>317.1</ele>
        <time>2017-06-10T05:57:07Z</time>
      </trkpt>
      <trkpt lat="43.44252" lon="5.99626">
        <ele>317.5</ele>
        <time>2017-06-10T05:57:09Z</time>
      </trkpt>
      <trkpt lat="43.44259" lon="5.99615">
        <ele>318</ele>
        <time>2017-06-10T05:57:11Z</time>
      </trkpt>
      <trkpt lat="43.44266" lon="5.99607">
        <ele>318.5</ele>
        <time>2017-06-10T05:57:13Z</time>
      </trkpt>
      <trkpt lat="43.44267" lon="5.9959">
        <ele>318.8</ele>
        <time>2017-06-10T05:57:16Z</time>
      </trkpt>
      <trkpt lat="43.44274" lon="5.99578">
        <ele>319.2</ele>
        <time>2017-06-10T05:57:20Z</time>
      </trkpt>
      <trkpt lat="43.44282" lon="5.99568">
        <ele>319.5</ele>
        <time>2017-06-10T05:57:24Z</time>
      </trkpt>
      <trkpt lat="43.44292" lon="5.99563">
        <ele>319.6</ele>
        <time>2017-06-10T05:57:29Z</time>
      </trkpt>
      <trkpt lat="43.44302" lon="5.99564">
        <ele>319.6</ele>
        <time>2017-06-10T05:57:33Z</time>
      </trkpt>
      <trkpt lat="43.4431" lon="5.99568">
        <ele>319.6</ele>
        <time>2017-06-10T05:57:36Z</time>
      </trkpt>
      <trkpt lat="43.44319" lon="5.99572">
        <ele>319.5</ele>
        <time>2017-06-10T05:57:39Z</time>
      </trkpt>
      <trkpt lat="43.4433" lon="5.99579">
        <ele>319.4</ele>
        <time>2017-06-10T05:57:43Z</time>
      </trkpt>
      <trkpt lat="43.44339" lon="5.99583">
        <ele>319.1</ele>
        <time>2017-06-10T05:57:46Z</time>
      </trkpt>
      <trkpt lat="43.44348" lon="5.99586">
        <ele>318.9</ele>
        <time>2017-06-10T05:57:48Z</time>
      </trkpt>
      <trkpt lat="43.44359" lon="5.99587">
        <ele>318.7</ele>
        <time>2017-06-10T05:57:50Z</time>
      </trkpt>
      <trkpt lat="43.4437" lon="5.99586">
        <ele>318.7</ele>
        <time>2017-06-10T05:57:52Z</time>
      </trkpt>
      <trkpt lat="43.4438" lon="5.99585">
        <ele>318.6</ele>
        <time>2017-06-10T05:57:54Z</time>
      </trkpt>
      <trkpt lat="43.44391" lon="5.99585">
        <ele>318.5</ele>
        <time>2017-06-10T05:57:56Z</time>
      </trkpt>
      <trkpt lat="43.444" lon="5.99585">
        <ele>318.4</ele>
        <time>2017-06-10T05:57:58Z</time>
      </trkpt>
      <trkpt lat="43.4441" lon="5.99586">
        <ele>318.1</ele>
        <time>2017-06-10T05:58:00Z</time>
      </trkpt>
      <trkpt lat="43.4442" lon="5.99586">
        <ele>317.7</ele>
        <time>2017-06-10T05:58:02Z</time>
      </trkpt>
      <trkpt lat="43.4443" lon="5.99588">
        <ele>317.3</ele>
        <time>2017-06-10T05:58:04Z</time>
      </trkpt>
      <trkpt lat="43.4444" lon="5.99592">
        <ele>316.8</ele>
        <time>2017-06-10T05:58:06Z</time>
      </trkpt>
      <trkpt lat="43.4445" lon="5.99597">
        <ele>316.4</ele>
        <time>2017-06-10T05:58:08Z</time>
      </trkpt>
      <trkpt lat="43.44461" lon="5.99602">
        <ele>315.8</ele>
        <time>2017-06-10T05:58:10Z</time>
      </trkpt>
      <trkpt lat="43.44473" lon="5.99608">
        <ele>315.2</ele>
        <time>2017-06-10T05:58:12Z</time>
      </trkpt>
      <trkpt lat="43.44486" lon="5.99616">
        <ele>314.5</ele>
        <time>2017-06-10T05:58:14Z</time>
      </trkpt>
      <trkpt lat="43.44498" lon="5.99628">
        <ele>313.9</ele>
        <time>2017-06-10T05:58:16Z</time>
      </trkpt>
      <trkpt lat="43.44505" lon="5.99641">
        <ele>313.5</ele>
        <time>2017-06-10T05:58:18Z</time>
      </trkpt>
      <trkpt lat="43.44513" lon="5.99652">
        <ele>313.1</ele>
        <time>2017-06-10T05:58:20Z</time>
      </trkpt>
      <trkpt lat="43.44522" lon="5.99658">
        <ele>312.9</ele>
        <time>2017-06-10T05:58:22Z</time>
      </trkpt>
      <trkpt lat="43.44531" lon="5.99661">
        <ele>312.7</ele>
        <time>2017-06-10T05:58:24Z</time>
      </trkpt>
      <trkpt lat="43.4454" lon="5.99657">
        <ele>312.6</ele>
        <time>2017-06-10T05:58:26Z</time>
      </trkpt>
      <trkpt lat="43.4455" lon="5.99654">
        <ele>312.6</ele>
        <time>2017-06-10T05:58:28Z</time>
      </trkpt>
      <trkpt lat="43.44559" lon="5.99651">
        <ele>312.6</ele>
        <time>2017-06-10T05:58:30Z</time>
      </trkpt>
      <trkpt lat="43.44571" lon="5.99645">
        <ele>312.6</ele>
        <time>2017-06-10T05:58:33Z</time>
      </trkpt>
      <trkpt lat="43.44582" lon="5.99642">
        <ele>312.8</ele>
        <time>2017-06-10T05:58:36Z</time>
      </trkpt>
      <trkpt lat="43.44593" lon="5.9964">
        <ele>313</ele>
        <time>2017-06-10T05:58:39Z</time>
      </trkpt>
      <trkpt lat="43.44604" lon="5.99639">
        <ele>313.1</ele>
        <time>2017-06-10T05:58:42Z</time>
      </trkpt>
      <trkpt lat="43.44614" lon="5.99642">
        <ele>313.1</ele>
        <time>2017-06-10T05:58:45Z</time>
      </trkpt>
      <trkpt lat="43.44622" lon="5.99648">
        <ele>313</ele>
        <time>2017-06-10T05:58:48Z</time>
      </trkpt>
      <trkpt lat="43.44629" lon="5.99657">
        <ele>313</ele>
        <time>2017-06-10T05:58:51Z</time>
      </trkpt>
      <trkpt lat="43.44635" lon="5.99667">
        <ele>313.1</ele>
        <time>2017-06-10T05:58:54Z</time>
      </trkpt>
      <trkpt lat="43.44645" lon="5.99672">
        <ele>313.2</ele>
        <time>2017-06-10T05:58:57Z</time>
      </trkpt>
      <trkpt lat="43.44656" lon="5.99675">
        <ele>313.3</ele>
        <time>2017-06-10T05:59:00Z</time>
      </trkpt>
      <trkpt lat="43.44666" lon="5.9968">
        <ele>313.4</ele>
        <time>2017-06-10T05:59:03Z</time>
      </trkpt>
      <trkpt lat="43.44676" lon="5.99684">
        <ele>313.5</ele>
        <time>2017-06-10T05:59:05Z</time>
      </trkpt>
      <trkpt lat="43.44689" lon="5.99695">
        <ele>313.5</ele>
        <time>2017-06-10T05:59:08Z</time>
      </trkpt>
      <trkpt lat="43.447" lon="5.99697">
        <ele>313.5</ele>
        <time>2017-06-10T05:59:10Z</time>
      </trkpt>
      <trkpt lat="43.44714" lon="5.99694">
        <ele>313.4</ele>
        <time>2017-06-10T05:59:12Z</time>
      </trkpt>
      <trkpt lat="43.44725" lon="5.99699">
        <ele>313.4</ele>
        <time>2017-06-10T05:59:16Z</time>
      </trkpt>
      <trkpt lat="43.44734" lon="5.99704">
        <ele>313.5</ele>
        <time>2017-06-10T05:59:19Z</time>
      </trkpt>
      <trkpt lat="43.44745" lon="5.99708">
        <ele>313.5</ele>
        <time>2017-06-10T05:59:22Z</time>
      </trkpt>
      <trkpt lat="43.44756" lon="5.99714">
        <ele>313.5</ele>
        <time>2017-06-10T05:59:25Z</time>
      </trkpt>
      <trkpt lat="43.44768" lon="5.9972">
        <ele>313.5</ele>
        <time>2017-06-10T05:59:28Z</time>
      </trkpt>
      <trkpt lat="43.44777" lon="5.99727">
        <ele>313.5</ele>
        <time>2017-06-10T05:59:30Z</time>
      </trkpt>
      <trkpt lat="43.44788" lon="5.99736">
        <ele>313.5</ele>
        <time>2017-06-10T05:59:33Z</time>
      </trkpt>
      <trkpt lat="43.44797" lon="5.99741">
        <ele>313.5</ele>
        <time>2017-06-10T05:59:35Z</time>
      </trkpt>
      <trkpt lat="43.44808" lon="5.99751">
        <ele>313.5</ele>
        <time>2017-06-10T05:59:38Z</time>
      </trkpt>
      <trkpt lat="43.44816" lon="5.99758">
        <ele>313.5</ele>
        <time>2017-06-10T05:59:40Z</time>
      </trkpt>
      <trkpt lat="43.44825" lon="5.99762">
        <ele>313.6</ele>
        <time>2017-06-10T05:59:42Z</time>
      </trkpt>
      <trkpt lat="43.44835" lon="5.99769">
        <ele>313.8</ele>
        <time>2017-06-10T05:59:45Z</time>
      </trkpt>
      <trkpt lat="43.44845" lon="5.99777">
        <ele>314</ele>
        <time>2017-06-10T05:59:48Z</time>
      </trkpt>
      <trkpt lat="43.44856" lon="5.99784">
        <ele>314.4</ele>
        <time>2017-06-10T05:59:51Z</time>
      </trkpt>
      <trkpt lat="43.44866" lon="5.99792">
        <ele>314.8</ele>
        <time>2017-06-10T05:59:54Z</time>
      </trkpt>
      <trkpt lat="43.44876" lon="5.99801">
        <ele>315.4</ele>
        <time>2017-06-10T05:59:57Z</time>
      </trkpt>
      <trkpt lat="43.44886" lon="5.99808">
        <ele>315.8</ele>
        <time>2017-06-10T06:00:00Z</time>
      </trkpt>
      <trkpt lat="43.44895" lon="5.99815">
        <ele>316.4</ele>
        <time>2017-06-10T06:00:03Z</time>
      </trkpt>
      <trkpt lat="43.44906" lon="5.99819">
        <ele>316.9</ele>
        <time>2017-06-10T06:00:06Z</time>
      </trkpt>
      <trkpt lat="43.44917" lon="5.99822">
        <ele>317.5</ele>
        <time>2017-06-10T06:00:09Z</time>
      </trkpt>
      <trkpt lat="43.44925" lon="5.99832">
        <ele>318.2</ele>
        <time>2017-06-10T06:00:11Z</time>
      </trkpt>
      <trkpt lat="43.44936" lon="5.99834">
        <ele>318.8</ele>
        <time>2017-06-10T06:00:14Z</time>
      </trkpt>
      <trkpt lat="43.44947" lon="5.99837">
        <ele>319.5</ele>
        <time>2017-06-10T06:00:17Z</time>
      </trkpt>
      <trkpt lat="43.44956" lon="5.99841">
        <ele>320.2</ele>
        <time>2017-06-10T06:00:20Z</time>
      </trkpt>
      <trkpt lat="43.44967" lon="5.99848">
        <ele>320.7</ele>
        <time>2017-06-10T06:00:23Z</time>
      </trkpt>
      <trkpt lat="43.44976" lon="5.99857">
        <ele>321.3</ele>
        <time>2017-06-10T06:00:26Z</time>
      </trkpt>
      <trkpt lat="43.44986" lon="5.99864">
        <ele>321.8</ele>
        <time>2017-06-10T06:00:29Z</time>
      </trkpt>
      <trkpt lat="43.44996" lon="5.99871">
        <ele>322.5</ele>
        <time>2017-06-10T06:00:32Z</time>
      </trkpt>
      <trkpt lat="43.45006" lon="5.99878">
        <ele>323</ele>
        <time>2017-06-10T06:00:35Z</time>
      </trkpt>
      <trkpt lat="43.45016" lon="5.99886">
        <ele>323.5</ele>
        <time>2017-06-10T06:00:38Z</time>
      </trkpt>
      <trkpt lat="43.45027" lon="5.99891">
        <ele>324.1</ele>
        <time>2017-06-10T06:00:41Z</time>
      </trkpt>
      <trkpt lat="43.45038" lon="5.99895">
        <ele>324.6</ele>
        <time>2017-06-10T06:00:44Z</time>
      </trkpt>
      <trkpt lat="43.45049" lon="5.99901">
        <ele>325.1</ele>
        <time>2017-06-10T06:00:47Z</time>
      </trkpt>
      <trkpt lat="43.45061" lon="5.99906">
        <ele>325.5</ele>
        <time>2017-06-10T06:00:50Z</time>
      </trkpt>
      <trkpt lat="43.45072" lon="5.99912">
        <ele>325.7</ele>
        <time>2017-06-10T06:00:53Z</time>
      </trkpt>
      <trkpt lat="43.45081" lon="5.99918">
        <ele>326</ele>
        <time>2017-06-10T06:00:56Z</time>
      </trkpt>
      <trkpt lat="43.45091" lon="5.99926">
        <ele>326.2</ele>
        <time>2017-06-10T06:00:59Z</time>
      </trkpt>
      <trkpt lat="43.45101" lon="5.99932">
        <ele>326.3</ele>
        <time>2017-06-10T06:01:02Z</time>
      </trkpt>
      <trkpt lat="43.45112" lon="5.99939">
        <ele>326.3</ele>
        <time>2017-06-10T06:01:05Z</time>
      </trkpt>
      <trkpt lat="43.45123" lon="5.99946">
        <ele>326.2</ele>
        <time>2017-06-10T06:01:08Z</time>
      </trkpt>
      <trkpt lat="43.45133" lon="5.99952">
        <ele>326</ele>
        <time>2017-06-10T06:01:11Z</time>
      </trkpt>
      <trkpt lat="43.45144" lon="5.99959">
        <ele>325.6</ele>
        <time>2017-06-10T06:01:14Z</time>
      </trkpt>
      <trkpt lat="43.45155" lon="5.99966">
        <ele>325.2</ele>
        <time>2017-06-10T06:01:17Z</time>
      </trkpt>
      <trkpt lat="43.45167" lon="5.99973">
        <ele>324.7</ele>
        <time>2017-06-10T06:01:20Z</time>
      </trkpt>
      <trkpt lat="43.45178" lon="5.99979">
        <ele>324.5</ele>
        <time>2017-06-10T06:01:23Z</time>
      </trkpt>
      <trkpt lat="43.4519" lon="5.99984">
        <ele>324.2</ele>
        <time>2017-06-10T06:01:26Z</time>
      </trkpt>
      <trkpt lat="43.45201" lon="5.99989">
        <ele>323.9</ele>
        <time>2017-06-10T06:01:29Z</time>
      </trkpt>
      <trkpt lat="43.45212" lon="5.99994">
        <ele>323.7</ele>
        <time>2017-06-10T06:01:32Z</time>
      </trkpt>
      <trkpt lat="43.45224" lon="5.99995">
        <ele>323.5</ele>
        <time>2017-06-10T06:01:35Z</time>
      </trkpt>
      <trkpt lat="43.45236" lon="5.99992">
        <ele>323.5</ele>
        <time>2017-06-10T06:01:38Z</time>
      </trkpt>
      <trkpt lat="43.45247" lon="5.99988">
        <ele>323.5</ele>
        <time>2017-06-10T06:01:41Z</time>
      </trkpt>
      <trkpt lat="43.45256" lon="5.99989">
        <ele>323.6</ele>
        <time>2017-06-10T06:01:45Z</time>
      </trkpt>
      <trkpt lat="43.45264" lon="5.99997">
        <ele>323.9</ele>
        <time>2017-06-10T06:01:48Z</time>
      </trkpt>
      <trkpt lat="43.45273" lon="6.00005">
        <ele>324.3</ele>
        <time>2017-06-10T06:01:52Z</time>
      </trkpt>
      <trkpt lat="43.45282" lon="6.00008">
        <ele>324.6</ele>
        <time>2017-06-10T06:01:56Z</time>
      </trkpt>
      <trkpt lat="43.45291" lon="6.0001">
        <ele>324.9</ele>
        <time>2017-06-10T06:02:00Z</time>
      </trkpt>
      <trkpt lat="43.45301" lon="6.00015">
        <ele>325.2</ele>
        <time>2017-06-10T06:02:04Z</time>
      </trkpt>
      <trkpt lat="43.45312" lon="6.00021">
        <ele>325.4</ele>
        <time>2017-06-10T06:02:08Z</time>
      </trkpt>
      <trkpt lat="43.45323" lon="6.00027">
        <ele>325.5</ele>
        <time>2017-06-10T06:02:12Z</time>
      </trkpt>
      <trkpt lat="43.45333" lon="6.0003">
        <ele>325.6</ele>
        <time>2017-06-10T06:02:15Z</time>
      </trkpt>
      <trkpt lat="43.45342" lon="6.00036">
        <ele>325.7</ele>
        <time>2017-06-10T06:02:18Z</time>
      </trkpt>
      <trkpt lat="43.45347" lon="6.00047">
        <ele>325.8</ele>
        <time>2017-06-10T06:02:22Z</time>
      </trkpt>
      <trkpt lat="43.45349" lon="6.00061">
        <ele>325.9</ele>
        <time>2017-06-10T06:02:26Z</time>
      </trkpt>
      <trkpt lat="43.45358" lon="6.0007">
        <ele>326</ele>
        <time>2017-06-10T06:02:30Z</time>
      </trkpt>
      <trkpt lat="43.45367" lon="6.00069">
        <ele>326.2</ele>
        <time>2017-06-10T06:02:33Z</time>
      </trkpt>
      <trkpt lat="43.45377" lon="6.00067">
        <ele>326.5</ele>
        <time>2017-06-10T06:02:37Z</time>
      </trkpt>
      <trkpt lat="43.45386" lon="6.00065">
        <ele>326.8</ele>
        <time>2017-06-10T06:02:40Z</time>
      </trkpt>
      <trkpt lat="43.45398" lon="6.00067">
        <ele>327.3</ele>
        <time>2017-06-10T06:02:44Z</time>
      </trkpt>
      <trkpt lat="43.45406" lon="6.00074">
        <ele>327.9</ele>
        <time>2017-06-10T06:02:47Z</time>
      </trkpt>
      <trkpt lat="43.45415" lon="6.00078">
        <ele>328.6</ele>
        <time>2017-06-10T06:02:51Z</time>
      </trkpt>
      <trkpt lat="43.45425" lon="6.00082">
        <ele>329.3</ele>
        <time>2017-06-10T06:02:56Z</time>
      </trkpt>
      <trkpt lat="43.45435" lon="6.00081">
        <ele>329.9</ele>
        <time>2017-06-10T06:03:00Z</time>
      </trkpt>
      <trkpt lat="43.45446" lon="6.00077">
        <ele>330.5</ele>
        <time>2017-06-10T06:03:04Z</time>
      </trkpt>
      <trkpt lat="43.45457" lon="6.00077">
        <ele>331.1</ele>
        <time>2017-06-10T06:03:08Z</time>
      </trkpt>
      <trkpt lat="43.45468" lon="6.00078">
        <ele>331.5</ele>
        <time>2017-06-10T06:03:12Z</time>
      </trkpt>
      <trkpt lat="43.45478" lon="6.00081">
        <ele>331.9</ele>
        <time>2017-06-10T06:03:16Z</time>
      </trkpt>
      <trkpt lat="43.45488" lon="6.00086">
        <ele>332.2</ele>
        <time>2017-06-10T06:03:21Z</time>
      </trkpt>
      <trkpt lat="43.45496" lon="6.00091">
        <ele>332.5</ele>
        <time>2017-06-10T06:03:25Z</time>
      </trkpt>
      <trkpt lat="43.45506" lon="6.00095">
        <ele>332.7</ele>
        <time>2017-06-10T06:03:30Z</time>
      </trkpt>
      <trkpt lat="43.45514" lon="6.00105">
        <ele>333</ele>
        <time>2017-06-10T06:03:43Z</time>
      </trkpt>
      <trkpt lat="43.45517" lon="6.00118">
        <ele>333.3</ele>
        <time>2017-06-10T06:03:47Z</time>
      </trkpt>
      <trkpt lat="43.45524" lon="6.00128">
        <ele>333.7</ele>
        <time>2017-06-10T06:03:51Z</time>
      </trkpt>
      <trkpt lat="43.45533" lon="6.00131">
        <ele>334.3</ele>
        <time>2017-06-10T06:03:55Z</time>
      </trkpt>
      <trkpt lat="43.45543" lon="6.0013">
        <ele>334.9</ele>
        <time>2017-06-10T06:04:00Z</time>
      </trkpt>
      <trkpt lat="43.45553" lon="6.00129">
        <ele>335.6</ele>
        <time>2017-06-10T06:04:05Z</time>
      </trkpt>
      <trkpt lat="43.45563" lon="6.00123">
        <ele>336.5</ele>
        <time>2017-06-10T06:04:11Z</time>
      </trkpt>
      <trkpt lat="43.45572" lon="6.0012">
        <ele>337.5</ele>
        <time>2017-06-10T06:04:15Z</time>
      </trkpt>
      <trkpt lat="43.45581" lon="6.0012">
        <ele>338.5</ele>
        <time>2017-06-10T06:04:19Z</time>
      </trkpt>
      <trkpt lat="43.45591" lon="6.00118">
        <ele>339.4</ele>
        <time>2017-06-10T06:04:24Z</time>
      </trkpt>
      <trkpt lat="43.456" lon="6.00116">
        <ele>340.4</ele>
        <time>2017-06-10T06:04:29Z</time>
      </trkpt>
      <trkpt lat="43.4561" lon="6.00115">
        <ele>341.4</ele>
        <time>2017-06-10T06:04:36Z</time>
      </trkpt>
      <trkpt lat="43.4562" lon="6.00116">
        <ele>342.4</ele>
        <time>2017-06-10T06:04:43Z</time>
      </trkpt>
      <trkpt lat="43.4563" lon="6.00113">
        <ele>343.2</ele>
        <time>2017-06-10T06:04:49Z</time>
      </trkpt>
      <trkpt lat="43.45641" lon="6.00113">
        <ele>344</ele>
        <time>2017-06-10T06:04:56Z</time>
      </trkpt>
      <trkpt lat="43.4565" lon="6.0011">
        <ele>344.8</ele>
        <time>2017-06-10T06:05:02Z</time>
      </trkpt>
      <trkpt lat="43.45658" lon="6.00104">
        <ele>345.6</ele>
        <time>2017-06-10T06:05:08Z</time>
      </trkpt>
      <trkpt lat="43.45667" lon="6.00101">
        <ele>346.5</ele>
        <time>2017-06-10T06:05:14Z</time>
      </trkpt>
      <trkpt lat="43.45677" lon="6.00099">
        <ele>347.6</ele>
        <time>2017-06-10T06:05:20Z</time>
      </trkpt>
      <trkpt lat="43.45686" lon="6.00097">
        <ele>348.7</ele>
        <time>2017-06-10T06:05:26Z</time>
      </trkpt>
      <trkpt lat="43.45697" lon="6.00094">
        <ele>350</ele>
        <time>2017-06-10T06:05:32Z</time>
      </trkpt>
      <trkpt lat="43.45706" lon="6.00095">
        <ele>351.2</ele>
        <time>2017-06-10T06:05:37Z</time>
      </trkpt>
      <trkpt lat="43.45714" lon="6.00089">
        <ele>352.4</ele>
        <time>2017-06-10T06:05:44Z</time>
      </trkpt>
      <trkpt lat="43.45723" lon="6.00087">
        <ele>353.5</ele>
        <time>2017-06-10T06:05:50Z</time>
      </trkpt>
      <trkpt lat="43.45734" lon="6.00086">
        <ele>354.6</ele>
        <time>2017-06-10T06:05:57Z</time>
      </trkpt>
      <trkpt lat="43.45742" lon="6.00082">
        <ele>355.8</ele>
        <time>2017-06-10T06:06:04Z</time>
      </trkpt>
      <trkpt lat="43.45753" lon="6.00082">
        <ele>357</ele>
        <time>2017-06-10T06:06:11Z</time>
      </trkpt>
      <trkpt lat="43.45763" lon="6.0008">
        <ele>358.3</ele>
        <time>2017-06-10T06:06:18Z</time>
      </trkpt>
      <trkpt lat="43.45773" lon="6.00078">
        <ele>359.5</ele>
        <time>2017-06-10T06:06:25Z</time>
      </trkpt>
      <trkpt lat="43.45782" lon="6.00081">
        <ele>360.6</ele>
        <time>2017-06-10T06:06:32Z</time>
      </trkpt>
      <trkpt lat="43.45792" lon="6.00077">
        <ele>361.8</ele>
        <time>2017-06-10T06:06:39Z</time>
      </trkpt>
      <trkpt lat="43.45801" lon="6.00079">
        <ele>362.9</ele>
        <time>2017-06-10T06:06:46Z</time>
      </trkpt>
      <trkpt lat="43.4581" lon="6.00075">
        <ele>363.9</ele>
        <time>2017-06-10T06:06:52Z</time>
      </trkpt>
      <trkpt lat="43.45819" lon="6.00071">
        <ele>364.9</ele>
        <time>2017-06-10T06:06:59Z</time>
      </trkpt>
      <trkpt lat="43.45829" lon="6.00068">
        <ele>366.1</ele>
        <time>2017-06-10T06:07:06Z</time>
      </trkpt>
      <trkpt lat="43.45839" lon="6.00069">
        <ele>367.3</ele>
        <time>2017-06-10T06:07:13Z</time>
      </trkpt>
      <trkpt lat="43.45849" lon="6.00067">
        <ele>368.5</ele>
        <time>2017-06-10T06:07:20Z</time>
      </trkpt>
      <trkpt lat="43.45858" lon="6.00064">
        <ele>369.7</ele>
        <time>2017-06-10T06:07:27Z</time>
      </trkpt>
      <trkpt lat="43.45868" lon="6.00064">
        <ele>371</ele>
        <time>2017-06-10T06:07:34Z</time>
      </trkpt>
      <trkpt lat="43.45878" lon="6.00064">
        <ele>372.3</ele>
        <time>2017-06-10T06:07:41Z</time>
      </trkpt>
      <trkpt lat="43.45887" lon="6.00061">
        <ele>373.4</ele>
        <time>2017-06-10T06:07:48Z</time>
      </trkpt>
      <trkpt lat="43.45897" lon="6.00059">
        <ele>374.5</ele>
        <time>2017-06-10T06:07:55Z</time>
      </trkpt>
      <trkpt lat="43.45907" lon="6.00058">
        <ele>375.5</ele>
        <time>2017-06-10T06:08:02Z</time>
      </trkpt>
      <trkpt lat="43.45917" lon="6.00054">
        <ele>376.5</ele>
        <time>2017-06-10T06:08:09Z</time>
      </trkpt>
      <trkpt lat="43.45926" lon="6.00052">
        <ele>377.4</ele>
        <time>2017-06-10T06:08:16Z</time>
      </trkpt>
      <trkpt lat="43.45936" lon="6.0005">
        <ele>378.1</ele>
        <time>2017-06-10T06:08:23Z</time>
      </trkpt>
      <trkpt lat="43.45944" lon="6.00057">
        <ele>378.8</ele>
        <time>2017-06-10T06:10:27Z</time>
      </trkpt>
      <trkpt lat="43.45955" lon="6.00062">
        <ele>379.5</ele>
        <time>2017-06-10T06:10:32Z</time>
      </trkpt>
      <trkpt lat="43.45964" lon="6.00068">
        <ele>380</ele>
        <time>2017-06-10T06:10:37Z</time>
      </trkpt>
      <trkpt lat="43.45969" lon="6.00084">
        <ele>380.4</ele>
        <time>2017-06-10T06:10:42Z</time>
      </trkpt>
      <trkpt lat="43.45975" lon="6.00098">
        <ele>380.7</ele>
        <time>2017-06-10T06:10:45Z</time>
      </trkpt>
      <trkpt lat="43.45984" lon="6.00108">
        <ele>381.2</ele>
        <time>2017-06-10T06:10:50Z</time>
      </trkpt>
      <trkpt lat="43.45991" lon="6.00115">
        <ele>381.6</ele>
        <time>2017-06-10T06:10:56Z</time>
      </trkpt>
      <trkpt lat="43.45994" lon="6.00127">
        <ele>382.2</ele>
        <time>2017-06-10T06:11:01Z</time>
      </trkpt>
      <trkpt lat="43.45998" lon="6.00139">
        <ele>382.8</ele>
        <time>2017-06-10T06:11:06Z</time>
      </trkpt>
      <trkpt lat="43.46005" lon="6.00147">
        <ele>383.4</ele>
        <time>2017-06-10T06:11:12Z</time>
      </trkpt>
      <trkpt lat="43.46014" lon="6.00143">
        <ele>383.7</ele>
        <time>2017-06-10T06:11:18Z</time>
      </trkpt>
      <trkpt lat="43.46023" lon="6.00137">
        <ele>384</ele>
        <time>2017-06-10T06:11:25Z</time>
      </trkpt>
      <trkpt lat="43.4603" lon="6.00129">
        <ele>384.2</ele>
        <time>2017-06-10T06:11:33Z</time>
      </trkpt>
      <trkpt lat="43.4604" lon="6.00128">
        <ele>384.2</ele>
        <time>2017-06-10T06:11:40Z</time>
      </trkpt>
      <trkpt lat="43.46036" lon="6.0014">
        <ele>384.2</ele>
        <time>2017-06-10T06:11:47Z</time>
      </trkpt>
      <trkpt lat="43.46025" lon="6.0015">
        <ele>384</ele>
        <time>2017-06-10T06:11:51Z</time>
      </trkpt>
      <trkpt lat="43.46017" lon="6.00158">
        <ele>383.7</ele>
        <time>2017-06-10T06:11:55Z</time>
      </trkpt>
      <trkpt lat="43.46007" lon="6.00155">
        <ele>383.3</ele>
        <time>2017-06-10T06:11:58Z</time>
      </trkpt>
      <trkpt lat="43.45998" lon="6.00146">
        <ele>382.7</ele>
        <time>2017-06-10T06:12:01Z</time>
      </trkpt>
      <trkpt lat="43.45992" lon="6.00134">
        <ele>382.1</ele>
        <time>2017-06-10T06:12:04Z</time>
      </trkpt>
      <trkpt lat="43.45986" lon="6.0012">
        <ele>381.6</ele>
        <time>2017-06-10T06:12:07Z</time>
      </trkpt>
      <trkpt lat="43.4598" lon="6.00109">
        <ele>381.4</ele>
        <time>2017-06-10T06:12:09Z</time>
      </trkpt>
      <trkpt lat="43.45973" lon="6.00095">
        <ele>381.1</ele>
        <time>2017-06-10T06:12:11Z</time>
      </trkpt>
      <trkpt lat="43.45968" lon="6.00083">
        <ele>380.9</ele>
        <time>2017-06-10T06:12:13Z</time>
      </trkpt>
      <trkpt lat="43.45964" lon="6.0007">
        <ele>380.8</ele>
        <time>2017-06-10T06:12:20Z</time>
      </trkpt>
      <trkpt lat="43.45967" lon="6.00059">
        <ele>380.8</ele>
        <time>2017-06-10T06:12:27Z</time>
      </trkpt>
      <trkpt lat="43.45977" lon="6.00058">
        <ele>381</ele>
        <time>2017-06-10T06:12:33Z</time>
      </trkpt>
      <trkpt lat="43.45987" lon="6.00056">
        <ele>381.3</ele>
        <time>2017-06-10T06:12:38Z</time>
      </trkpt>
      <trkpt lat="43.45995" lon="6.00052">
        <ele>381.7</ele>
        <time>2017-06-10T06:12:44Z</time>
      </trkpt>
      <trkpt lat="43.46005" lon="6.00052">
        <ele>382.3</ele>
        <time>2017-06-10T06:12:50Z</time>
      </trkpt>
      <trkpt lat="43.46014" lon="6.00056">
        <ele>382.9</ele>
        <time>2017-06-10T06:12:57Z</time>
      </trkpt>
      <trkpt lat="43.46024" lon="6.00059">
        <ele>383.5</ele>
        <time>2017-06-10T06:15:04Z</time>
      </trkpt>
      <trkpt lat="43.46033" lon="6.0006">
        <ele>384.3</ele>
        <time>2017-06-10T06:15:10Z</time>
      </trkpt>
      <trkpt lat="43.46042" lon="6.00064">
        <ele>385</ele>
        <time>2017-06-10T06:15:16Z</time>
      </trkpt>
      <trkpt lat="43.4605" lon="6.00067">
        <ele>385.8</ele>
        <time>2017-06-10T06:15:22Z</time>
      </trkpt>
      <trkpt lat="43.4606" lon="6.00067">
        <ele>386.6</ele>
        <time>2017-06-10T06:15:29Z</time>
      </trkpt>
      <trkpt lat="43.4607" lon="6.00073">
        <ele>387.4</ele>
        <time>2017-06-10T06:15:36Z</time>
      </trkpt>
      <trkpt lat="43.46078" lon="6.0008">
        <ele>388.2</ele>
        <time>2017-06-10T06:15:42Z</time>
      </trkpt>
      <trkpt lat="43.46086" lon="6.00087">
        <ele>389</ele>
        <time>2017-06-10T06:15:49Z</time>
      </trkpt>
      <trkpt lat="43.46094" lon="6.00093">
        <ele>389.8</ele>
        <time>2017-06-10T06:18:37Z</time>
      </trkpt>
      <trkpt lat="43.46102" lon="6.00086">
        <ele>390.7</ele>
        <time>2017-06-10T06:18:43Z</time>
      </trkpt>
      <trkpt lat="43.46112" lon="6.00087">
        <ele>391.6</ele>
        <time>2017-06-10T06:18:49Z</time>
      </trkpt>
      <trkpt lat="43.46122" lon="6.00085">
        <ele>392.5</ele>
        <time>2017-06-10T06:18:55Z</time>
      </trkpt>
      <trkpt lat="43.46131" lon="6.00082">
        <ele>393.5</ele>
        <time>2017-06-10T06:19:01Z</time>
      </trkpt>
      <trkpt lat="43.4614" lon="6.00084">
        <ele>394.6</ele>
        <time>2017-06-10T06:19:07Z</time>
      </trkpt>
      <trkpt lat="43.4615" lon="6.00085">
        <ele>395.8</ele>
        <time>2017-06-10T06:19:14Z</time>
      </trkpt>
      <trkpt lat="43.4616" lon="6.00082">
        <ele>397.2</ele>
        <time>2017-06-10T06:19:20Z</time>
      </trkpt>
      <trkpt lat="43.4617" lon="6.00081">
        <ele>398.7</ele>
        <time>2017-06-10T06:19:26Z</time>
      </trkpt>
      <trkpt lat="43.46179" lon="6.0008">
        <ele>400.3</ele>
        <time>2017-06-10T06:19:33Z</time>
      </trkpt>
      <trkpt lat="43.46189" lon="6.00082">
        <ele>401.9</ele>
        <time>2017-06-10T06:19:59Z</time>
      </trkpt>
      <trkpt lat="43.46196" lon="6.00093">
        <ele>403.5</ele>
        <time>2017-06-10T06:20:05Z</time>
      </trkpt>
      <trkpt lat="43.46203" lon="6.00099">
        <ele>405.1</ele>
        <time>2017-06-10T06:20:11Z</time>
      </trkpt>
      <trkpt lat="43.46212" lon="6.00103">
        <ele>406.6</ele>
        <time>2017-06-10T06:20:17Z</time>
      </trkpt>
      <trkpt lat="43.46221" lon="6.00105">
        <ele>408.2</ele>
        <time>2017-06-10T06:20:23Z</time>
      </trkpt>
      <trkpt lat="43.46231" lon="6.00104">
        <ele>409.5</ele>
        <time>2017-06-10T06:20:29Z</time>
      </trkpt>
      <trkpt lat="43.46241" lon="6.00102">
        <ele>411</ele>
        <time>2017-06-10T06:20:35Z</time>
      </trkpt>
      <trkpt lat="43.4625" lon="6.001">
        <ele>412.5</ele>
        <time>2017-06-10T06:20:41Z</time>
      </trkpt>
      <trkpt lat="43.4626" lon="6.00096">
        <ele>414</ele>
        <time>2017-06-10T06:20:48Z</time>
      </trkpt>
      <trkpt lat="43.46269" lon="6.0009">
        <ele>415.5</ele>
        <time>2017-06-10T06:20:55Z</time>
      </trkpt>
      <trkpt lat="43.46278" lon="6.00084">
        <ele>416.7</ele>
        <time>2017-06-10T06:21:02Z</time>
      </trkpt>
      <trkpt lat="43.46288" lon="6.00084">
        <ele>418</ele>
        <time>2017-06-10T06:21:09Z</time>
      </trkpt>
      <trkpt lat="43.46298" lon="6.00084">
        <ele>419.4</ele>
        <time>2017-06-10T06:21:16Z</time>
      </trkpt>
      <trkpt lat="43.46308" lon="6.00084">
        <ele>420.8</ele>
        <time>2017-06-10T06:21:23Z</time>
      </trkpt>
      <trkpt lat="43.46318" lon="6.00084">
        <ele>422.3</ele>
        <time>2017-06-10T06:21:30Z</time>
      </trkpt>
      <trkpt lat="43.46326" lon="6.00076">
        <ele>423.5</ele>
        <time>2017-06-10T06:21:37Z</time>
      </trkpt>
      <trkpt lat="43.46336" lon="6.00076">
        <ele>424.8</ele>
        <time>2017-06-10T06:21:43Z</time>
      </trkpt>
      <trkpt lat="43.46345" lon="6.00082">
        <ele>425.9</ele>
        <time>2017-06-10T06:22:29Z</time>
      </trkpt>
      <trkpt lat="43.46354" lon="6.00082">
        <ele>426.8</ele>
        <time>2017-06-10T06:22:36Z</time>
      </trkpt>
      <trkpt lat="43.46363" lon="6.00078">
        <ele>427.9</ele>
        <time>2017-06-10T06:22:42Z</time>
      </trkpt>
      <trkpt lat="43.46371" lon="6.00072">
        <ele>429</ele>
        <time>2017-06-10T06:22:48Z</time>
      </trkpt>
      <trkpt lat="43.4638" lon="6.00068">
        <ele>430.3</ele>
        <time>2017-06-10T06:22:55Z</time>
      </trkpt>
      <trkpt lat="43.46388" lon="6.00062">
        <ele>431.5</ele>
        <time>2017-06-10T06:23:03Z</time>
      </trkpt>
      <trkpt lat="43.46398" lon="6.00062">
        <ele>432.8</ele>
        <time>2017-06-10T06:24:41Z</time>
      </trkpt>
      <trkpt lat="43.46408" lon="6.00068">
        <ele>434.1</ele>
        <time>2017-06-10T06:24:47Z</time>
      </trkpt>
      <trkpt lat="43.46416" lon="6.00076">
        <ele>435.4</ele>
        <time>2017-06-10T06:24:54Z</time>
      </trkpt>
      <trkpt lat="43.46425" lon="6.0008">
        <ele>436.7</ele>
        <time>2017-06-10T06:25:01Z</time>
      </trkpt>
      <trkpt lat="43.46433" lon="6.00085">
        <ele>438.2</ele>
        <time>2017-06-10T06:25:07Z</time>
      </trkpt>
      <trkpt lat="43.4644" lon="6.00094">
        <ele>439.7</ele>
        <time>2017-06-10T06:25:12Z</time>
      </trkpt>
      <trkpt lat="43.46448" lon="6.001">
        <ele>441.4</ele>
        <time>2017-06-10T06:25:18Z</time>
      </trkpt>
      <trkpt lat="43.46459" lon="6.00099">
        <ele>442.8</ele>
        <time>2017-06-10T06:26:30Z</time>
      </trkpt>
      <trkpt lat="43.46469" lon="6.00096">
        <ele>444.2</ele>
        <time>2017-06-10T06:26:37Z</time>
      </trkpt>
      <trkpt lat="43.46479" lon="6.00097">
        <ele>445.5</ele>
        <time>2017-06-10T06:26:43Z</time>
      </trkpt>
      <trkpt lat="43.46488" lon="6.00097">
        <ele>446.6</ele>
        <time>2017-06-10T06:26:50Z</time>
      </trkpt>
      <trkpt lat="43.46497" lon="6.001">
        <ele>447.7</ele>
        <time>2017-06-10T06:26:55Z</time>
      </trkpt>
      <trkpt lat="43.46506" lon="6.00099">
        <ele>448.7</ele>
        <time>2017-06-10T06:27:02Z</time>
      </trkpt>
      <trkpt lat="43.46515" lon="6.00096">
        <ele>449.8</ele>
        <time>2017-06-10T06:27:08Z</time>
      </trkpt>
      <trkpt lat="43.46525" lon="6.00095">
        <ele>450.9</ele>
        <time>2017-06-10T06:27:14Z</time>
      </trkpt>
      <trkpt lat="43.46535" lon="6.00097">
        <ele>451.9</ele>
        <time>2017-06-10T06:27:21Z</time>
      </trkpt>
      <trkpt lat="43.46544" lon="6.00101">
        <ele>452.8</ele>
        <time>2017-06-10T06:27:28Z</time>
      </trkpt>
      <trkpt lat="43.46552" lon="6.00108">
        <ele>453.5</ele>
        <time>2017-06-10T06:27:36Z</time>
      </trkpt>
      <trkpt lat="43.46559" lon="6.00117">
        <ele>454</ele>
        <time>2017-06-10T06:27:44Z</time>
      </trkpt>
      <trkpt lat="43.46568" lon="6.00122">
        <ele>454.5</ele>
        <time>2017-06-10T06:27:51Z</time>
      </trkpt>
      <trkpt lat="43.46578" lon="6.0012">
        <ele>455</ele>
        <time>2017-06-10T06:27:59Z</time>
      </trkpt>
      <trkpt lat="43.46586" lon="6.00114">
        <ele>455.4</ele>
        <time>2017-06-10T06:29:54Z</time>
      </trkpt>
      <trkpt lat="43.46594" lon="6.00108">
        <ele>455.6</ele>
        <time>2017-06-10T06:29:58Z</time>
      </trkpt>
      <trkpt lat="43.46603" lon="6.001">
        <ele>455.9</ele>
        <time>2017-06-10T06:30:03Z</time>
      </trkpt>
      <trkpt lat="43.46612" lon="6.00097">
        <ele>456.2</ele>
        <time>2017-06-10T06:30:08Z</time>
      </trkpt>
      <trkpt lat="43.46622" lon="6.00097">
        <ele>456.5</ele>
        <time>2017-06-10T06:30:14Z</time>
      </trkpt>
      <trkpt lat="43.46631" lon="6.00093">
        <ele>457</ele>
        <time>2017-06-10T06:30:18Z</time>
      </trkpt>
      <trkpt lat="43.46642" lon="6.00091">
        <ele>457.5</ele>
        <time>2017-06-10T06:30:24Z</time>
      </trkpt>
      <trkpt lat="43.46649" lon="6.00084">
        <ele>458.1</ele>
        <time>2017-06-10T06:30:32Z</time>
      </trkpt>
      <trkpt lat="43.46657" lon="6.00074">
        <ele>458.8</ele>
        <time>2017-06-10T06:30:40Z</time>
      </trkpt>
      <trkpt lat="43.46666" lon="6.00068">
        <ele>459.6</ele>
        <time>2017-06-10T06:30:47Z</time>
      </trkpt>
      <trkpt lat="43.46676" lon="6.00071">
        <ele>460.5</ele>
        <time>2017-06-10T06:30:54Z</time>
      </trkpt>
      <trkpt lat="43.46685" lon="6.00076">
        <ele>461.6</ele>
        <time>2017-06-10T06:31:01Z</time>
      </trkpt>
      <trkpt lat="43.46694" lon="6.00083">
        <ele>462.8</ele>
        <time>2017-06-10T06:31:09Z</time>
      </trkpt>
      <trkpt lat="43.46703" lon="6.0009">
        <ele>464.1</ele>
        <time>2017-06-10T06:31:16Z</time>
      </trkpt>
      <trkpt lat="43.4671" lon="6.00096">
        <ele>465.2</ele>
        <time>2017-06-10T06:31:23Z</time>
      </trkpt>
      <trkpt lat="43.46719" lon="6.00104">
        <ele>466.3</ele>
        <time>2017-06-10T06:31:30Z</time>
      </trkpt>
      <trkpt lat="43.46728" lon="6.00109">
        <ele>467.3</ele>
        <time>2017-06-10T06:31:36Z</time>
      </trkpt>
      <trkpt lat="43.46736" lon="6.00114">
        <ele>468.3</ele>
        <time>2017-06-10T06:31:42Z</time>
      </trkpt>
      <trkpt lat="43.46745" lon="6.00119">
        <ele>469.4</ele>
        <time>2017-06-10T06:31:50Z</time>
      </trkpt>
      <trkpt lat="43.46752" lon="6.00106">
        <ele>470.4</ele>
        <time>2017-06-10T06:33:55Z</time>
      </trkpt>
      <trkpt lat="43.46754" lon="6.00093">
        <ele>471.2</ele>
        <time>2017-06-10T06:33:57Z</time>
      </trkpt>
      <trkpt lat="43.46756" lon="6.00078">
        <ele>471.9</ele>
        <time>2017-06-10T06:33:59Z</time>
      </trkpt>
      <trkpt lat="43.46759" lon="6.00062">
        <ele>472.5</ele>
        <time>2017-06-10T06:34:02Z</time>
      </trkpt>
      <trkpt lat="43.46762" lon="6.00049">
        <ele>472.9</ele>
        <time>2017-06-10T06:34:07Z</time>
      </trkpt>
      <trkpt lat="43.46761" lon="6.00036">
        <ele>473.3</ele>
        <time>2017-06-10T06:34:12Z</time>
      </trkpt>
      <trkpt lat="43.46759" lon="6.00022">
        <ele>473.7</ele>
        <time>2017-06-10T06:34:19Z</time>
      </trkpt>
      <trkpt lat="43.46757" lon="6.00009">
        <ele>474.2</ele>
        <time>2017-06-10T06:34:26Z</time>
      </trkpt>
      <trkpt lat="43.46754" lon="5.99996">
        <ele>474.5</ele>
        <time>2017-06-10T06:34:33Z</time>
      </trkpt>
      <trkpt lat="43.46751" lon="5.99982">
        <ele>474.9</ele>
        <time>2017-06-10T06:35:37Z</time>
      </trkpt>
      <trkpt lat="43.46749" lon="5.99969">
        <ele>475</ele>
        <time>2017-06-10T06:35:43Z</time>
      </trkpt>
      <trkpt lat="43.46748" lon="5.99956">
        <ele>475.2</ele>
        <time>2017-06-10T06:35:49Z</time>
      </trkpt>
      <trkpt lat="43.46746" lon="5.99943">
        <ele>475.5</ele>
        <time>2017-06-10T06:35:55Z</time>
      </trkpt>
      <trkpt lat="43.46744" lon="5.9993">
        <ele>475.8</ele>
        <time>2017-06-10T06:36:00Z</time>
      </trkpt>
      <trkpt lat="43.46743" lon="5.99915">
        <ele>476.3</ele>
        <time>2017-06-10T06:36:05Z</time>
      </trkpt>
      <trkpt lat="43.46745" lon="5.99901">
        <ele>476.9</ele>
        <time>2017-06-10T06:36:11Z</time>
      </trkpt>
      <trkpt lat="43.4675" lon="5.9989">
        <ele>477.6</ele>
        <time>2017-06-10T06:36:17Z</time>
      </trkpt>
      <trkpt lat="43.46757" lon="5.99882">
        <ele>478.4</ele>
        <time>2017-06-10T06:36:23Z</time>
      </trkpt>
      <trkpt lat="43.46764" lon="5.99872">
        <ele>479.2</ele>
        <time>2017-06-10T06:36:30Z</time>
      </trkpt>
      <trkpt lat="43.46772" lon="5.99867">
        <ele>480.3</ele>
        <time>2017-06-10T06:36:36Z</time>
      </trkpt>
      <trkpt lat="43.46781" lon="5.99862">
        <ele>481.5</ele>
        <time>2017-06-10T06:36:43Z</time>
      </trkpt>
      <trkpt lat="43.46789" lon="5.99857">
        <ele>482.9</ele>
        <time>2017-06-10T06:36:50Z</time>
      </trkpt>
      <trkpt lat="43.46798" lon="5.99852">
        <ele>484.3</ele>
        <time>2017-06-10T06:40:07Z</time>
      </trkpt>
      <trkpt lat="43.46808" lon="5.99847">
        <ele>485.5</ele>
        <time>2017-06-10T06:40:13Z</time>
      </trkpt>
      <trkpt lat="43.46817" lon="5.99839">
        <ele>486.8</ele>
        <time>2017-06-10T06:40:18Z</time>
      </trkpt>
      <trkpt lat="43.46826" lon="5.99835">
        <ele>488.1</ele>
        <time>2017-06-10T06:40:24Z</time>
      </trkpt>
      <trkpt lat="43.46833" lon="5.99827">
        <ele>489.3</ele>
        <time>2017-06-10T06:40:36Z</time>
      </trkpt>
      <trkpt lat="43.4684" lon="5.99818">
        <ele>490.5</ele>
        <time>2017-06-10T06:40:58Z</time>
      </trkpt>
      <trkpt lat="43.46846" lon="5.99808">
        <ele>491.6</ele>
        <time>2017-06-10T06:41:10Z</time>
      </trkpt>
      <trkpt lat="43.46854" lon="5.99801">
        <ele>492.8</ele>
        <time>2017-06-10T06:41:23Z</time>
      </trkpt>
      <trkpt lat="43.46863" lon="5.99798">
        <ele>494</ele>
        <time>2017-06-10T06:41:34Z</time>
      </trkpt>
      <trkpt lat="43.46872" lon="5.99795">
        <ele>495.3</ele>
        <time>2017-06-10T06:41:44Z</time>
      </trkpt>
      <trkpt lat="43.46882" lon="5.99799">
        <ele>496.5</ele>
        <time>2017-06-10T06:42:10Z</time>
      </trkpt>
      <trkpt lat="43.46891" lon="5.998">
        <ele>498</ele>
        <time>2017-06-10T06:42:22Z</time>
      </trkpt>
      <trkpt lat="43.469" lon="5.99801">
        <ele>499.6</ele>
        <time>2017-06-10T06:42:37Z</time>
      </trkpt>
      <trkpt lat="43.46908" lon="5.99808">
        <ele>501.4</ele>
        <time>2017-06-10T06:42:49Z</time>
      </trkpt>
      <trkpt lat="43.46916" lon="5.99814">
        <ele>503.1</ele>
        <time>2017-06-10T06:43:16Z</time>
      </trkpt>
      <trkpt lat="43.4692" lon="5.99825">
        <ele>504.9</ele>
        <time>2017-06-10T06:43:29Z</time>
      </trkpt>
      <trkpt lat="43.46925" lon="5.99836">
        <ele>506.6</ele>
        <time>2017-06-10T06:43:49Z</time>
      </trkpt>
      <trkpt lat="43.46929" lon="5.99847">
        <ele>508.4</ele>
        <time>2017-06-10T06:44:01Z</time>
      </trkpt>
      <trkpt lat="43.46934" lon="5.99858">
        <ele>510</ele>
        <time>2017-06-10T06:44:12Z</time>
      </trkpt>
      <trkpt lat="43.46937" lon="5.9987">
        <ele>511.5</ele>
        <time>2017-06-10T06:44:35Z</time>
      </trkpt>
      <trkpt lat="43.46942" lon="5.99881">
        <ele>512.9</ele>
        <time>2017-06-10T06:44:52Z</time>
      </trkpt>
      <trkpt lat="43.46948" lon="5.99892">
        <ele>514.3</ele>
        <time>2017-06-10T06:45:06Z</time>
      </trkpt>
      <trkpt lat="43.46953" lon="5.99902">
        <ele>515.5</ele>
        <time>2017-06-10T06:45:18Z</time>
      </trkpt>
      <trkpt lat="43.46958" lon="5.99913">
        <ele>516.6</ele>
        <time>2017-06-10T06:46:36Z</time>
      </trkpt>
      <trkpt lat="43.46964" lon="5.99922">
        <ele>517.6</ele>
        <time>2017-06-10T06:48:24Z</time>
      </trkpt>
      <trkpt lat="43.46971" lon="5.99932">
        <ele>518.6</ele>
        <time>2017-06-10T06:48:34Z</time>
      </trkpt>
      <trkpt lat="43.46978" lon="5.99941">
        <ele>519.5</ele>
        <time>2017-06-10T06:48:44Z</time>
      </trkpt>
      <trkpt lat="43.46984" lon="5.9995">
        <ele>520.2</ele>
        <time>2017-06-10T06:48:54Z</time>
      </trkpt>
      <trkpt lat="43.4699" lon="5.9996">
        <ele>520.8</ele>
        <time>2017-06-10T06:49:04Z</time>
      </trkpt>
      <trkpt lat="43.46996" lon="5.99971">
        <ele>521.4</ele>
        <time>2017-06-10T06:49:20Z</time>
      </trkpt>
      <trkpt lat="43.47004" lon="5.9998">
        <ele>521.7</ele>
        <time>2017-06-10T06:49:25Z</time>
      </trkpt>
      <trkpt lat="43.47014" lon="5.9999">
        <ele>521.8</ele>
        <time>2017-06-10T06:49:29Z</time>
      </trkpt>
      <trkpt lat="43.47022" lon="5.99998">
        <ele>521.5</ele>
        <time>2017-06-10T06:49:32Z</time>
      </trkpt>
      <trkpt lat="43.47029" lon="6.0001">
        <ele>521.2</ele>
        <time>2017-06-10T06:49:36Z</time>
      </trkpt>
      <trkpt lat="43.47031" lon="6.00023">
        <ele>520.7</ele>
        <time>2017-06-10T06:50:02Z</time>
      </trkpt>
      <trkpt lat="43.47037" lon="6.00036">
        <ele>520.1</ele>
        <time>2017-06-10T06:51:21Z</time>
      </trkpt>
      <trkpt lat="43.47047" lon="6.00049">
        <ele>519.3</ele>
        <time>2017-06-10T06:51:24Z</time>
      </trkpt>
      <trkpt lat="43.47055" lon="6.00058">
        <ele>518.3</ele>
        <time>2017-06-10T06:51:26Z</time>
      </trkpt>
      <trkpt lat="43.47061" lon="6.00069">
        <ele>517.1</ele>
        <time>2017-06-10T06:51:28Z</time>
      </trkpt>
      <trkpt lat="43.47067" lon="6.00082">
        <ele>515.6</ele>
        <time>2017-06-10T06:51:30Z</time>
      </trkpt>
      <trkpt lat="43.47075" lon="6.00095">
        <ele>514.1</ele>
        <time>2017-06-10T06:51:32Z</time>
      </trkpt>
      <trkpt lat="43.47084" lon="6.00108">
        <ele>512.5</ele>
        <time>2017-06-10T06:51:34Z</time>
      </trkpt>
      <trkpt lat="43.4709" lon="6.00118">
        <ele>511.3</ele>
        <time>2017-06-10T06:51:36Z</time>
      </trkpt>
      <trkpt lat="43.47099" lon="6.00129">
        <ele>510.2</ele>
        <time>2017-06-10T06:51:39Z</time>
      </trkpt>
      <trkpt lat="43.47109" lon="6.00141">
        <ele>509.1</ele>
        <time>2017-06-10T06:51:42Z</time>
      </trkpt>
      <trkpt lat="43.47115" lon="6.00151">
        <ele>508.1</ele>
        <time>2017-06-10T06:51:44Z</time>
      </trkpt>
      <trkpt lat="43.4712" lon="6.00165">
        <ele>507.1</ele>
        <time>2017-06-10T06:51:46Z</time>
      </trkpt>
      <trkpt lat="43.47122" lon="6.00179">
        <ele>506.1</ele>
        <time>2017-06-10T06:51:48Z</time>
      </trkpt>
      <trkpt lat="43.47125" lon="6.00194">
        <ele>505.2</ele>
        <time>2017-06-10T06:51:50Z</time>
      </trkpt>
      <trkpt lat="43.47127" lon="6.00206">
        <ele>504.4</ele>
        <time>2017-06-10T06:51:52Z</time>
      </trkpt>
      <trkpt lat="43.47129" lon="6.00221">
        <ele>503.7</ele>
        <time>2017-06-10T06:51:55Z</time>
      </trkpt>
      <trkpt lat="43.4713" lon="6.00238">
        <ele>503.2</ele>
        <time>2017-06-10T06:51:58Z</time>
      </trkpt>
      <trkpt lat="43.47131" lon="6.00251">
        <ele>502.7</ele>
        <time>2017-06-10T06:52:00Z</time>
      </trkpt>
      <trkpt lat="43.47132" lon="6.00264">
        <ele>502.2</ele>
        <time>2017-06-10T06:52:02Z</time>
      </trkpt>
      <trkpt lat="43.47133" lon="6.00277">
        <ele>501.5</ele>
        <time>2017-06-10T06:52:04Z</time>
      </trkpt>
      <trkpt lat="43.47132" lon="6.00293">
        <ele>500.7</ele>
        <time>2017-06-10T06:52:07Z</time>
      </trkpt>
      <trkpt lat="43.47126" lon="6.00304">
        <ele>499.8</ele>
        <time>2017-06-10T06:52:11Z</time>
      </trkpt>
      <trkpt lat="43.47122" lon="6.00318">
        <ele>498.9</ele>
        <time>2017-06-10T06:52:14Z</time>
      </trkpt>
      <trkpt lat="43.47118" lon="6.0033">
        <ele>498</ele>
        <time>2017-06-10T06:52:16Z</time>
      </trkpt>
      <trkpt lat="43.47114" lon="6.00345">
        <ele>497.1</ele>
        <time>2017-06-10T06:52:18Z</time>
      </trkpt>
      <trkpt lat="43.4711" lon="6.0036">
        <ele>496.4</ele>
        <time>2017-06-10T06:52:20Z</time>
      </trkpt>
      <trkpt lat="43.47106" lon="6.00372">
        <ele>495.7</ele>
        <time>2017-06-10T06:52:22Z</time>
      </trkpt>
      <trkpt lat="43.471" lon="6.00386">
        <ele>495.1</ele>
        <time>2017-06-10T06:52:24Z</time>
      </trkpt>
      <trkpt lat="43.47092" lon="6.00401">
        <ele>494.5</ele>
        <time>2017-06-10T06:52:26Z</time>
      </trkpt>
      <trkpt lat="43.47084" lon="6.00414">
        <ele>493.8</ele>
        <time>2017-06-10T06:52:28Z</time>
      </trkpt>
      <trkpt lat="43.47071" lon="6.00426">
        <ele>493.2</ele>
        <time>2017-06-10T06:52:30Z</time>
      </trkpt>
      <trkpt lat="43.47061" lon="6.00438">
        <ele>492.5</ele>
        <time>2017-06-10T06:52:32Z</time>
      </trkpt>
      <trkpt lat="43.47053" lon="6.00448">
        <ele>491.8</ele>
        <time>2017-06-10T06:52:34Z</time>
      </trkpt>
      <trkpt lat="43.47045" lon="6.00459">
        <ele>491</ele>
        <time>2017-06-10T06:52:36Z</time>
      </trkpt>
      <trkpt lat="43.47037" lon="6.00469">
        <ele>490.1</ele>
        <time>2017-06-10T06:52:38Z</time>
      </trkpt>
      <trkpt lat="43.4703" lon="6.00483">
        <ele>489.1</ele>
        <time>2017-06-10T06:52:40Z</time>
      </trkpt>
      <trkpt lat="43.47025" lon="6.00497">
        <ele>487.9</ele>
        <time>2017-06-10T06:52:42Z</time>
      </trkpt>
      <trkpt lat="43.4702" lon="6.00512">
        <ele>486.7</ele>
        <time>2017-06-10T06:52:44Z</time>
      </trkpt>
      <trkpt lat="43.47016" lon="6.00524">
        <ele>485.5</ele>
        <time>2017-06-10T06:52:46Z</time>
      </trkpt>
      <trkpt lat="43.47011" lon="6.00541">
        <ele>484.1</ele>
        <time>2017-06-10T06:52:49Z</time>
      </trkpt>
      <trkpt lat="43.47006" lon="6.00556">
        <ele>482.7</ele>
        <time>2017-06-10T06:52:51Z</time>
      </trkpt>
      <trkpt lat="43.47" lon="6.00571">
        <ele>481.2</ele>
        <time>2017-06-10T06:52:53Z</time>
      </trkpt>
      <trkpt lat="43.46997" lon="6.00584">
        <ele>479.8</ele>
        <time>2017-06-10T06:52:55Z</time>
      </trkpt>
      <trkpt lat="43.46989" lon="6.00597">
        <ele>478.5</ele>
        <time>2017-06-10T06:52:58Z</time>
      </trkpt>
      <trkpt lat="43.46986" lon="6.0061">
        <ele>477.5</ele>
        <time>2017-06-10T06:53:02Z</time>
      </trkpt>
      <trkpt lat="43.46984" lon="6.00622">
        <ele>476.4</ele>
        <time>2017-06-10T06:53:05Z</time>
      </trkpt>
      <trkpt lat="43.46984" lon="6.00638">
        <ele>475.4</ele>
        <time>2017-06-10T06:53:08Z</time>
      </trkpt>
      <trkpt lat="43.46988" lon="6.00651">
        <ele>474.3</ele>
        <time>2017-06-10T06:53:11Z</time>
      </trkpt>
      <trkpt lat="43.46995" lon="6.00661">
        <ele>473</ele>
        <time>2017-06-10T06:53:36Z</time>
      </trkpt>
      <trkpt lat="43.46999" lon="6.00677">
        <ele>471.7</ele>
        <time>2017-06-10T06:53:38Z</time>
      </trkpt>
      <trkpt lat="43.46996" lon="6.00693">
        <ele>470.5</ele>
        <time>2017-06-10T06:53:40Z</time>
      </trkpt>
      <trkpt lat="43.46988" lon="6.00707">
        <ele>469.2</ele>
        <time>2017-06-10T06:53:42Z</time>
      </trkpt>
      <trkpt lat="43.46982" lon="6.00721">
        <ele>468.2</ele>
        <time>2017-06-10T06:53:45Z</time>
      </trkpt>
      <trkpt lat="43.46977" lon="6.00732">
        <ele>467</ele>
        <time>2017-06-10T06:53:48Z</time>
      </trkpt>
      <trkpt lat="43.4697" lon="6.00743">
        <ele>465.8</ele>
        <time>2017-06-10T06:53:50Z</time>
      </trkpt>
      <trkpt lat="43.46962" lon="6.00755">
        <ele>464.5</ele>
        <time>2017-06-10T06:53:52Z</time>
      </trkpt>
      <trkpt lat="43.46956" lon="6.00769">
        <ele>463.3</ele>
        <time>2017-06-10T06:53:54Z</time>
      </trkpt>
      <trkpt lat="43.46953" lon="6.00784">
        <ele>462</ele>
        <time>2017-06-10T06:53:56Z</time>
      </trkpt>
      <trkpt lat="43.46945" lon="6.00797">
        <ele>460.8</ele>
        <time>2017-06-10T06:53:58Z</time>
      </trkpt>
      <trkpt lat="43.46936" lon="6.00805">
        <ele>459.6</ele>
        <time>2017-06-10T06:54:00Z</time>
      </trkpt>
      <trkpt lat="43.46927" lon="6.00811">
        <ele>458.5</ele>
        <time>2017-06-10T06:54:02Z</time>
      </trkpt>
      <trkpt lat="43.46917" lon="6.00817">
        <ele>457.2</ele>
        <time>2017-06-10T06:54:04Z</time>
      </trkpt>
      <trkpt lat="43.46907" lon="6.00825">
        <ele>455.9</ele>
        <time>2017-06-10T06:54:06Z</time>
      </trkpt>
      <trkpt lat="43.46897" lon="6.00836">
        <ele>454.5</ele>
        <time>2017-06-10T06:54:08Z</time>
      </trkpt>
      <trkpt lat="43.46887" lon="6.00846">
        <ele>453.3</ele>
        <time>2017-06-10T06:54:10Z</time>
      </trkpt>
      <trkpt lat="43.46876" lon="6.00853">
        <ele>452</ele>
        <time>2017-06-10T06:54:12Z</time>
      </trkpt>
      <trkpt lat="43.46862" lon="6.00856">
        <ele>450.8</ele>
        <time>2017-06-10T06:54:14Z</time>
      </trkpt>
      <trkpt lat="43.4685" lon="6.0086">
        <ele>449.9</ele>
        <time>2017-06-10T06:54:16Z</time>
      </trkpt>
      <trkpt lat="43.46842" lon="6.00868">
        <ele>449.1</ele>
        <time>2017-06-10T06:54:18Z</time>
      </trkpt>
      <trkpt lat="43.46839" lon="6.0088">
        <ele>448.4</ele>
        <time>2017-06-10T06:54:20Z</time>
      </trkpt>
      <trkpt lat="43.46834" lon="6.00895">
        <ele>448</ele>
        <time>2017-06-10T06:54:23Z</time>
      </trkpt>
      <trkpt lat="43.46826" lon="6.00903">
        <ele>447.8</ele>
        <time>2017-06-10T06:54:26Z</time>
      </trkpt>
      <trkpt lat="43.46818" lon="6.00911">
        <ele>447.8</ele>
        <time>2017-06-10T06:54:29Z</time>
      </trkpt>
      <trkpt lat="43.46811" lon="6.00921">
        <ele>447.9</ele>
        <time>2017-06-10T06:54:32Z</time>
      </trkpt>
      <trkpt lat="43.46803" lon="6.00932">
        <ele>448.1</ele>
        <time>2017-06-10T06:54:36Z</time>
      </trkpt>
      <trkpt lat="43.46796" lon="6.0094">
        <ele>448.4</ele>
        <time>2017-06-10T06:54:39Z</time>
      </trkpt>
      <trkpt lat="43.46787" lon="6.00949">
        <ele>448.7</ele>
        <time>2017-06-10T06:54:42Z</time>
      </trkpt>
      <trkpt lat="43.46781" lon="6.00958">
        <ele>449.1</ele>
        <time>2017-06-10T06:54:45Z</time>
      </trkpt>
      <trkpt lat="43.46772" lon="6.00967">
        <ele>449.3</ele>
        <time>2017-06-10T06:54:50Z</time>
      </trkpt>
      <trkpt lat="43.46764" lon="6.00977">
        <ele>449.3</ele>
        <time>2017-06-10T06:54:54Z</time>
      </trkpt>
      <trkpt lat="43.46758" lon="6.00987">
        <ele>449.3</ele>
        <time>2017-06-10T06:54:57Z</time>
      </trkpt>
      <trkpt lat="43.4675" lon="6.00998">
        <ele>449.1</ele>
        <time>2017-06-10T06:55:01Z</time>
      </trkpt>
      <trkpt lat="43.46742" lon="6.01007">
        <ele>448.8</ele>
        <time>2017-06-10T06:55:04Z</time>
      </trkpt>
      <trkpt lat="43.46731" lon="6.01018">
        <ele>448.5</ele>
        <time>2017-06-10T06:55:07Z</time>
      </trkpt>
      <trkpt lat="43.46723" lon="6.01026">
        <ele>448.3</ele>
        <time>2017-06-10T06:55:09Z</time>
      </trkpt>
      <trkpt lat="43.46715" lon="6.01035">
        <ele>448.1</ele>
        <time>2017-06-10T06:55:11Z</time>
      </trkpt>
      <trkpt lat="43.46707" lon="6.01042">
        <ele>447.9</ele>
        <time>2017-06-10T06:55:13Z</time>
      </trkpt>
      <trkpt lat="43.46699" lon="6.01049">
        <ele>447.8</ele>
        <time>2017-06-10T06:55:15Z</time>
      </trkpt>
      <trkpt lat="43.46691" lon="6.01059">
        <ele>447.7</ele>
        <time>2017-06-10T06:55:17Z</time>
      </trkpt>
      <trkpt lat="43.46682" lon="6.01068">
        <ele>447.7</ele>
        <time>2017-06-10T06:55:19Z</time>
      </trkpt>
      <trkpt lat="43.46673" lon="6.01076">
        <ele>448</ele>
        <time>2017-06-10T06:55:21Z</time>
      </trkpt>
      <trkpt lat="43.46664" lon="6.01085">
        <ele>448.4</ele>
        <time>2017-06-10T06:55:23Z</time>
      </trkpt>
      <trkpt lat="43.46654" lon="6.01093">
        <ele>448.6</ele>
        <time>2017-06-10T06:55:25Z</time>
      </trkpt>
      <trkpt lat="43.46645" lon="6.011">
        <ele>448.9</ele>
        <time>2017-06-10T06:55:27Z</time>
      </trkpt>
      <trkpt lat="43.46636" lon="6.01107">
        <ele>449.2</ele>
        <time>2017-06-10T06:55:29Z</time>
      </trkpt>
      <trkpt lat="43.46626" lon="6.01116">
        <ele>449.5</ele>
        <time>2017-06-10T06:55:32Z</time>
      </trkpt>
      <trkpt lat="43.46616" lon="6.01121">
        <ele>449.7</ele>
        <time>2017-06-10T06:55:35Z</time>
      </trkpt>
      <trkpt lat="43.46608" lon="6.01129">
        <ele>450</ele>
        <time>2017-06-10T06:55:38Z</time>
      </trkpt>
      <trkpt lat="43.46599" lon="6.01136">
        <ele>450.3</ele>
        <time>2017-06-10T06:55:41Z</time>
      </trkpt>
      <trkpt lat="43.46591" lon="6.01143">
        <ele>450.6</ele>
        <time>2017-06-10T06:55:44Z</time>
      </trkpt>
      <trkpt lat="43.4658" lon="6.01151">
        <ele>451.1</ele>
        <time>2017-06-10T06:55:48Z</time>
      </trkpt>
      <trkpt lat="43.46572" lon="6.01158">
        <ele>451.5</ele>
        <time>2017-06-10T06:55:51Z</time>
      </trkpt>
      <trkpt lat="43.46565" lon="6.01165">
        <ele>451.8</ele>
        <time>2017-06-10T06:55:54Z</time>
      </trkpt>
      <trkpt lat="43.46557" lon="6.01172">
        <ele>452.4</ele>
        <time>2017-06-10T06:55:57Z</time>
      </trkpt>
      <trkpt lat="43.46548" lon="6.01182">
        <ele>453.1</ele>
        <time>2017-06-10T06:56:01Z</time>
      </trkpt>
      <trkpt lat="43.46539" lon="6.0119">
        <ele>453.8</ele>
        <time>2017-06-10T06:56:05Z</time>
      </trkpt>
      <trkpt lat="43.46531" lon="6.01199">
        <ele>454.6</ele>
        <time>2017-06-10T06:56:10Z</time>
      </trkpt>
      <trkpt lat="43.46525" lon="6.01211">
        <ele>455.4</ele>
        <time>2017-06-10T06:56:16Z</time>
      </trkpt>
      <trkpt lat="43.46517" lon="6.01223">
        <ele>456.1</ele>
        <time>2017-06-10T06:56:21Z</time>
      </trkpt>
      <trkpt lat="43.46509" lon="6.01233">
        <ele>456.7</ele>
        <time>2017-06-10T06:56:26Z</time>
      </trkpt>
      <trkpt lat="43.46501" lon="6.01242">
        <ele>457.4</ele>
        <time>2017-06-10T06:56:31Z</time>
      </trkpt>
      <trkpt lat="43.46494" lon="6.01253">
        <ele>458</ele>
        <time>2017-06-10T06:56:37Z</time>
      </trkpt>
      <trkpt lat="43.46487" lon="6.01261">
        <ele>458.7</ele>
        <time>2017-06-10T06:56:42Z</time>
      </trkpt>
      <trkpt lat="43.46479" lon="6.0127">
        <ele>459.4</ele>
        <time>2017-06-10T06:56:47Z</time>
      </trkpt>
      <trkpt lat="43.46473" lon="6.01281">
        <ele>459.9</ele>
        <time>2017-06-10T06:56:52Z</time>
      </trkpt>
      <trkpt lat="43.46466" lon="6.01292">
        <ele>460.3</ele>
        <time>2017-06-10T06:56:57Z</time>
      </trkpt>
      <trkpt lat="43.46458" lon="6.01301">
        <ele>460.6</ele>
        <time>2017-06-10T06:57:02Z</time>
      </trkpt>
      <trkpt lat="43.46449" lon="6.0131">
        <ele>460.8</ele>
        <time>2017-06-10T06:57:07Z</time>
      </trkpt>
      <trkpt lat="43.46442" lon="6.01321">
        <ele>461</ele>
        <time>2017-06-10T06:57:12Z</time>
      </trkpt>
      <trkpt lat="43.46435" lon="6.01331">
        <ele>461.1</ele>
        <time>2017-06-10T06:57:17Z</time>
      </trkpt>
      <trkpt lat="43.46427" lon="6.01341">
        <ele>461.2</ele>
        <time>2017-06-10T06:57:22Z</time>
      </trkpt>
      <trkpt lat="43.46421" lon="6.0135">
        <ele>461.1</ele>
        <time>2017-06-10T06:57:26Z</time>
      </trkpt>
      <trkpt lat="43.46413" lon="6.01362">
        <ele>460.9</ele>
        <time>2017-06-10T06:57:30Z</time>
      </trkpt>
      <trkpt lat="43.46407" lon="6.01371">
        <ele>460.5</ele>
        <time>2017-06-10T06:57:33Z</time>
      </trkpt>
      <trkpt lat="43.46399" lon="6.0138">
        <ele>459.9</ele>
        <time>2017-06-10T06:57:36Z</time>
      </trkpt>
      <trkpt lat="43.4639" lon="6.01392">
        <ele>459.2</ele>
        <time>2017-06-10T06:57:39Z</time>
      </trkpt>
      <trkpt lat="43.46383" lon="6.014">
        <ele>458.4</ele>
        <time>2017-06-10T06:57:41Z</time>
      </trkpt>
      <trkpt lat="43.46376" lon="6.01408">
        <ele>457.5</ele>
        <time>2017-06-10T06:57:43Z</time>
      </trkpt>
      <trkpt lat="43.46367" lon="6.01417">
        <ele>456.6</ele>
        <time>2017-06-10T06:57:45Z</time>
      </trkpt>
      <trkpt lat="43.4636" lon="6.01425">
        <ele>455.8</ele>
        <time>2017-06-10T06:57:47Z</time>
      </trkpt>
      <trkpt lat="43.46348" lon="6.01434">
        <ele>455.1</ele>
        <time>2017-06-10T06:57:50Z</time>
      </trkpt>
      <trkpt lat="43.46337" lon="6.01438">
        <ele>454.4</ele>
        <time>2017-06-10T06:57:52Z</time>
      </trkpt>
      <trkpt lat="43.46323" lon="6.0144">
        <ele>453.7</ele>
        <time>2017-06-10T06:57:54Z</time>
      </trkpt>
      <trkpt lat="43.4631" lon="6.01442">
        <ele>453</ele>
        <time>2017-06-10T06:57:56Z</time>
      </trkpt>
      <trkpt lat="43.46301" lon="6.0145">
        <ele>452.4</ele>
        <time>2017-06-10T06:57:58Z</time>
      </trkpt>
      <trkpt lat="43.46293" lon="6.01457">
        <ele>451.7</ele>
        <time>2017-06-10T06:58:00Z</time>
      </trkpt>
      <trkpt lat="43.46283" lon="6.01467">
        <ele>451.2</ele>
        <time>2017-06-10T06:58:03Z</time>
      </trkpt>
      <trkpt lat="43.46273" lon="6.01468">
        <ele>450.5</ele>
        <time>2017-06-10T06:59:18Z</time>
      </trkpt>
      <trkpt lat="43.46261" lon="6.01471">
        <ele>449.8</ele>
        <time>2017-06-10T06:59:22Z</time>
      </trkpt>
      <trkpt lat="43.46251" lon="6.01477">
        <ele>449</ele>
        <time>2017-06-10T06:59:24Z</time>
      </trkpt>
      <trkpt lat="43.46243" lon="6.01486">
        <ele>448</ele>
        <time>2017-06-10T06:59:26Z</time>
      </trkpt>
      <trkpt lat="43.46235" lon="6.01492">
        <ele>446.7</ele>
        <time>2017-06-10T06:59:28Z</time>
      </trkpt>
      <trkpt lat="43.46226" lon="6.01498">
        <ele>445.3</ele>
        <time>2017-06-10T06:59:30Z</time>
      </trkpt>
      <trkpt lat="43.46215" lon="6.01505">
        <ele>443.5</ele>
        <time>2017-06-10T06:59:33Z</time>
      </trkpt>
      <trkpt lat="43.46206" lon="6.01512">
        <ele>441.6</ele>
        <time>2017-06-10T06:59:35Z</time>
      </trkpt>
      <trkpt lat="43.462" lon="6.01526">
        <ele>439.6</ele>
        <time>2017-06-10T06:59:37Z</time>
      </trkpt>
      <trkpt lat="43.4619" lon="6.01539">
        <ele>437.5</ele>
        <time>2017-06-10T06:59:39Z</time>
      </trkpt>
      <trkpt lat="43.46181" lon="6.01558">
        <ele>435.1</ele>
        <time>2017-06-10T06:59:41Z</time>
      </trkpt>
      <trkpt lat="43.46169" lon="6.01572">
        <ele>432.9</ele>
        <time>2017-06-10T06:59:43Z</time>
      </trkpt>
      <trkpt lat="43.46155" lon="6.01586">
        <ele>430.7</ele>
        <time>2017-06-10T06:59:45Z</time>
      </trkpt>
      <trkpt lat="43.46141" lon="6.01598">
        <ele>428.5</ele>
        <time>2017-06-10T06:59:47Z</time>
      </trkpt>
      <trkpt lat="43.46127" lon="6.01606">
        <ele>426.5</ele>
        <time>2017-06-10T06:59:49Z</time>
      </trkpt>
      <trkpt lat="43.46113" lon="6.01613">
        <ele>424.5</ele>
        <time>2017-06-10T06:59:51Z</time>
      </trkpt>
      <trkpt lat="43.46099" lon="6.01626">
        <ele>422.5</ele>
        <time>2017-06-10T06:59:53Z</time>
      </trkpt>
      <trkpt lat="43.46086" lon="6.0164">
        <ele>420.9</ele>
        <time>2017-06-10T06:59:55Z</time>
      </trkpt>
      <trkpt lat="43.46073" lon="6.0165">
        <ele>419.5</ele>
        <time>2017-06-10T06:59:57Z</time>
      </trkpt>
      <trkpt lat="43.4606" lon="6.01653">
        <ele>418.5</ele>
        <time>2017-06-10T06:59:59Z</time>
      </trkpt>
      <trkpt lat="43.46049" lon="6.01651">
        <ele>417.6</ele>
        <time>2017-06-10T07:00:01Z</time>
      </trkpt>
      <trkpt lat="43.4604" lon="6.01646">
        <ele>416.9</ele>
        <time>2017-06-10T07:00:04Z</time>
      </trkpt>
      <trkpt lat="43.46035" lon="6.01635">
        <ele>416</ele>
        <time>2017-06-10T07:00:06Z</time>
      </trkpt>
      <trkpt lat="43.46031" lon="6.0162">
        <ele>415.1</ele>
        <time>2017-06-10T07:00:08Z</time>
      </trkpt>
      <trkpt lat="43.46024" lon="6.01605">
        <ele>414.1</ele>
        <time>2017-06-10T07:00:10Z</time>
      </trkpt>
      <trkpt lat="43.46015" lon="6.01594">
        <ele>413.2</ele>
        <time>2017-06-10T07:00:12Z</time>
      </trkpt>
      <trkpt lat="43.46005" lon="6.01588">
        <ele>412.5</ele>
        <time>2017-06-10T07:00:14Z</time>
      </trkpt>
      <trkpt lat="43.4599" lon="6.01579">
        <ele>411.7</ele>
        <time>2017-06-10T07:00:16Z</time>
      </trkpt>
      <trkpt lat="43.45978" lon="6.01571">
        <ele>411</ele>
        <time>2017-06-10T07:00:18Z</time>
      </trkpt>
      <trkpt lat="43.45967" lon="6.01559">
        <ele>410.1</ele>
        <time>2017-06-10T07:00:20Z</time>
      </trkpt>
      <trkpt lat="43.45962" lon="6.01545">
        <ele>409</ele>
        <time>2017-06-10T07:00:22Z</time>
      </trkpt>
      <trkpt lat="43.45958" lon="6.0153">
        <ele>407.6</ele>
        <time>2017-06-10T07:00:24Z</time>
      </trkpt>
      <trkpt lat="43.45953" lon="6.01515">
        <ele>406.3</ele>
        <time>2017-06-10T07:00:26Z</time>
      </trkpt>
      <trkpt lat="43.4595" lon="6.01502">
        <ele>404.9</ele>
        <time>2017-06-10T07:00:28Z</time>
      </trkpt>
      <trkpt lat="43.45941" lon="6.01489">
        <ele>403.6</ele>
        <time>2017-06-10T07:00:30Z</time>
      </trkpt>
      <trkpt lat="43.4593" lon="6.01479">
        <ele>402.5</ele>
        <time>2017-06-10T07:00:32Z</time>
      </trkpt>
      <trkpt lat="43.45916" lon="6.01472">
        <ele>401.5</ele>
        <time>2017-06-10T07:00:34Z</time>
      </trkpt>
      <trkpt lat="43.45902" lon="6.0147">
        <ele>400.5</ele>
        <time>2017-06-10T07:00:36Z</time>
      </trkpt>
      <trkpt lat="43.45888" lon="6.01467">
        <ele>399.8</ele>
        <time>2017-06-10T07:00:38Z</time>
      </trkpt>
      <trkpt lat="43.45871" lon="6.01471">
        <ele>399.1</ele>
        <time>2017-06-10T07:00:40Z</time>
      </trkpt>
      <trkpt lat="43.45855" lon="6.01476">
        <ele>398.3</ele>
        <time>2017-06-10T07:00:42Z</time>
      </trkpt>
      <trkpt lat="43.4584" lon="6.01483">
        <ele>397.3</ele>
        <time>2017-06-10T07:00:44Z</time>
      </trkpt>
      <trkpt lat="43.45826" lon="6.01492">
        <ele>396.3</ele>
        <time>2017-06-10T07:00:46Z</time>
      </trkpt>
      <trkpt lat="43.45814" lon="6.01501">
        <ele>395.2</ele>
        <time>2017-06-10T07:00:48Z</time>
      </trkpt>
      <trkpt lat="43.458" lon="6.0151">
        <ele>394.3</ele>
        <time>2017-06-10T07:00:50Z</time>
      </trkpt>
      <trkpt lat="43.45787" lon="6.01523">
        <ele>393.5</ele>
        <time>2017-06-10T07:00:52Z</time>
      </trkpt>
      <trkpt lat="43.45777" lon="6.01534">
        <ele>392.8</ele>
        <time>2017-06-10T07:00:54Z</time>
      </trkpt>
      <trkpt lat="43.45763" lon="6.01543">
        <ele>392.2</ele>
        <time>2017-06-10T07:00:56Z</time>
      </trkpt>
      <trkpt lat="43.45751" lon="6.01552">
        <ele>391.6</ele>
        <time>2017-06-10T07:00:58Z</time>
      </trkpt>
      <trkpt lat="43.45739" lon="6.01562">
        <ele>390.9</ele>
        <time>2017-06-10T07:01:00Z</time>
      </trkpt>
      <trkpt lat="43.45727" lon="6.0157">
        <ele>390.1</ele>
        <time>2017-06-10T07:01:02Z</time>
      </trkpt>
      <trkpt lat="43.45716" lon="6.01581">
        <ele>389.6</ele>
        <time>2017-06-10T07:01:04Z</time>
      </trkpt>
      <trkpt lat="43.45704" lon="6.01586">
        <ele>389.4</ele>
        <time>2017-06-10T07:01:06Z</time>
      </trkpt>
      <trkpt lat="43.45691" lon="6.01595">
        <ele>389.4</ele>
        <time>2017-06-10T07:01:08Z</time>
      </trkpt>
      <trkpt lat="43.45678" lon="6.01601">
        <ele>389.6</ele>
        <time>2017-06-10T07:01:10Z</time>
      </trkpt>
      <trkpt lat="43.45666" lon="6.01611">
        <ele>389.9</ele>
        <time>2017-06-10T07:01:12Z</time>
      </trkpt>
      <trkpt lat="43.45655" lon="6.01621">
        <ele>390.1</ele>
        <time>2017-06-10T07:01:14Z</time>
      </trkpt>
      <trkpt lat="43.45644" lon="6.01629">
        <ele>390.2</ele>
        <time>2017-06-10T07:01:16Z</time>
      </trkpt>
      <trkpt lat="43.45633" lon="6.01637">
        <ele>390.2</ele>
        <time>2017-06-10T07:01:18Z</time>
      </trkpt>
      <trkpt lat="43.45622" lon="6.01644">
        <ele>390</ele>
        <time>2017-06-10T07:01:20Z</time>
      </trkpt>
      <trkpt lat="43.45614" lon="6.01656">
        <ele>389.9</ele>
        <time>2017-06-10T07:01:22Z</time>
      </trkpt>
      <trkpt lat="43.45605" lon="6.01665">
        <ele>389.9</ele>
        <time>2017-06-10T07:01:24Z</time>
      </trkpt>
      <trkpt lat="43.45596" lon="6.01679">
        <ele>389.7</ele>
        <time>2017-06-10T07:01:26Z</time>
      </trkpt>
      <trkpt lat="43.45589" lon="6.01689">
        <ele>389.5</ele>
        <time>2017-06-10T07:01:28Z</time>
      </trkpt>
      <trkpt lat="43.45582" lon="6.01699">
        <ele>389.2</ele>
        <time>2017-06-10T07:01:30Z</time>
      </trkpt>
      <trkpt lat="43.45574" lon="6.01706">
        <ele>388.5</ele>
        <time>2017-06-10T07:01:32Z</time>
      </trkpt>
      <trkpt lat="43.45564" lon="6.01716">
        <ele>387.6</ele>
        <time>2017-06-10T07:01:35Z</time>
      </trkpt>
      <trkpt lat="43.45554" lon="6.0173">
        <ele>386.6</ele>
        <time>2017-06-10T07:01:38Z</time>
      </trkpt>
      <trkpt lat="43.45548" lon="6.01742">
        <ele>385.5</ele>
        <time>2017-06-10T07:01:40Z</time>
      </trkpt>
      <trkpt lat="43.45539" lon="6.01758">
        <ele>384.2</ele>
        <time>2017-06-10T07:01:42Z</time>
      </trkpt>
      <trkpt lat="43.45529" lon="6.01774">
        <ele>382.8</ele>
        <time>2017-06-10T07:01:44Z</time>
      </trkpt>
      <trkpt lat="43.45516" lon="6.01789">
        <ele>381.5</ele>
        <time>2017-06-10T07:01:46Z</time>
      </trkpt>
      <trkpt lat="43.45504" lon="6.01805">
        <ele>380.3</ele>
        <time>2017-06-10T07:01:48Z</time>
      </trkpt>
      <trkpt lat="43.45493" lon="6.0182">
        <ele>379.1</ele>
        <time>2017-06-10T07:01:50Z</time>
      </trkpt>
      <trkpt lat="43.45481" lon="6.01835">
        <ele>378</ele>
        <time>2017-06-10T07:01:52Z</time>
      </trkpt>
      <trkpt lat="43.45474" lon="6.01852">
        <ele>377</ele>
        <time>2017-06-10T07:01:54Z</time>
      </trkpt>
      <trkpt lat="43.45469" lon="6.01869">
        <ele>376.5</ele>
        <time>2017-06-10T07:01:56Z</time>
      </trkpt>
      <trkpt lat="43.45464" lon="6.01885">
        <ele>376</ele>
        <time>2017-06-10T07:01:58Z</time>
      </trkpt>
      <trkpt lat="43.45456" lon="6.01899">
        <ele>375.8</ele>
        <time>2017-06-10T07:02:00Z</time>
      </trkpt>
      <trkpt lat="43.4545" lon="6.01909">
        <ele>375.7</ele>
        <time>2017-06-10T07:02:02Z</time>
      </trkpt>
      <trkpt lat="43.45442" lon="6.0192">
        <ele>375.8</ele>
        <time>2017-06-10T07:02:05Z</time>
      </trkpt>
      <trkpt lat="43.45434" lon="6.01932">
        <ele>375.9</ele>
        <time>2017-06-10T07:02:08Z</time>
      </trkpt>
      <trkpt lat="43.45427" lon="6.01948">
        <ele>375.8</ele>
        <time>2017-06-10T07:02:11Z</time>
      </trkpt>
      <trkpt lat="43.45424" lon="6.01963">
        <ele>375.7</ele>
        <time>2017-06-10T07:02:13Z</time>
      </trkpt>
      <trkpt lat="43.45422" lon="6.0198">
        <ele>375.5</ele>
        <time>2017-06-10T07:02:15Z</time>
      </trkpt>
      <trkpt lat="43.45418" lon="6.01996">
        <ele>375.2</ele>
        <time>2017-06-10T07:02:17Z</time>
      </trkpt>
      <trkpt lat="43.45412" lon="6.02009">
        <ele>375</ele>
        <time>2017-06-10T07:02:19Z</time>
      </trkpt>
      <trkpt lat="43.45405" lon="6.02023">
        <ele>374.7</ele>
        <time>2017-06-10T07:02:21Z</time>
      </trkpt>
      <trkpt lat="43.45398" lon="6.02039">
        <ele>374.3</ele>
        <time>2017-06-10T07:02:23Z</time>
      </trkpt>
      <trkpt lat="43.45391" lon="6.02053">
        <ele>373.7</ele>
        <time>2017-06-10T07:02:25Z</time>
      </trkpt>
      <trkpt lat="43.45383" lon="6.02065">
        <ele>373.1</ele>
        <time>2017-06-10T07:02:27Z</time>
      </trkpt>
      <trkpt lat="43.45378" lon="6.02079">
        <ele>372.4</ele>
        <time>2017-06-10T07:02:29Z</time>
      </trkpt>
      <trkpt lat="43.45373" lon="6.02094">
        <ele>371.6</ele>
        <time>2017-06-10T07:02:31Z</time>
      </trkpt>
      <trkpt lat="43.45367" lon="6.02111">
        <ele>370.9</ele>
        <time>2017-06-10T07:02:33Z</time>
      </trkpt>
      <trkpt lat="43.45362" lon="6.02128">
        <ele>370</ele>
        <time>2017-06-10T07:02:35Z</time>
      </trkpt>
      <trkpt lat="43.45356" lon="6.02143">
        <ele>369</ele>
        <time>2017-06-10T07:02:37Z</time>
      </trkpt>
      <trkpt lat="43.45351" lon="6.02159">
        <ele>367.8</ele>
        <time>2017-06-10T07:02:39Z</time>
      </trkpt>
      <trkpt lat="43.45349" lon="6.02178">
        <ele>366.4</ele>
        <time>2017-06-10T07:02:41Z</time>
      </trkpt>
      <trkpt lat="43.45346" lon="6.02199">
        <ele>364.7</ele>
        <time>2017-06-10T07:02:43Z</time>
      </trkpt>
      <trkpt lat="43.4534" lon="6.02222">
        <ele>363.3</ele>
        <time>2017-06-10T07:02:45Z</time>
      </trkpt>
      <trkpt lat="43.45336" lon="6.02234">
        <ele>361.9</ele>
        <time>2017-06-10T07:02:46Z</time>
      </trkpt>
      <trkpt lat="43.45329" lon="6.02252">
        <ele>360.6</ele>
        <time>2017-06-10T07:02:48Z</time>
      </trkpt>
      <trkpt lat="43.45317" lon="6.02267">
        <ele>359.4</ele>
        <time>2017-06-10T07:02:50Z</time>
      </trkpt>
      <trkpt lat="43.45306" lon="6.02281">
        <ele>358.1</ele>
        <time>2017-06-10T07:02:52Z</time>
      </trkpt>
      <trkpt lat="43.45301" lon="6.02302">
        <ele>356.9</ele>
        <time>2017-06-10T07:02:54Z</time>
      </trkpt>
      <trkpt lat="43.45296" lon="6.02324">
        <ele>355.8</ele>
        <time>2017-06-10T07:02:56Z</time>
      </trkpt>
      <trkpt lat="43.45288" lon="6.02343">
        <ele>355</ele>
        <time>2017-06-10T07:02:58Z</time>
      </trkpt>
      <trkpt lat="43.45281" lon="6.02363">
        <ele>354.4</ele>
        <time>2017-06-10T07:03:00Z</time>
      </trkpt>
      <trkpt lat="43.45273" lon="6.02383">
        <ele>354.1</ele>
        <time>2017-06-10T07:03:02Z</time>
      </trkpt>
      <trkpt lat="43.45263" lon="6.02404">
        <ele>354.1</ele>
        <time>2017-06-10T07:03:04Z</time>
      </trkpt>
      <trkpt lat="43.45257" lon="6.02426">
        <ele>354.1</ele>
        <time>2017-06-10T07:03:06Z</time>
      </trkpt>
      <trkpt lat="43.45255" lon="6.02438">
        <ele>354</ele>
        <time>2017-06-10T07:03:07Z</time>
      </trkpt>
      <trkpt lat="43.45252" lon="6.02461">
        <ele>353.9</ele>
        <time>2017-06-10T07:03:09Z</time>
      </trkpt>
      <trkpt lat="43.45247" lon="6.02482">
        <ele>353.9</ele>
        <time>2017-06-10T07:03:11Z</time>
      </trkpt>
      <trkpt lat="43.45237" lon="6.02497">
        <ele>353.8</ele>
        <time>2017-06-10T07:03:13Z</time>
      </trkpt>
      <trkpt lat="43.45228" lon="6.02507">
        <ele>353.6</ele>
        <time>2017-06-10T07:03:15Z</time>
      </trkpt>
      <trkpt lat="43.45217" lon="6.02517">
        <ele>353.5</ele>
        <time>2017-06-10T07:03:17Z</time>
      </trkpt>
      <trkpt lat="43.45208" lon="6.0253">
        <ele>353.3</ele>
        <time>2017-06-10T07:03:19Z</time>
      </trkpt>
      <trkpt lat="43.45202" lon="6.02543">
        <ele>353</ele>
        <time>2017-06-10T07:03:21Z</time>
      </trkpt>
      <trkpt lat="43.45196" lon="6.02556">
        <ele>352.5</ele>
        <time>2017-06-10T07:03:23Z</time>
      </trkpt>
      <trkpt lat="43.45192" lon="6.02569">
        <ele>352</ele>
        <time>2017-06-10T07:03:25Z</time>
      </trkpt>
      <trkpt lat="43.45187" lon="6.02583">
        <ele>351.4</ele>
        <time>2017-06-10T07:03:27Z</time>
      </trkpt>
      <trkpt lat="43.45183" lon="6.02595">
        <ele>350.8</ele>
        <time>2017-06-10T07:03:29Z</time>
      </trkpt>
      <trkpt lat="43.4518" lon="6.02607">
        <ele>350.3</ele>
        <time>2017-06-10T07:03:31Z</time>
      </trkpt>
      <trkpt lat="43.45176" lon="6.02625">
        <ele>349.6</ele>
        <time>2017-06-10T07:03:34Z</time>
      </trkpt>
      <trkpt lat="43.45176" lon="6.0264">
        <ele>349.1</ele>
        <time>2017-06-10T07:03:36Z</time>
      </trkpt>
      <trkpt lat="43.45178" lon="6.02656">
        <ele>348.5</ele>
        <time>2017-06-10T07:03:38Z</time>
      </trkpt>
      <trkpt lat="43.45178" lon="6.02673">
        <ele>347.9</ele>
        <time>2017-06-10T07:03:40Z</time>
      </trkpt>
      <trkpt lat="43.45178" lon="6.02692">
        <ele>347.2</ele>
        <time>2017-06-10T07:03:42Z</time>
      </trkpt>
      <trkpt lat="43.45176" lon="6.02709">
        <ele>346.5</ele>
        <time>2017-06-10T07:03:44Z</time>
      </trkpt>
      <trkpt lat="43.45167" lon="6.02724">
        <ele>345.8</ele>
        <time>2017-06-10T07:03:46Z</time>
      </trkpt>
      <trkpt lat="43.45162" lon="6.0274">
        <ele>345.2</ele>
        <time>2017-06-10T07:03:48Z</time>
      </trkpt>
      <trkpt lat="43.45156" lon="6.02754">
        <ele>344.7</ele>
        <time>2017-06-10T07:03:50Z</time>
      </trkpt>
      <trkpt lat="43.45155" lon="6.02772">
        <ele>344.4</ele>
        <time>2017-06-10T07:03:52Z</time>
      </trkpt>
      <trkpt lat="43.45158" lon="6.02791">
        <ele>344</ele>
        <time>2017-06-10T07:03:54Z</time>
      </trkpt>
      <trkpt lat="43.45169" lon="6.02804">
        <ele>343.8</ele>
        <time>2017-06-10T07:03:56Z</time>
      </trkpt>
      <trkpt lat="43.45178" lon="6.02815">
        <ele>343.6</ele>
        <time>2017-06-10T07:03:58Z</time>
      </trkpt>
      <trkpt lat="43.45184" lon="6.02828">
        <ele>343.5</ele>
        <time>2017-06-10T07:04:00Z</time>
      </trkpt>
      <trkpt lat="43.45188" lon="6.02842">
        <ele>343.4</ele>
        <time>2017-06-10T07:04:02Z</time>
      </trkpt>
      <trkpt lat="43.45187" lon="6.02854">
        <ele>343.3</ele>
        <time>2017-06-10T07:04:04Z</time>
      </trkpt>
      <trkpt lat="43.45188" lon="6.02867">
        <ele>343.2</ele>
        <time>2017-06-10T07:04:06Z</time>
      </trkpt>
      <trkpt lat="43.45187" lon="6.02881">
        <ele>343</ele>
        <time>2017-06-10T07:04:08Z</time>
      </trkpt>
      <trkpt lat="43.45187" lon="6.02895">
        <ele>342.8</ele>
        <time>2017-06-10T07:04:10Z</time>
      </trkpt>
      <trkpt lat="43.45188" lon="6.02912">
        <ele>342.5</ele>
        <time>2017-06-10T07:04:12Z</time>
      </trkpt>
      <trkpt lat="43.45188" lon="6.02928">
        <ele>342.1</ele>
        <time>2017-06-10T07:04:14Z</time>
      </trkpt>
      <trkpt lat="43.45188" lon="6.02945">
        <ele>341.6</ele>
        <time>2017-06-10T07:04:16Z</time>
      </trkpt>
      <trkpt lat="43.45188" lon="6.0296">
        <ele>341</ele>
        <time>2017-06-10T07:04:18Z</time>
      </trkpt>
      <trkpt lat="43.45186" lon="6.02978">
        <ele>340.3</ele>
        <time>2017-06-10T07:04:20Z</time>
      </trkpt>
      <trkpt lat="43.45182" lon="6.02996">
        <ele>339.6</ele>
        <time>2017-06-10T07:04:22Z</time>
      </trkpt>
      <trkpt lat="43.45178" lon="6.03013">
        <ele>339.2</ele>
        <time>2017-06-10T07:04:24Z</time>
      </trkpt>
      <trkpt lat="43.45175" lon="6.03031">
        <ele>338.8</ele>
        <time>2017-06-10T07:04:26Z</time>
      </trkpt>
      <trkpt lat="43.45169" lon="6.03048">
        <ele>338.6</ele>
        <time>2017-06-10T07:04:28Z</time>
      </trkpt>
      <trkpt lat="43.45165" lon="6.03063">
        <ele>338.6</ele>
        <time>2017-06-10T07:04:30Z</time>
      </trkpt>
      <trkpt lat="43.4516" lon="6.03076">
        <ele>338.6</ele>
        <time>2017-06-10T07:04:32Z</time>
      </trkpt>
      <trkpt lat="43.45156" lon="6.03092">
        <ele>338.6</ele>
        <time>2017-06-10T07:04:34Z</time>
      </trkpt>
      <trkpt lat="43.45151" lon="6.03109">
        <ele>338.7</ele>
        <time>2017-06-10T07:04:36Z</time>
      </trkpt>
      <trkpt lat="43.45147" lon="6.03124">
        <ele>338.8</ele>
        <time>2017-06-10T07:04:38Z</time>
      </trkpt>
      <trkpt lat="43.45143" lon="6.0314">
        <ele>339</ele>
        <time>2017-06-10T07:04:40Z</time>
      </trkpt>
      <trkpt lat="43.45141" lon="6.03155">
        <ele>339.3</ele>
        <time>2017-06-10T07:04:42Z</time>
      </trkpt>
      <trkpt lat="43.45139" lon="6.03168">
        <ele>339.5</ele>
        <time>2017-06-10T07:04:44Z</time>
      </trkpt>
      <trkpt lat="43.45134" lon="6.03179">
        <ele>339.5</ele>
        <time>2017-06-10T07:04:46Z</time>
      </trkpt>
      <trkpt lat="43.45129" lon="6.03189">
        <ele>339.5</ele>
        <time>2017-06-10T07:04:48Z</time>
      </trkpt>
      <trkpt lat="43.45122" lon="6.03202">
        <ele>339.4</ele>
        <time>2017-06-10T07:04:50Z</time>
      </trkpt>
      <trkpt lat="43.45117" lon="6.03216">
        <ele>339.1</ele>
        <time>2017-06-10T07:04:52Z</time>
      </trkpt>
      <trkpt lat="43.45111" lon="6.03228">
        <ele>338.9</ele>
        <time>2017-06-10T07:04:54Z</time>
      </trkpt>
      <trkpt lat="43.45105" lon="6.0324">
        <ele>338.7</ele>
        <time>2017-06-10T07:04:56Z</time>
      </trkpt>
      <trkpt lat="43.45099" lon="6.03251">
        <ele>338.5</ele>
        <time>2017-06-10T07:04:58Z</time>
      </trkpt>
      <trkpt lat="43.45094" lon="6.03264">
        <ele>338.4</ele>
        <time>2017-06-10T07:05:00Z</time>
      </trkpt>
      <trkpt lat="43.45091" lon="6.03277">
        <ele>338.2</ele>
        <time>2017-06-10T07:05:02Z</time>
      </trkpt>
      <trkpt lat="43.45089" lon="6.03289">
        <ele>337.9</ele>
        <time>2017-06-10T07:05:04Z</time>
      </trkpt>
      <trkpt lat="43.45085" lon="6.03301">
        <ele>337.8</ele>
        <time>2017-06-10T07:05:06Z</time>
      </trkpt>
      <trkpt lat="43.45078" lon="6.03317">
        <ele>337.8</ele>
        <time>2017-06-10T07:05:09Z</time>
      </trkpt>
      <trkpt lat="43.45072" lon="6.03329">
        <ele>337.9</ele>
        <time>2017-06-10T07:05:11Z</time>
      </trkpt>
      <trkpt lat="43.45065" lon="6.03341">
        <ele>338.1</ele>
        <time>2017-06-10T07:05:13Z</time>
      </trkpt>
      <trkpt lat="43.45059" lon="6.03354">
        <ele>338.3</ele>
        <time>2017-06-10T07:05:15Z</time>
      </trkpt>
      <trkpt lat="43.45058" lon="6.03368">
        <ele>338.4</ele>
        <time>2017-06-10T07:05:17Z</time>
      </trkpt>
      <trkpt lat="43.45056" lon="6.03382">
        <ele>338.5</ele>
        <time>2017-06-10T07:05:19Z</time>
      </trkpt>
      <trkpt lat="43.45053" lon="6.03397">
        <ele>338.5</ele>
        <time>2017-06-10T07:05:21Z</time>
      </trkpt>
      <trkpt lat="43.45051" lon="6.03412">
        <ele>338.5</ele>
        <time>2017-06-10T07:05:23Z</time>
      </trkpt>
      <trkpt lat="43.45049" lon="6.03426">
        <ele>338.4</ele>
        <time>2017-06-10T07:05:25Z</time>
      </trkpt>
      <trkpt lat="43.45047" lon="6.0344">
        <ele>338.2</ele>
        <time>2017-06-10T07:05:27Z</time>
      </trkpt>
      <trkpt lat="43.45045" lon="6.03456">
        <ele>337.8</ele>
        <time>2017-06-10T07:05:29Z</time>
      </trkpt>
      <trkpt lat="43.45041" lon="6.03471">
        <ele>337.3</ele>
        <time>2017-06-10T07:05:31Z</time>
      </trkpt>
      <trkpt lat="43.45039" lon="6.03485">
        <ele>336.5</ele>
        <time>2017-06-10T07:05:33Z</time>
      </trkpt>
      <trkpt lat="43.45036" lon="6.03499">
        <ele>335.7</ele>
        <time>2017-06-10T07:05:35Z</time>
      </trkpt>
      <trkpt lat="43.45033" lon="6.03514">
        <ele>334.8</ele>
        <time>2017-06-10T07:05:37Z</time>
      </trkpt>
      <trkpt lat="43.45029" lon="6.03528">
        <ele>333.9</ele>
        <time>2017-06-10T07:05:39Z</time>
      </trkpt>
      <trkpt lat="43.45026" lon="6.03542">
        <ele>333</ele>
        <time>2017-06-10T07:05:41Z</time>
      </trkpt>
      <trkpt lat="43.45015" lon="6.03548">
        <ele>332.2</ele>
        <time>2017-06-10T07:05:43Z</time>
      </trkpt>
      <trkpt lat="43.45004" lon="6.03552">
        <ele>331.3</ele>
        <time>2017-06-10T07:06:00Z</time>
      </trkpt>
      <trkpt lat="43.44997" lon="6.03559">
        <ele>330.5</ele>
        <time>2017-06-10T07:06:03Z</time>
      </trkpt>
      <trkpt lat="43.44989" lon="6.03566">
        <ele>329.8</ele>
        <time>2017-06-10T07:06:06Z</time>
      </trkpt>
      <trkpt lat="43.44981" lon="6.03575">
        <ele>329.1</ele>
        <time>2017-06-10T07:06:09Z</time>
      </trkpt>
      <trkpt lat="43.44973" lon="6.0358">
        <ele>328.4</ele>
        <time>2017-06-10T07:06:12Z</time>
      </trkpt>
      <trkpt lat="43.44963" lon="6.03574">
        <ele>327.8</ele>
        <time>2017-06-10T07:06:15Z</time>
      </trkpt>
      <trkpt lat="43.44953" lon="6.03563">
        <ele>327.5</ele>
        <time>2017-06-10T07:06:18Z</time>
      </trkpt>
      <trkpt lat="43.44941" lon="6.03557">
        <ele>327.2</ele>
        <time>2017-06-10T07:06:21Z</time>
      </trkpt>
      <trkpt lat="43.4493" lon="6.03558">
        <ele>326.9</ele>
        <time>2017-06-10T07:06:23Z</time>
      </trkpt>
      <trkpt lat="43.44921" lon="6.03563">
        <ele>326.7</ele>
        <time>2017-06-10T07:06:25Z</time>
      </trkpt>
      <trkpt lat="43.44911" lon="6.03566">
        <ele>326.6</ele>
        <time>2017-06-10T07:06:29Z</time>
      </trkpt>
      <trkpt lat="43.44902" lon="6.03568">
        <ele>326.5</ele>
        <time>2017-06-10T07:07:04Z</time>
      </trkpt>
      <trkpt lat="43.44893" lon="6.03561">
        <ele>326.4</ele>
        <time>2017-06-10T07:07:08Z</time>
      </trkpt>
      <trkpt lat="43.44883" lon="6.03555">
        <ele>326.1</ele>
        <time>2017-06-10T07:07:12Z</time>
      </trkpt>
      <trkpt lat="43.44874" lon="6.03548">
        <ele>326</ele>
        <time>2017-06-10T07:07:16Z</time>
      </trkpt>
      <trkpt lat="43.44863" lon="6.03545">
        <ele>326.1</ele>
        <time>2017-06-10T07:07:20Z</time>
      </trkpt>
      <trkpt lat="43.44853" lon="6.03544">
        <ele>326.2</ele>
        <time>2017-06-10T07:07:23Z</time>
      </trkpt>
      <trkpt lat="43.44843" lon="6.03544">
        <ele>326.3</ele>
        <time>2017-06-10T07:07:26Z</time>
      </trkpt>
      <trkpt lat="43.44832" lon="6.03549">
        <ele>326.4</ele>
        <time>2017-06-10T07:07:30Z</time>
      </trkpt>
      <trkpt lat="43.44825" lon="6.03557">
        <ele>326.4</ele>
        <time>2017-06-10T07:07:33Z</time>
      </trkpt>
      <trkpt lat="43.44817" lon="6.03565">
        <ele>326.3</ele>
        <time>2017-06-10T07:07:36Z</time>
      </trkpt>
      <trkpt lat="43.44809" lon="6.03572">
        <ele>326.1</ele>
        <time>2017-06-10T07:07:39Z</time>
      </trkpt>
      <trkpt lat="43.44801" lon="6.03578">
        <ele>326.1</ele>
        <time>2017-06-10T07:07:42Z</time>
      </trkpt>
      <trkpt lat="43.44791" lon="6.03581">
        <ele>326.5</ele>
        <time>2017-06-10T07:07:45Z</time>
      </trkpt>
      <trkpt lat="43.44782" lon="6.03584">
        <ele>327.1</ele>
        <time>2017-06-10T07:07:49Z</time>
      </trkpt>
      <trkpt lat="43.44771" lon="6.03583">
        <ele>327.8</ele>
        <time>2017-06-10T07:07:53Z</time>
      </trkpt>
      <trkpt lat="43.4476" lon="6.03579">
        <ele>328.5</ele>
        <time>2017-06-10T07:07:57Z</time>
      </trkpt>
      <trkpt lat="43.44749" lon="6.03577">
        <ele>329.1</ele>
        <time>2017-06-10T07:08:01Z</time>
      </trkpt>
      <trkpt lat="43.44736" lon="6.03572">
        <ele>329.5</ele>
        <time>2017-06-10T07:08:04Z</time>
      </trkpt>
      <trkpt lat="43.44727" lon="6.03566">
        <ele>329.8</ele>
        <time>2017-06-10T07:08:07Z</time>
      </trkpt>
      <trkpt lat="43.44722" lon="6.03555">
        <ele>330.1</ele>
        <time>2017-06-10T07:08:11Z</time>
      </trkpt>
      <trkpt lat="43.4472" lon="6.03539">
        <ele>330.3</ele>
        <time>2017-06-10T07:08:15Z</time>
      </trkpt>
      <trkpt lat="43.44717" lon="6.03525">
        <ele>330.3</ele>
        <time>2017-06-10T07:08:18Z</time>
      </trkpt>
      <trkpt lat="43.44716" lon="6.03512">
        <ele>330.2</ele>
        <time>2017-06-10T07:08:21Z</time>
      </trkpt>
      <trkpt lat="43.44714" lon="6.03497">
        <ele>329.7</ele>
        <time>2017-06-10T07:08:25Z</time>
      </trkpt>
      <trkpt lat="43.44713" lon="6.03483">
        <ele>329.1</ele>
        <time>2017-06-10T07:08:29Z</time>
      </trkpt>
      <trkpt lat="43.44712" lon="6.0347">
        <ele>328.4</ele>
        <time>2017-06-10T07:08:33Z</time>
      </trkpt>
      <trkpt lat="43.44709" lon="6.03456">
        <ele>327.6</ele>
        <time>2017-06-10T07:08:38Z</time>
      </trkpt>
      <trkpt lat="43.44699" lon="6.03449">
        <ele>326.9</ele>
        <time>2017-06-10T07:08:41Z</time>
      </trkpt>
      <trkpt lat="43.44688" lon="6.03447">
        <ele>326.4</ele>
        <time>2017-06-10T07:08:44Z</time>
      </trkpt>
      <trkpt lat="43.44678" lon="6.03446">
        <ele>326.2</ele>
        <time>2017-06-10T07:08:47Z</time>
      </trkpt>
      <trkpt lat="43.44663" lon="6.03449">
        <ele>326.2</ele>
        <time>2017-06-10T07:08:50Z</time>
      </trkpt>
      <trkpt lat="43.44653" lon="6.03452">
        <ele>326.4</ele>
        <time>2017-06-10T07:08:52Z</time>
      </trkpt>
      <trkpt lat="43.44644" lon="6.03456">
        <ele>326.8</ele>
        <time>2017-06-10T07:08:54Z</time>
      </trkpt>
      <trkpt lat="43.44634" lon="6.03465">
        <ele>327.3</ele>
        <time>2017-06-10T07:08:57Z</time>
      </trkpt>
      <trkpt lat="43.44626" lon="6.03474">
        <ele>327.9</ele>
        <time>2017-06-10T07:09:00Z</time>
      </trkpt>
      <trkpt lat="43.44618" lon="6.0348">
        <ele>328.5</ele>
        <time>2017-06-10T07:09:04Z</time>
      </trkpt>
      <trkpt lat="43.44609" lon="6.03486">
        <ele>329.1</ele>
        <time>2017-06-10T07:09:08Z</time>
      </trkpt>
      <trkpt lat="43.446" lon="6.03495">
        <ele>329.6</ele>
        <time>2017-06-10T07:09:12Z</time>
      </trkpt>
      <trkpt lat="43.44591" lon="6.03503">
        <ele>330</ele>
        <time>2017-06-10T07:09:16Z</time>
      </trkpt>
      <trkpt lat="43.44583" lon="6.03512">
        <ele>330.1</ele>
        <time>2017-06-10T07:09:20Z</time>
      </trkpt>
      <trkpt lat="43.44575" lon="6.03521">
        <ele>329.7</ele>
        <time>2017-06-10T07:09:24Z</time>
      </trkpt>
      <trkpt lat="43.44567" lon="6.03528">
        <ele>329.1</ele>
        <time>2017-06-10T07:09:27Z</time>
      </trkpt>
      <trkpt lat="43.44559" lon="6.03535">
        <ele>328.4</ele>
        <time>2017-06-10T07:09:30Z</time>
      </trkpt>
      <trkpt lat="43.4455" lon="6.03541">
        <ele>327.4</ele>
        <time>2017-06-10T07:09:33Z</time>
      </trkpt>
      <trkpt lat="43.4454" lon="6.03545">
        <ele>326.5</ele>
        <time>2017-06-10T07:09:36Z</time>
      </trkpt>
      <trkpt lat="43.44529" lon="6.0355">
        <ele>325.5</ele>
        <time>2017-06-10T07:09:39Z</time>
      </trkpt>
      <trkpt lat="43.44515" lon="6.03554">
        <ele>324.4</ele>
        <time>2017-06-10T07:09:42Z</time>
      </trkpt>
      <trkpt lat="43.44505" lon="6.03558">
        <ele>323.4</ele>
        <time>2017-06-10T07:09:44Z</time>
      </trkpt>
      <trkpt lat="43.44494" lon="6.0356">
        <ele>322.3</ele>
        <time>2017-06-10T07:09:46Z</time>
      </trkpt>
      <trkpt lat="43.44483" lon="6.03568">
        <ele>321.4</ele>
        <time>2017-06-10T07:09:48Z</time>
      </trkpt>
      <trkpt lat="43.44472" lon="6.03575">
        <ele>320.6</ele>
        <time>2017-06-10T07:09:50Z</time>
      </trkpt>
      <trkpt lat="43.44461" lon="6.0358">
        <ele>320.2</ele>
        <time>2017-06-10T07:09:52Z</time>
      </trkpt>
      <trkpt lat="43.44451" lon="6.03587">
        <ele>319.9</ele>
        <time>2017-06-10T07:09:54Z</time>
      </trkpt>
      <trkpt lat="43.44439" lon="6.03591">
        <ele>319.5</ele>
        <time>2017-06-10T07:09:56Z</time>
      </trkpt>
      <trkpt lat="43.44427" lon="6.03601">
        <ele>319.3</ele>
        <time>2017-06-10T07:09:58Z</time>
      </trkpt>
      <trkpt lat="43.44416" lon="6.0361">
        <ele>319.1</ele>
        <time>2017-06-10T07:10:02Z</time>
      </trkpt>
      <trkpt lat="43.44406" lon="6.03619">
        <ele>319</ele>
        <time>2017-06-10T07:10:05Z</time>
      </trkpt>
      <trkpt lat="43.44396" lon="6.03629">
        <ele>319.2</ele>
        <time>2017-06-10T07:10:08Z</time>
      </trkpt>
      <trkpt lat="43.44387" lon="6.03632">
        <ele>319.4</ele>
        <time>2017-06-10T07:10:13Z</time>
      </trkpt>
      <trkpt lat="43.44382" lon="6.03644">
        <ele>319.5</ele>
        <time>2017-06-10T07:10:18Z</time>
      </trkpt>
      <trkpt lat="43.44391" lon="6.03636">
        <ele>319.7</ele>
        <time>2017-06-10T07:10:37Z</time>
      </trkpt>
      <trkpt lat="43.444" lon="6.03632">
        <ele>319.9</ele>
        <time>2017-06-10T07:10:43Z</time>
      </trkpt>
      <trkpt lat="43.44409" lon="6.03631">
        <ele>320.1</ele>
        <time>2017-06-10T07:10:50Z</time>
      </trkpt>
      <trkpt lat="43.44416" lon="6.03623">
        <ele>320.3</ele>
        <time>2017-06-10T07:11:05Z</time>
      </trkpt>
      <trkpt lat="43.44424" lon="6.03614">
        <ele>320.6</ele>
        <time>2017-06-10T07:11:13Z</time>
      </trkpt>
      <trkpt lat="43.44433" lon="6.03606">
        <ele>320.9</ele>
        <time>2017-06-10T07:11:17Z</time>
      </trkpt>
      <trkpt lat="43.4444" lon="6.03598">
        <ele>321.1</ele>
        <time>2017-06-10T07:11:21Z</time>
      </trkpt>
      <trkpt lat="43.44449" lon="6.03591">
        <ele>321.2</ele>
        <time>2017-06-10T07:11:25Z</time>
      </trkpt>
      <trkpt lat="43.44459" lon="6.03586">
        <ele>321.2</ele>
        <time>2017-06-10T07:11:29Z</time>
      </trkpt>
      <trkpt lat="43.44469" lon="6.03579">
        <ele>321.4</ele>
        <time>2017-06-10T07:11:34Z</time>
      </trkpt>
      <trkpt lat="43.44478" lon="6.03573">
        <ele>321.6</ele>
        <time>2017-06-10T07:11:39Z</time>
      </trkpt>
      <trkpt lat="43.44487" lon="6.03567">
        <ele>322.1</ele>
        <time>2017-06-10T07:11:44Z</time>
      </trkpt>
      <trkpt lat="43.44497" lon="6.03561">
        <ele>322.6</ele>
        <time>2017-06-10T07:11:49Z</time>
      </trkpt>
      <trkpt lat="43.44506" lon="6.03558">
        <ele>323.5</ele>
        <time>2017-06-10T07:11:54Z</time>
      </trkpt>
      <trkpt lat="43.44516" lon="6.03557">
        <ele>324.4</ele>
        <time>2017-06-10T07:11:59Z</time>
      </trkpt>
      <trkpt lat="43.44526" lon="6.03554">
        <ele>325.4</ele>
        <time>2017-06-10T07:12:05Z</time>
      </trkpt>
      <trkpt lat="43.44535" lon="6.03549">
        <ele>326.5</ele>
        <time>2017-06-10T07:12:13Z</time>
      </trkpt>
      <trkpt lat="43.44543" lon="6.03541">
        <ele>327.5</ele>
        <time>2017-06-10T07:12:19Z</time>
      </trkpt>
      <trkpt lat="43.44552" lon="6.03538">
        <ele>328.5</ele>
        <time>2017-06-10T07:12:27Z</time>
      </trkpt>
      <trkpt lat="43.44562" lon="6.03533">
        <ele>329.3</ele>
        <time>2017-06-10T07:12:33Z</time>
      </trkpt>
      <trkpt lat="43.44571" lon="6.03526">
        <ele>329.9</ele>
        <time>2017-06-10T07:12:39Z</time>
      </trkpt>
      <trkpt lat="43.44579" lon="6.03518">
        <ele>330.5</ele>
        <time>2017-06-10T07:12:45Z</time>
      </trkpt>
      <trkpt lat="43.44588" lon="6.0351">
        <ele>330.6</ele>
        <time>2017-06-10T07:12:51Z</time>
      </trkpt>
      <trkpt lat="43.44596" lon="6.03502">
        <ele>330.6</ele>
        <time>2017-06-10T07:12:55Z</time>
      </trkpt>
      <trkpt lat="43.44604" lon="6.03495">
        <ele>330.2</ele>
        <time>2017-06-10T07:12:59Z</time>
      </trkpt>
      <trkpt lat="43.44612" lon="6.03489">
        <ele>329.5</ele>
        <time>2017-06-10T07:13:03Z</time>
      </trkpt>
      <trkpt lat="43.44621" lon="6.03482">
        <ele>328.8</ele>
        <time>2017-06-10T07:13:07Z</time>
      </trkpt>
      <trkpt lat="43.4463" lon="6.03473">
        <ele>328.1</ele>
        <time>2017-06-10T07:13:12Z</time>
      </trkpt>
      <trkpt lat="43.44639" lon="6.03464">
        <ele>327.5</ele>
        <time>2017-06-10T07:13:16Z</time>
      </trkpt>
      <trkpt lat="43.44648" lon="6.03456">
        <ele>326.8</ele>
        <time>2017-06-10T07:13:20Z</time>
      </trkpt>
      <trkpt lat="43.44658" lon="6.03447">
        <ele>326.4</ele>
        <time>2017-06-10T07:13:24Z</time>
      </trkpt>
      <trkpt lat="43.44669" lon="6.03445">
        <ele>326.1</ele>
        <time>2017-06-10T07:13:28Z</time>
      </trkpt>
      <trkpt lat="43.44679" lon="6.03447">
        <ele>326.1</ele>
        <time>2017-06-10T07:13:33Z</time>
      </trkpt>
      <trkpt lat="43.44689" lon="6.03446">
        <ele>326.4</ele>
        <time>2017-06-10T07:13:40Z</time>
      </trkpt>
      <trkpt lat="43.44699" lon="6.03447">
        <ele>326.8</ele>
        <time>2017-06-10T07:13:46Z</time>
      </trkpt>
      <trkpt lat="43.44708" lon="6.03454">
        <ele>327.5</ele>
        <time>2017-06-10T07:13:51Z</time>
      </trkpt>
      <trkpt lat="43.44711" lon="6.03469">
        <ele>328.4</ele>
        <time>2017-06-10T07:13:55Z</time>
      </trkpt>
      <trkpt lat="43.44713" lon="6.03488">
        <ele>329.1</ele>
        <time>2017-06-10T07:13:58Z</time>
      </trkpt>
      <trkpt lat="43.44714" lon="6.03502">
        <ele>329.5</ele>
        <time>2017-06-10T07:14:00Z</time>
      </trkpt>
      <trkpt lat="43.44715" lon="6.03518">
        <ele>329.7</ele>
        <time>2017-06-10T07:14:02Z</time>
      </trkpt>
      <trkpt lat="43.44718" lon="6.03534">
        <ele>329.8</ele>
        <time>2017-06-10T07:14:05Z</time>
      </trkpt>
      <trkpt lat="43.44722" lon="6.0355">
        <ele>329.8</ele>
        <time>2017-06-10T07:14:08Z</time>
      </trkpt>
      <trkpt lat="43.44726" lon="6.03563">
        <ele>329.7</ele>
        <time>2017-06-10T07:14:12Z</time>
      </trkpt>
      <trkpt lat="43.44734" lon="6.03569">
        <ele>329.5</ele>
        <time>2017-06-10T07:14:14Z</time>
      </trkpt>
      <trkpt lat="43.44745" lon="6.03574">
        <ele>329</ele>
        <time>2017-06-10T07:14:17Z</time>
      </trkpt>
      <trkpt lat="43.44757" lon="6.03577">
        <ele>328.5</ele>
        <time>2017-06-10T07:14:20Z</time>
      </trkpt>
      <trkpt lat="43.44766" lon="6.03583">
        <ele>327.7</ele>
        <time>2017-06-10T07:14:23Z</time>
      </trkpt>
      <trkpt lat="43.44775" lon="6.03587">
        <ele>327</ele>
        <time>2017-06-10T07:14:26Z</time>
      </trkpt>
      <trkpt lat="43.44786" lon="6.03584">
        <ele>326.4</ele>
        <time>2017-06-10T07:14:29Z</time>
      </trkpt>
      <trkpt lat="43.44799" lon="6.03577">
        <ele>326</ele>
        <time>2017-06-10T07:14:32Z</time>
      </trkpt>
      <trkpt lat="43.44809" lon="6.0357">
        <ele>326</ele>
        <time>2017-06-10T07:14:35Z</time>
      </trkpt>
      <trkpt lat="43.4482" lon="6.03561">
        <ele>326.1</ele>
        <time>2017-06-10T07:14:38Z</time>
      </trkpt>
      <trkpt lat="43.44831" lon="6.03552">
        <ele>326.2</ele>
        <time>2017-06-10T07:14:41Z</time>
      </trkpt>
      <trkpt lat="43.4484" lon="6.03545">
        <ele>326.1</ele>
        <time>2017-06-10T07:14:44Z</time>
      </trkpt>
      <trkpt lat="43.44852" lon="6.03541">
        <ele>326</ele>
        <time>2017-06-10T07:14:47Z</time>
      </trkpt>
      <trkpt lat="43.44863" lon="6.03542">
        <ele>325.9</ele>
        <time>2017-06-10T07:14:50Z</time>
      </trkpt>
      <trkpt lat="43.44873" lon="6.03544">
        <ele>325.8</ele>
        <time>2017-06-10T07:14:53Z</time>
      </trkpt>
      <trkpt lat="43.44882" lon="6.03549">
        <ele>325.9</ele>
        <time>2017-06-10T07:14:56Z</time>
      </trkpt>
      <trkpt lat="43.44892" lon="6.03556">
        <ele>326</ele>
        <time>2017-06-10T07:14:59Z</time>
      </trkpt>
      <trkpt lat="43.44901" lon="6.03564">
        <ele>326.1</ele>
        <time>2017-06-10T07:15:03Z</time>
      </trkpt>
      <trkpt lat="43.44909" lon="6.03568">
        <ele>326.1</ele>
        <time>2017-06-10T07:15:08Z</time>
      </trkpt>
      <trkpt lat="43.44921" lon="6.03567">
        <ele>326</ele>
        <time>2017-06-10T07:15:13Z</time>
      </trkpt>
      <trkpt lat="43.44931" lon="6.03572">
        <ele>325.9</ele>
        <time>2017-06-10T07:15:18Z</time>
      </trkpt>
      <trkpt lat="43.44937" lon="6.03581">
        <ele>325.8</ele>
        <time>2017-06-10T07:15:22Z</time>
      </trkpt>
      <trkpt lat="43.4494" lon="6.03592">
        <ele>325.9</ele>
        <time>2017-06-10T07:15:27Z</time>
      </trkpt>
      <trkpt lat="43.44942" lon="6.03605">
        <ele>326.1</ele>
        <time>2017-06-10T07:15:32Z</time>
      </trkpt>
      <trkpt lat="43.44941" lon="6.0362">
        <ele>326.4</ele>
        <time>2017-06-10T07:15:37Z</time>
      </trkpt>
      <trkpt lat="43.44942" lon="6.03632">
        <ele>326.7</ele>
        <time>2017-06-10T07:15:41Z</time>
      </trkpt>
      <trkpt lat="43.44944" lon="6.03647">
        <ele>327.2</ele>
        <time>2017-06-10T07:15:46Z</time>
      </trkpt>
      <trkpt lat="43.44945" lon="6.03662">
        <ele>327.8</ele>
        <time>2017-06-10T07:15:51Z</time>
      </trkpt>
      <trkpt lat="43.44947" lon="6.03675">
        <ele>328.5</ele>
        <time>2017-06-10T07:15:55Z</time>
      </trkpt>
      <trkpt lat="43.44949" lon="6.03688">
        <ele>329.3</ele>
        <time>2017-06-10T07:15:59Z</time>
      </trkpt>
      <trkpt lat="43.44944" lon="6.03703">
        <ele>330.1</ele>
        <time>2017-06-10T07:16:03Z</time>
      </trkpt>
      <trkpt lat="43.44939" lon="6.03714">
        <ele>330.9</ele>
        <time>2017-06-10T07:16:07Z</time>
      </trkpt>
      <trkpt lat="43.44933" lon="6.03725">
        <ele>331.8</ele>
        <time>2017-06-10T07:16:12Z</time>
      </trkpt>
      <trkpt lat="43.44927" lon="6.03734">
        <ele>332.6</ele>
        <time>2017-06-10T07:16:16Z</time>
      </trkpt>
      <trkpt lat="43.44924" lon="6.03748">
        <ele>333.5</ele>
        <time>2017-06-10T07:16:21Z</time>
      </trkpt>
      <trkpt lat="43.44923" lon="6.03761">
        <ele>334.4</ele>
        <time>2017-06-10T07:16:26Z</time>
      </trkpt>
      <trkpt lat="43.44922" lon="6.03775">
        <ele>335.2</ele>
        <time>2017-06-10T07:16:31Z</time>
      </trkpt>
      <trkpt lat="43.44921" lon="6.0379">
        <ele>335.9</ele>
        <time>2017-06-10T07:16:36Z</time>
      </trkpt>
      <trkpt lat="43.44918" lon="6.03805">
        <ele>336.5</ele>
        <time>2017-06-10T07:16:41Z</time>
      </trkpt>
      <trkpt lat="43.44916" lon="6.03817">
        <ele>337</ele>
        <time>2017-06-10T07:16:45Z</time>
      </trkpt>
      <trkpt lat="43.44912" lon="6.03828">
        <ele>337.7</ele>
        <time>2017-06-10T07:16:49Z</time>
      </trkpt>
      <trkpt lat="43.44909" lon="6.03842">
        <ele>338.5</ele>
        <time>2017-06-10T07:16:54Z</time>
      </trkpt>
      <trkpt lat="43.44906" lon="6.03854">
        <ele>339.4</ele>
        <time>2017-06-10T07:16:58Z</time>
      </trkpt>
      <trkpt lat="43.44903" lon="6.03868">
        <ele>340.3</ele>
        <time>2017-06-10T07:17:03Z</time>
      </trkpt>
      <trkpt lat="43.44901" lon="6.03883">
        <ele>341.4</ele>
        <time>2017-06-10T07:17:08Z</time>
      </trkpt>
      <trkpt lat="43.44899" lon="6.03898">
        <ele>342.5</ele>
        <time>2017-06-10T07:17:13Z</time>
      </trkpt>
      <trkpt lat="43.44899" lon="6.03912">
        <ele>343.5</ele>
        <time>2017-06-10T07:17:18Z</time>
      </trkpt>
      <trkpt lat="43.44898" lon="6.03927">
        <ele>344.5</ele>
        <time>2017-06-10T07:17:23Z</time>
      </trkpt>
      <trkpt lat="43.44897" lon="6.03942">
        <ele>345.4</ele>
        <time>2017-06-10T07:17:28Z</time>
      </trkpt>
      <trkpt lat="43.44896" lon="6.03956">
        <ele>346.3</ele>
        <time>2017-06-10T07:17:33Z</time>
      </trkpt>
      <trkpt lat="43.44896" lon="6.03969">
        <ele>347.1</ele>
        <time>2017-06-10T07:17:38Z</time>
      </trkpt>
      <trkpt lat="43.44895" lon="6.03981">
        <ele>347.8</ele>
        <time>2017-06-10T07:17:43Z</time>
      </trkpt>
      <trkpt lat="43.44895" lon="6.03995">
        <ele>348.5</ele>
        <time>2017-06-10T07:17:48Z</time>
      </trkpt>
      <trkpt lat="43.44893" lon="6.04007">
        <ele>349</ele>
        <time>2017-06-10T07:17:54Z</time>
      </trkpt>
      <trkpt lat="43.44889" lon="6.04018">
        <ele>349.5</ele>
        <time>2017-06-10T07:21:10Z</time>
      </trkpt>
      <trkpt lat="43.44887" lon="6.04032">
        <ele>349.8</ele>
        <time>2017-06-10T07:21:14Z</time>
      </trkpt>
      <trkpt lat="43.44886" lon="6.04044">
        <ele>350.2</ele>
        <time>2017-06-10T07:21:18Z</time>
      </trkpt>
      <trkpt lat="43.44884" lon="6.0406">
        <ele>350.6</ele>
        <time>2017-06-10T07:21:23Z</time>
      </trkpt>
      <trkpt lat="43.44881" lon="6.04073">
        <ele>351.3</ele>
        <time>2017-06-10T07:21:28Z</time>
      </trkpt>
      <trkpt lat="43.44878" lon="6.04085">
        <ele>352</ele>
        <time>2017-06-10T07:21:33Z</time>
      </trkpt>
      <trkpt lat="43.44873" lon="6.04096">
        <ele>352.8</ele>
        <time>2017-06-10T07:21:38Z</time>
      </trkpt>
      <trkpt lat="43.44866" lon="6.04106">
        <ele>353.6</ele>
        <time>2017-06-10T07:21:44Z</time>
      </trkpt>
      <trkpt lat="43.44859" lon="6.04116">
        <ele>354.5</ele>
        <time>2017-06-10T07:21:51Z</time>
      </trkpt>
      <trkpt lat="43.44851" lon="6.04124">
        <ele>355.4</ele>
        <time>2017-06-10T07:21:59Z</time>
      </trkpt>
      <trkpt lat="43.44846" lon="6.04136">
        <ele>356.3</ele>
        <time>2017-06-10T07:22:17Z</time>
      </trkpt>
      <trkpt lat="43.44842" lon="6.04148">
        <ele>357.4</ele>
        <time>2017-06-10T07:22:23Z</time>
      </trkpt>
      <trkpt lat="43.44839" lon="6.0416">
        <ele>358.5</ele>
        <time>2017-06-10T07:22:29Z</time>
      </trkpt>
      <trkpt lat="43.44836" lon="6.04172">
        <ele>359.5</ele>
        <time>2017-06-10T07:22:35Z</time>
      </trkpt>
      <trkpt lat="43.44835" lon="6.04186">
        <ele>360.6</ele>
        <time>2017-06-10T07:22:41Z</time>
      </trkpt>
      <trkpt lat="43.44833" lon="6.042">
        <ele>361.7</ele>
        <time>2017-06-10T07:22:46Z</time>
      </trkpt>
      <trkpt lat="43.4483" lon="6.04214">
        <ele>362.8</ele>
        <time>2017-06-10T07:22:51Z</time>
      </trkpt>
      <trkpt lat="43.44829" lon="6.04227">
        <ele>364</ele>
        <time>2017-06-10T07:22:56Z</time>
      </trkpt>
      <trkpt lat="43.44829" lon="6.0424">
        <ele>365.3</ele>
        <time>2017-06-10T07:23:02Z</time>
      </trkpt>
      <trkpt lat="43.44829" lon="6.04254">
        <ele>366.5</ele>
        <time>2017-06-10T07:23:09Z</time>
      </trkpt>
      <trkpt lat="43.44832" lon="6.04266">
        <ele>367.7</ele>
        <time>2017-06-10T07:23:16Z</time>
      </trkpt>
      <trkpt lat="43.44833" lon="6.0428">
        <ele>368.8</ele>
        <time>2017-06-10T07:23:24Z</time>
      </trkpt>
      <trkpt lat="43.44833" lon="6.04293">
        <ele>369.7</ele>
        <time>2017-06-10T07:23:32Z</time>
      </trkpt>
      <trkpt lat="43.44831" lon="6.04305">
        <ele>370.5</ele>
        <time>2017-06-10T07:23:40Z</time>
      </trkpt>
      <trkpt lat="43.44828" lon="6.04318">
        <ele>371.3</ele>
        <time>2017-06-10T07:23:47Z</time>
      </trkpt>
      <trkpt lat="43.44826" lon="6.04331">
        <ele>372</ele>
        <time>2017-06-10T07:23:54Z</time>
      </trkpt>
      <trkpt lat="43.44825" lon="6.04344">
        <ele>372.7</ele>
        <time>2017-06-10T07:24:01Z</time>
      </trkpt>
      <trkpt lat="43.44823" lon="6.04358">
        <ele>373.5</ele>
        <time>2017-06-10T07:24:08Z</time>
      </trkpt>
      <trkpt lat="43.44821" lon="6.04371">
        <ele>374.1</ele>
        <time>2017-06-10T07:24:15Z</time>
      </trkpt>
      <trkpt lat="43.44818" lon="6.04384">
        <ele>374.7</ele>
        <time>2017-06-10T07:24:22Z</time>
      </trkpt>
      <trkpt lat="43.44814" lon="6.04396">
        <ele>375.4</ele>
        <time>2017-06-10T07:24:29Z</time>
      </trkpt>
      <trkpt lat="43.4481" lon="6.04409">
        <ele>376.1</ele>
        <time>2017-06-10T07:24:36Z</time>
      </trkpt>
      <trkpt lat="43.44805" lon="6.0442">
        <ele>376.8</ele>
        <time>2017-06-10T07:24:43Z</time>
      </trkpt>
      <trkpt lat="43.44804" lon="6.04433">
        <ele>377.5</ele>
        <time>2017-06-10T07:24:50Z</time>
      </trkpt>
      <trkpt lat="43.448" lon="6.04445">
        <ele>378.3</ele>
        <time>2017-06-10T07:24:56Z</time>
      </trkpt>
      <trkpt lat="43.44798" lon="6.04457">
        <ele>378.8</ele>
        <time>2017-06-10T07:25:02Z</time>
      </trkpt>
      <trkpt lat="43.44795" lon="6.0447">
        <ele>379.3</ele>
        <time>2017-06-10T07:25:09Z</time>
      </trkpt>
      <trkpt lat="43.44792" lon="6.04483">
        <ele>379.6</ele>
        <time>2017-06-10T07:25:16Z</time>
      </trkpt>
      <trkpt lat="43.44788" lon="6.04495">
        <ele>379.8</ele>
        <time>2017-06-10T07:25:35Z</time>
      </trkpt>
      <trkpt lat="43.44783" lon="6.04508">
        <ele>379.8</ele>
        <time>2017-06-10T07:25:42Z</time>
      </trkpt>
      <trkpt lat="43.44778" lon="6.04522">
        <ele>379.5</ele>
        <time>2017-06-10T07:25:46Z</time>
      </trkpt>
      <trkpt lat="43.44774" lon="6.04539">
        <ele>379.1</ele>
        <time>2017-06-10T07:25:49Z</time>
      </trkpt>
      <trkpt lat="43.44771" lon="6.04554">
        <ele>378.5</ele>
        <time>2017-06-10T07:25:51Z</time>
      </trkpt>
      <trkpt lat="43.44767" lon="6.0457">
        <ele>377.7</ele>
        <time>2017-06-10T07:25:53Z</time>
      </trkpt>
      <trkpt lat="43.44761" lon="6.0459">
        <ele>376.8</ele>
        <time>2017-06-10T07:25:55Z</time>
      </trkpt>
      <trkpt lat="43.44756" lon="6.04609">
        <ele>375.7</ele>
        <time>2017-06-10T07:25:57Z</time>
      </trkpt>
      <trkpt lat="43.44748" lon="6.04626">
        <ele>374.6</ele>
        <time>2017-06-10T07:25:59Z</time>
      </trkpt>
      <trkpt lat="43.44737" lon="6.04641">
        <ele>373.3</ele>
        <time>2017-06-10T07:26:01Z</time>
      </trkpt>
      <trkpt lat="43.44727" lon="6.04653">
        <ele>371.7</ele>
        <time>2017-06-10T07:26:03Z</time>
      </trkpt>
      <trkpt lat="43.44717" lon="6.04666">
        <ele>370.1</ele>
        <time>2017-06-10T07:26:05Z</time>
      </trkpt>
      <trkpt lat="43.44709" lon="6.04678">
        <ele>368.5</ele>
        <time>2017-06-10T07:26:07Z</time>
      </trkpt>
      <trkpt lat="43.44701" lon="6.0469">
        <ele>367</ele>
        <time>2017-06-10T07:26:09Z</time>
      </trkpt>
      <trkpt lat="43.44693" lon="6.04702">
        <ele>365.5</ele>
        <time>2017-06-10T07:26:11Z</time>
      </trkpt>
      <trkpt lat="43.44684" lon="6.04711">
        <ele>364.2</ele>
        <time>2017-06-10T07:26:13Z</time>
      </trkpt>
      <trkpt lat="43.44674" lon="6.0472">
        <ele>362.9</ele>
        <time>2017-06-10T07:26:15Z</time>
      </trkpt>
      <trkpt lat="43.44662" lon="6.04728">
        <ele>361.7</ele>
        <time>2017-06-10T07:26:17Z</time>
      </trkpt>
      <trkpt lat="43.44652" lon="6.04741">
        <ele>360.7</ele>
        <time>2017-06-10T07:26:19Z</time>
      </trkpt>
      <trkpt lat="43.44647" lon="6.04758">
        <ele>359.8</ele>
        <time>2017-06-10T07:26:21Z</time>
      </trkpt>
      <trkpt lat="43.44645" lon="6.04778">
        <ele>359.1</ele>
        <time>2017-06-10T07:26:23Z</time>
      </trkpt>
      <trkpt lat="43.44643" lon="6.048">
        <ele>358.5</ele>
        <time>2017-06-10T07:26:25Z</time>
      </trkpt>
      <trkpt lat="43.4464" lon="6.0482">
        <ele>357.9</ele>
        <time>2017-06-10T07:26:27Z</time>
      </trkpt>
      <trkpt lat="43.44645" lon="6.04839">
        <ele>357.3</ele>
        <time>2017-06-10T07:26:29Z</time>
      </trkpt>
      <trkpt lat="43.44653" lon="6.04852">
        <ele>356.5</ele>
        <time>2017-06-10T07:26:31Z</time>
      </trkpt>
      <trkpt lat="43.44657" lon="6.04869">
        <ele>355.7</ele>
        <time>2017-06-10T07:26:33Z</time>
      </trkpt>
      <trkpt lat="43.44659" lon="6.04889">
        <ele>354.8</ele>
        <time>2017-06-10T07:26:35Z</time>
      </trkpt>
      <trkpt lat="43.44658" lon="6.04907">
        <ele>353.8</ele>
        <time>2017-06-10T07:26:37Z</time>
      </trkpt>
      <trkpt lat="43.44657" lon="6.04925">
        <ele>352.6</ele>
        <time>2017-06-10T07:26:39Z</time>
      </trkpt>
      <trkpt lat="43.44656" lon="6.04942">
        <ele>351.3</ele>
        <time>2017-06-10T07:26:41Z</time>
      </trkpt>
      <trkpt lat="43.44652" lon="6.0496">
        <ele>349.9</ele>
        <time>2017-06-10T07:26:43Z</time>
      </trkpt>
      <trkpt lat="43.44648" lon="6.04975">
        <ele>348.5</ele>
        <time>2017-06-10T07:26:45Z</time>
      </trkpt>
      <trkpt lat="43.44647" lon="6.04987">
        <ele>347.2</ele>
        <time>2017-06-10T07:26:47Z</time>
      </trkpt>
      <trkpt lat="43.44638" lon="6.05013">
        <ele>345.9</ele>
        <time>2017-06-10T07:26:53Z</time>
      </trkpt>
      <trkpt lat="43.44629" lon="6.05026">
        <ele>344.8</ele>
        <time>2017-06-10T07:26:56Z</time>
      </trkpt>
      <trkpt lat="43.44625" lon="6.0504">
        <ele>343.8</ele>
        <time>2017-06-10T07:26:58Z</time>
      </trkpt>
      <trkpt lat="43.44623" lon="6.05056">
        <ele>343.1</ele>
        <time>2017-06-10T07:27:00Z</time>
      </trkpt>
      <trkpt lat="43.44623" lon="6.05075">
        <ele>342.4</ele>
        <time>2017-06-10T07:27:02Z</time>
      </trkpt>
      <trkpt lat="43.44627" lon="6.0509">
        <ele>341.8</ele>
        <time>2017-06-10T07:27:04Z</time>
      </trkpt>
      <trkpt lat="43.44636" lon="6.05104">
        <ele>341.6</ele>
        <time>2017-06-10T07:27:06Z</time>
      </trkpt>
      <trkpt lat="43.44648" lon="6.05112">
        <ele>341.6</ele>
        <time>2017-06-10T07:27:08Z</time>
      </trkpt>
      <trkpt lat="43.44657" lon="6.05121">
        <ele>341.7</ele>
        <time>2017-06-10T07:27:10Z</time>
      </trkpt>
      <trkpt lat="43.44661" lon="6.05134">
        <ele>342</ele>
        <time>2017-06-10T07:27:12Z</time>
      </trkpt>
      <trkpt lat="43.44654" lon="6.05148">
        <ele>342.2</ele>
        <time>2017-06-10T07:27:14Z</time>
      </trkpt>
      <trkpt lat="43.44644" lon="6.05158">
        <ele>342.3</ele>
        <time>2017-06-10T07:27:17Z</time>
      </trkpt>
      <trkpt lat="43.44632" lon="6.05159">
        <ele>342.3</ele>
        <time>2017-06-10T07:27:20Z</time>
      </trkpt>
      <trkpt lat="43.44622" lon="6.05164">
        <ele>342.2</ele>
        <time>2017-06-10T07:27:23Z</time>
      </trkpt>
      <trkpt lat="43.44611" lon="6.05172">
        <ele>342</ele>
        <time>2017-06-10T07:27:26Z</time>
      </trkpt>
      <trkpt lat="43.44599" lon="6.05179">
        <ele>341.7</ele>
        <time>2017-06-10T07:27:29Z</time>
      </trkpt>
      <trkpt lat="43.44588" lon="6.05186">
        <ele>341.4</ele>
        <time>2017-06-10T07:27:31Z</time>
      </trkpt>
      <trkpt lat="43.4458" lon="6.05202">
        <ele>340.7</ele>
        <time>2017-06-10T07:27:34Z</time>
      </trkpt>
      <trkpt lat="43.44575" lon="6.05213">
        <ele>340.2</ele>
        <time>2017-06-10T07:27:36Z</time>
      </trkpt>
      <trkpt lat="43.44569" lon="6.05223">
        <ele>339.5</ele>
        <time>2017-06-10T07:27:38Z</time>
      </trkpt>
      <trkpt lat="43.44561" lon="6.05232">
        <ele>338.8</ele>
        <time>2017-06-10T07:27:41Z</time>
      </trkpt>
      <trkpt lat="43.44554" lon="6.05245">
        <ele>338.2</ele>
        <time>2017-06-10T07:27:44Z</time>
      </trkpt>
      <trkpt lat="43.44544" lon="6.05255">
        <ele>337.6</ele>
        <time>2017-06-10T07:27:47Z</time>
      </trkpt>
      <trkpt lat="43.44542" lon="6.05269">
        <ele>337.1</ele>
        <time>2017-06-10T07:27:49Z</time>
      </trkpt>
      <trkpt lat="43.44537" lon="6.0528">
        <ele>336.7</ele>
        <time>2017-06-10T07:27:51Z</time>
      </trkpt>
      <trkpt lat="43.44529" lon="6.05291">
        <ele>336.4</ele>
        <time>2017-06-10T07:27:53Z</time>
      </trkpt>
      <trkpt lat="43.44525" lon="6.05304">
        <ele>336.2</ele>
        <time>2017-06-10T07:27:55Z</time>
      </trkpt>
      <trkpt lat="43.44517" lon="6.05314">
        <ele>336</ele>
        <time>2017-06-10T07:27:57Z</time>
      </trkpt>
      <trkpt lat="43.44509" lon="6.05327">
        <ele>336</ele>
        <time>2017-06-10T07:27:59Z</time>
      </trkpt>
      <trkpt lat="43.44503" lon="6.05338">
        <ele>335.9</ele>
        <time>2017-06-10T07:28:01Z</time>
      </trkpt>
      <trkpt lat="43.44496" lon="6.0535">
        <ele>335.7</ele>
        <time>2017-06-10T07:28:04Z</time>
      </trkpt>
      <trkpt lat="43.44492" lon="6.05361">
        <ele>335.4</ele>
        <time>2017-06-10T07:28:06Z</time>
      </trkpt>
      <trkpt lat="43.44486" lon="6.05377">
        <ele>334.9</ele>
        <time>2017-06-10T07:28:08Z</time>
      </trkpt>
      <trkpt lat="43.4448" lon="6.05394">
        <ele>334.4</ele>
        <time>2017-06-10T07:28:10Z</time>
      </trkpt>
      <trkpt lat="43.44477" lon="6.05405">
        <ele>333.8</ele>
        <time>2017-06-10T07:28:11Z</time>
      </trkpt>
      <trkpt lat="43.44469" lon="6.05418">
        <ele>333.2</ele>
        <time>2017-06-10T07:28:13Z</time>
      </trkpt>
      <trkpt lat="43.44462" lon="6.05432">
        <ele>332.4</ele>
        <time>2017-06-10T07:28:15Z</time>
      </trkpt>
      <trkpt lat="43.44458" lon="6.05443">
        <ele>331.2</ele>
        <time>2017-06-10T07:28:17Z</time>
      </trkpt>
      <trkpt lat="43.44454" lon="6.05455">
        <ele>329.8</ele>
        <time>2017-06-10T07:28:19Z</time>
      </trkpt>
      <trkpt lat="43.4445" lon="6.0547">
        <ele>328.3</ele>
        <time>2017-06-10T07:28:21Z</time>
      </trkpt>
      <trkpt lat="43.44448" lon="6.05487">
        <ele>326.5</ele>
        <time>2017-06-10T07:28:23Z</time>
      </trkpt>
      <trkpt lat="43.44443" lon="6.05502">
        <ele>324.5</ele>
        <time>2017-06-10T07:28:25Z</time>
      </trkpt>
      <trkpt lat="43.44434" lon="6.05519">
        <ele>322.5</ele>
        <time>2017-06-10T07:28:27Z</time>
      </trkpt>
      <trkpt lat="43.4443" lon="6.05542">
        <ele>320.3</ele>
        <time>2017-06-10T07:28:29Z</time>
      </trkpt>
      <trkpt lat="43.44425" lon="6.05552">
        <ele>317.9</ele>
        <time>2017-06-10T07:28:30Z</time>
      </trkpt>
      <trkpt lat="43.4442" lon="6.0557">
        <ele>315.5</ele>
        <time>2017-06-10T07:28:32Z</time>
      </trkpt>
      <trkpt lat="43.44413" lon="6.0558">
        <ele>312.8</ele>
        <time>2017-06-10T07:28:33Z</time>
      </trkpt>
      <trkpt lat="43.44402" lon="6.05601">
        <ele>310.3</ele>
        <time>2017-06-10T07:28:35Z</time>
      </trkpt>
      <trkpt lat="43.44392" lon="6.05608">
        <ele>308</ele>
        <time>2017-06-10T07:28:37Z</time>
      </trkpt>
      <trkpt lat="43.4438" lon="6.05606">
        <ele>305.7</ele>
        <time>2017-06-10T07:28:39Z</time>
      </trkpt>
      <trkpt lat="43.44366" lon="6.05604">
        <ele>303.5</ele>
        <time>2017-06-10T07:28:41Z</time>
      </trkpt>
      <trkpt lat="43.44348" lon="6.05601">
        <ele>301.6</ele>
        <time>2017-06-10T07:28:43Z</time>
      </trkpt>
      <trkpt lat="43.44338" lon="6.05604">
        <ele>299.9</ele>
        <time>2017-06-10T07:28:44Z</time>
      </trkpt>
      <trkpt lat="43.44328" lon="6.05605">
        <ele>298.5</ele>
        <time>2017-06-10T07:28:45Z</time>
      </trkpt>
      <trkpt lat="43.44317" lon="6.05602">
        <ele>297.3</ele>
        <time>2017-06-10T07:28:46Z</time>
      </trkpt>
      <trkpt lat="43.44306" lon="6.05604">
        <ele>296.2</ele>
        <time>2017-06-10T07:28:47Z</time>
      </trkpt>
      <trkpt lat="43.44294" lon="6.05607">
        <ele>295.2</ele>
        <time>2017-06-10T07:28:48Z</time>
      </trkpt>
      <trkpt lat="43.44283" lon="6.05609">
        <ele>294.3</ele>
        <time>2017-06-10T07:28:49Z</time>
      </trkpt>
      <trkpt lat="43.44273" lon="6.05612">
        <ele>293.3</ele>
        <time>2017-06-10T07:28:50Z</time>
      </trkpt>
      <trkpt lat="43.44261" lon="6.05614">
        <ele>292.3</ele>
        <time>2017-06-10T07:28:51Z</time>
      </trkpt>
      <trkpt lat="43.44248" lon="6.05616">
        <ele>291.4</ele>
        <time>2017-06-10T07:28:52Z</time>
      </trkpt>
      <trkpt lat="43.44236" lon="6.05618">
        <ele>290.5</ele>
        <time>2017-06-10T07:28:53Z</time>
      </trkpt>
      <trkpt lat="43.44225" lon="6.05619">
        <ele>289.6</ele>
        <time>2017-06-10T07:28:54Z</time>
      </trkpt>
      <trkpt lat="43.44214" lon="6.05622">
        <ele>288.8</ele>
        <time>2017-06-10T07:28:55Z</time>
      </trkpt>
      <trkpt lat="43.44203" lon="6.05625">
        <ele>287.9</ele>
        <time>2017-06-10T07:28:56Z</time>
      </trkpt>
      <trkpt lat="43.44193" lon="6.05629">
        <ele>287.1</ele>
        <time>2017-06-10T07:28:57Z</time>
      </trkpt>
      <trkpt lat="43.44182" lon="6.05633">
        <ele>286.3</ele>
        <time>2017-06-10T07:28:58Z</time>
      </trkpt>
      <trkpt lat="43.44172" lon="6.05637">
        <ele>285.5</ele>
        <time>2017-06-10T07:28:59Z</time>
      </trkpt>
      <trkpt lat="43.44162" lon="6.0564">
        <ele>284.9</ele>
        <time>2017-06-10T07:29:00Z</time>
      </trkpt>
      <trkpt lat="43.44152" lon="6.05643">
        <ele>284.4</ele>
        <time>2017-06-10T07:29:01Z</time>
      </trkpt>
      <trkpt lat="43.44142" lon="6.05647">
        <ele>283.9</ele>
        <time>2017-06-10T07:29:02Z</time>
      </trkpt>
      <trkpt lat="43.44132" lon="6.05649">
        <ele>283.5</ele>
        <time>2017-06-10T07:29:03Z</time>
      </trkpt>
      <trkpt lat="43.44122" lon="6.0565">
        <ele>282.9</ele>
        <time>2017-06-10T07:29:04Z</time>
      </trkpt>
      <trkpt lat="43.44112" lon="6.0565">
        <ele>282.4</ele>
        <time>2017-06-10T07:29:05Z</time>
      </trkpt>
      <trkpt lat="43.44102" lon="6.05652">
        <ele>281.6</ele>
        <time>2017-06-10T07:29:06Z</time>
      </trkpt>
      <trkpt lat="43.44093" lon="6.05652">
        <ele>281</ele>
        <time>2017-06-10T07:29:07Z</time>
      </trkpt>
      <trkpt lat="43.44075" lon="6.05654">
        <ele>280.4</ele>
        <time>2017-06-10T07:29:09Z</time>
      </trkpt>
      <trkpt lat="43.4406" lon="6.05657">
        <ele>279.8</ele>
        <time>2017-06-10T07:29:11Z</time>
      </trkpt>
      <trkpt lat="43.44049" lon="6.05661">
        <ele>279.3</ele>
        <time>2017-06-10T07:29:14Z</time>
      </trkpt>
      <trkpt lat="43.44038" lon="6.0567">
        <ele>278.5</ele>
        <time>2017-06-10T07:29:19Z</time>
      </trkpt>
      <trkpt lat="43.44035" lon="6.05688">
        <ele>277.9</ele>
        <time>2017-06-10T07:29:22Z</time>
      </trkpt>
      <trkpt lat="43.44033" lon="6.05704">
        <ele>277.1</ele>
        <time>2017-06-10T07:29:24Z</time>
      </trkpt>
      <trkpt lat="43.4403" lon="6.05718">
        <ele>276.4</ele>
        <time>2017-06-10T07:29:26Z</time>
      </trkpt>
      <trkpt lat="43.44022" lon="6.05725">
        <ele>275.6</ele>
        <time>2017-06-10T07:29:29Z</time>
      </trkpt>
      <trkpt lat="43.44007" lon="6.05721">
        <ele>275</ele>
        <time>2017-06-10T07:29:32Z</time>
      </trkpt>
      <trkpt lat="43.43995" lon="6.05718">
        <ele>274.5</ele>
        <time>2017-06-10T07:29:34Z</time>
      </trkpt>
      <trkpt lat="43.4398" lon="6.05713">
        <ele>273.7</ele>
        <time>2017-06-10T07:29:36Z</time>
      </trkpt>
      <trkpt lat="43.43964" lon="6.05709">
        <ele>272.9</ele>
        <time>2017-06-10T07:29:38Z</time>
      </trkpt>
      <trkpt lat="43.43947" lon="6.05704">
        <ele>272</ele>
        <time>2017-06-10T07:29:40Z</time>
      </trkpt>
      <trkpt lat="43.43932" lon="6.05701">
        <ele>271.1</ele>
        <time>2017-06-10T07:29:42Z</time>
      </trkpt>
      <trkpt lat="43.43917" lon="6.05697">
        <ele>270.4</ele>
        <time>2017-06-10T07:29:44Z</time>
      </trkpt>
      <trkpt lat="43.43904" lon="6.05705">
        <ele>269.6</ele>
        <time>2017-06-10T07:29:46Z</time>
      </trkpt>
      <trkpt lat="43.43889" lon="6.05702">
        <ele>269.2</ele>
        <time>2017-06-10T07:29:48Z</time>
      </trkpt>
      <trkpt lat="43.43877" lon="6.05699">
        <ele>268.7</ele>
        <time>2017-06-10T07:29:50Z</time>
      </trkpt>
      <trkpt lat="43.43867" lon="6.05691">
        <ele>268.5</ele>
        <time>2017-06-10T07:29:53Z</time>
      </trkpt>
      <trkpt lat="43.43863" lon="6.05679">
        <ele>268.2</ele>
        <time>2017-06-10T07:29:57Z</time>
      </trkpt>
      <trkpt lat="43.43857" lon="6.05666">
        <ele>268</ele>
        <time>2017-06-10T07:30:01Z</time>
      </trkpt>
      <trkpt lat="43.43849" lon="6.05652">
        <ele>267.9</ele>
        <time>2017-06-10T07:30:04Z</time>
      </trkpt>
      <trkpt lat="43.43839" lon="6.05646">
        <ele>267.8</ele>
        <time>2017-06-10T07:30:07Z</time>
      </trkpt>
      <trkpt lat="43.43828" lon="6.05645">
        <ele>267.7</ele>
        <time>2017-06-10T07:30:10Z</time>
      </trkpt>
      <trkpt lat="43.43814" lon="6.05645">
        <ele>267.6</ele>
        <time>2017-06-10T07:30:13Z</time>
      </trkpt>
      <trkpt lat="43.43802" lon="6.05645">
        <ele>267.5</ele>
        <time>2017-06-10T07:30:16Z</time>
      </trkpt>
      <trkpt lat="43.4379" lon="6.05643">
        <ele>267.3</ele>
        <time>2017-06-10T07:30:19Z</time>
      </trkpt>
      <trkpt lat="43.43779" lon="6.05642">
        <ele>267.1</ele>
        <time>2017-06-10T07:30:22Z</time>
      </trkpt>
      <trkpt lat="43.43769" lon="6.0564">
        <ele>267</ele>
        <time>2017-06-10T07:30:25Z</time>
      </trkpt>
      <trkpt lat="43.43759" lon="6.05638">
        <ele>266.9</ele>
        <time>2017-06-10T07:30:28Z</time>
      </trkpt>
      <trkpt lat="43.43748" lon="6.05634">
        <ele>266.8</ele>
        <time>2017-06-10T07:30:32Z</time>
      </trkpt>
      <trkpt lat="43.43755" lon="6.05644">
        <ele>266.8</ele>
        <time>2017-06-10T07:30:42Z</time>
      </trkpt>
      <trkpt lat="43.43766" lon="6.05645">
        <ele>266.9</ele>
        <time>2017-06-10T07:30:45Z</time>
      </trkpt>
      <trkpt lat="43.43776" lon="6.05647">
        <ele>267</ele>
        <time>2017-06-10T07:30:48Z</time>
      </trkpt>
      <trkpt lat="43.43786" lon="6.05648">
        <ele>267.2</ele>
        <time>2017-06-10T07:30:51Z</time>
      </trkpt>
      <trkpt lat="43.43796" lon="6.05648">
        <ele>267.4</ele>
        <time>2017-06-10T07:30:54Z</time>
      </trkpt>
      <trkpt lat="43.43807" lon="6.05648">
        <ele>267.5</ele>
        <time>2017-06-10T07:30:58Z</time>
      </trkpt>
      <trkpt lat="43.43817" lon="6.05648">
        <ele>267.7</ele>
        <time>2017-06-10T07:31:01Z</time>
      </trkpt>
      <trkpt lat="43.43827" lon="6.05648">
        <ele>267.8</ele>
        <time>2017-06-10T07:31:04Z</time>
      </trkpt>
      <trkpt lat="43.43836" lon="6.05647">
        <ele>267.8</ele>
        <time>2017-06-10T07:31:07Z</time>
      </trkpt>
      <trkpt lat="43.43846" lon="6.05649">
        <ele>267.8</ele>
        <time>2017-06-10T07:31:10Z</time>
      </trkpt>
      <trkpt lat="43.43857" lon="6.05656">
        <ele>267.9</ele>
        <time>2017-06-10T07:31:14Z</time>
      </trkpt>
      <trkpt lat="43.43862" lon="6.05667">
        <ele>267.9</ele>
        <time>2017-06-10T07:31:18Z</time>
      </trkpt>
      <trkpt lat="43.43868" lon="6.0568">
        <ele>268</ele>
        <time>2017-06-10T07:31:23Z</time>
      </trkpt>
      <trkpt lat="43.43875" lon="6.05691">
        <ele>268.3</ele>
        <time>2017-06-10T07:31:27Z</time>
      </trkpt>
      <trkpt lat="43.43886" lon="6.05697">
        <ele>268.5</ele>
        <time>2017-06-10T07:31:31Z</time>
      </trkpt>
      <trkpt lat="43.43895" lon="6.05698">
        <ele>268.9</ele>
        <time>2017-06-10T07:31:34Z</time>
      </trkpt>
      <trkpt lat="43.43905" lon="6.057">
        <ele>269.4</ele>
        <time>2017-06-10T07:31:37Z</time>
      </trkpt>
      <trkpt lat="43.43914" lon="6.05702">
        <ele>269.8</ele>
        <time>2017-06-10T07:31:40Z</time>
      </trkpt>
      <trkpt lat="43.43924" lon="6.05704">
        <ele>270.4</ele>
        <time>2017-06-10T07:31:43Z</time>
      </trkpt>
      <trkpt lat="43.43933" lon="6.05706">
        <ele>270.9</ele>
        <time>2017-06-10T07:31:46Z</time>
      </trkpt>
      <trkpt lat="43.43942" lon="6.05708">
        <ele>271.5</ele>
        <time>2017-06-10T07:31:49Z</time>
      </trkpt>
      <trkpt lat="43.43952" lon="6.0571">
        <ele>272</ele>
        <time>2017-06-10T07:31:52Z</time>
      </trkpt>
      <trkpt lat="43.43961" lon="6.05712">
        <ele>272.6</ele>
        <time>2017-06-10T07:31:55Z</time>
      </trkpt>
      <trkpt lat="43.4397" lon="6.05715">
        <ele>273.2</ele>
        <time>2017-06-10T07:31:58Z</time>
      </trkpt>
      <trkpt lat="43.43979" lon="6.05717">
        <ele>273.7</ele>
        <time>2017-06-10T07:32:01Z</time>
      </trkpt>
      <trkpt lat="43.4399" lon="6.05719">
        <ele>274.3</ele>
        <time>2017-06-10T07:32:05Z</time>
      </trkpt>
      <trkpt lat="43.44" lon="6.05722">
        <ele>274.7</ele>
        <time>2017-06-10T07:32:09Z</time>
      </trkpt>
      <trkpt lat="43.44009" lon="6.05723">
        <ele>275.1</ele>
        <time>2017-06-10T07:32:13Z</time>
      </trkpt>
      <trkpt lat="43.44019" lon="6.05724">
        <ele>275.5</ele>
        <time>2017-06-10T07:32:18Z</time>
      </trkpt>
      <trkpt lat="43.44029" lon="6.05725">
        <ele>275.7</ele>
        <time>2017-06-10T07:32:23Z</time>
      </trkpt>
      <trkpt lat="43.44029" lon="6.0574">
        <ele>276.1</ele>
        <time>2017-06-10T07:32:29Z</time>
      </trkpt>
      <trkpt lat="43.44024" lon="6.05753">
        <ele>276.4</ele>
        <time>2017-06-10T07:32:32Z</time>
      </trkpt>
      <trkpt lat="43.44019" lon="6.05769">
        <ele>276.6</ele>
        <time>2017-06-10T07:32:35Z</time>
      </trkpt>
      <trkpt lat="43.44015" lon="6.0578">
        <ele>276.8</ele>
        <time>2017-06-10T07:32:37Z</time>
      </trkpt>
      <trkpt lat="43.44011" lon="6.05792">
        <ele>277</ele>
        <time>2017-06-10T07:32:39Z</time>
      </trkpt>
      <trkpt lat="43.44007" lon="6.05804">
        <ele>277.1</ele>
        <time>2017-06-10T07:32:41Z</time>
      </trkpt>
      <trkpt lat="43.44002" lon="6.05818">
        <ele>277.2</ele>
        <time>2017-06-10T07:32:43Z</time>
      </trkpt>
      <trkpt lat="43.43998" lon="6.05832">
        <ele>277.2</ele>
        <time>2017-06-10T07:32:45Z</time>
      </trkpt>
      <trkpt lat="43.43993" lon="6.05846">
        <ele>277.3</ele>
        <time>2017-06-10T07:32:47Z</time>
      </trkpt>
      <trkpt lat="43.43988" lon="6.05861">
        <ele>277.4</ele>
        <time>2017-06-10T07:32:49Z</time>
      </trkpt>
      <trkpt lat="43.43984" lon="6.05875">
        <ele>277.5</ele>
        <time>2017-06-10T07:32:51Z</time>
      </trkpt>
      <trkpt lat="43.4398" lon="6.05892">
        <ele>277.4</ele>
        <time>2017-06-10T07:32:53Z</time>
      </trkpt>
      <trkpt lat="43.43977" lon="6.05906">
        <ele>277.3</ele>
        <time>2017-06-10T07:32:55Z</time>
      </trkpt>
      <trkpt lat="43.43972" lon="6.0592">
        <ele>277.1</ele>
        <time>2017-06-10T07:32:57Z</time>
      </trkpt>
      <trkpt lat="43.43969" lon="6.05934">
        <ele>276.9</ele>
        <time>2017-06-10T07:32:59Z</time>
      </trkpt>
      <trkpt lat="43.43966" lon="6.05947">
        <ele>276.8</ele>
        <time>2017-06-10T07:33:01Z</time>
      </trkpt>
      <trkpt lat="43.43963" lon="6.0596">
        <ele>276.7</ele>
        <time>2017-06-10T07:33:03Z</time>
      </trkpt>
      <trkpt lat="43.43961" lon="6.05973">
        <ele>276.6</ele>
        <time>2017-06-10T07:33:05Z</time>
      </trkpt>
      <trkpt lat="43.43959" lon="6.05986">
        <ele>276.6</ele>
        <time>2017-06-10T07:33:07Z</time>
      </trkpt>
      <trkpt lat="43.43957" lon="6.06">
        <ele>276.7</ele>
        <time>2017-06-10T07:33:09Z</time>
      </trkpt>
      <trkpt lat="43.43956" lon="6.06018">
        <ele>276.7</ele>
        <time>2017-06-10T07:33:11Z</time>
      </trkpt>
      <trkpt lat="43.43953" lon="6.06034">
        <ele>276.7</ele>
        <time>2017-06-10T07:33:13Z</time>
      </trkpt>
      <trkpt lat="43.43949" lon="6.0605">
        <ele>276.6</ele>
        <time>2017-06-10T07:33:15Z</time>
      </trkpt>
      <trkpt lat="43.43947" lon="6.06067">
        <ele>276.5</ele>
        <time>2017-06-10T07:33:17Z</time>
      </trkpt>
      <trkpt lat="43.43946" lon="6.06086">
        <ele>276.2</ele>
        <time>2017-06-10T07:33:19Z</time>
      </trkpt>
      <trkpt lat="43.43945" lon="6.061">
        <ele>275.9</ele>
        <time>2017-06-10T07:33:21Z</time>
      </trkpt>
      <trkpt lat="43.43943" lon="6.06117">
        <ele>275.5</ele>
        <time>2017-06-10T07:33:23Z</time>
      </trkpt>
      <trkpt lat="43.43941" lon="6.06136">
        <ele>275.3</ele>
        <time>2017-06-10T07:33:25Z</time>
      </trkpt>
      <trkpt lat="43.43941" lon="6.0615">
        <ele>275</ele>
        <time>2017-06-10T07:33:26Z</time>
      </trkpt>
      <trkpt lat="43.43939" lon="6.06168">
        <ele>274.6</ele>
        <time>2017-06-10T07:33:28Z</time>
      </trkpt>
      <trkpt lat="43.43938" lon="6.06188">
        <ele>274.2</ele>
        <time>2017-06-10T07:33:30Z</time>
      </trkpt>
      <trkpt lat="43.43934" lon="6.06204">
        <ele>273.7</ele>
        <time>2017-06-10T07:33:32Z</time>
      </trkpt>
      <trkpt lat="43.4393" lon="6.06222">
        <ele>273.2</ele>
        <time>2017-06-10T07:33:34Z</time>
      </trkpt>
      <trkpt lat="43.43926" lon="6.06242">
        <ele>272.7</ele>
        <time>2017-06-10T07:33:36Z</time>
      </trkpt>
      <trkpt lat="43.43919" lon="6.0626">
        <ele>272.2</ele>
        <time>2017-06-10T07:33:38Z</time>
      </trkpt>
      <trkpt lat="43.43916" lon="6.06272">
        <ele>271.7</ele>
        <time>2017-06-10T07:33:39Z</time>
      </trkpt>
      <trkpt lat="43.43906" lon="6.06289">
        <ele>271.2</ele>
        <time>2017-06-10T07:33:41Z</time>
      </trkpt>
      <trkpt lat="43.43905" lon="6.0631">
        <ele>270.6</ele>
        <time>2017-06-10T07:33:43Z</time>
      </trkpt>
      <trkpt lat="43.43903" lon="6.06323">
        <ele>269.9</ele>
        <time>2017-06-10T07:33:44Z</time>
      </trkpt>
      <trkpt lat="43.439" lon="6.06346">
        <ele>269</ele>
        <time>2017-06-10T07:33:46Z</time>
      </trkpt>
      <trkpt lat="43.439" lon="6.06359">
        <ele>268.1</ele>
        <time>2017-06-10T07:33:47Z</time>
      </trkpt>
      <trkpt lat="43.43898" lon="6.06385">
        <ele>267</ele>
        <time>2017-06-10T07:33:49Z</time>
      </trkpt>
      <trkpt lat="43.43896" lon="6.06398">
        <ele>265.8</ele>
        <time>2017-06-10T07:33:50Z</time>
      </trkpt>
      <trkpt lat="43.43895" lon="6.06412">
        <ele>264.7</ele>
        <time>2017-06-10T07:33:51Z</time>
      </trkpt>
      <trkpt lat="43.43895" lon="6.06426">
        <ele>263.6</ele>
        <time>2017-06-10T07:33:52Z</time>
      </trkpt>
      <trkpt lat="43.43894" lon="6.0644">
        <ele>262.7</ele>
        <time>2017-06-10T07:33:53Z</time>
      </trkpt>
      <trkpt lat="43.43893" lon="6.06454">
        <ele>261.9</ele>
        <time>2017-06-10T07:33:54Z</time>
      </trkpt>
      <trkpt lat="43.43893" lon="6.0647">
        <ele>261.3</ele>
        <time>2017-06-10T07:33:55Z</time>
      </trkpt>
      <trkpt lat="43.43891" lon="6.06483">
        <ele>260.6</ele>
        <time>2017-06-10T07:33:56Z</time>
      </trkpt>
      <trkpt lat="43.4389" lon="6.06497">
        <ele>260</ele>
        <time>2017-06-10T07:33:57Z</time>
      </trkpt>
      <trkpt lat="43.4389" lon="6.06513">
        <ele>259.5</ele>
        <time>2017-06-10T07:33:58Z</time>
      </trkpt>
      <trkpt lat="43.43888" lon="6.06527">
        <ele>259.1</ele>
        <time>2017-06-10T07:33:59Z</time>
      </trkpt>
      <trkpt lat="43.43889" lon="6.06543">
        <ele>258.8</ele>
        <time>2017-06-10T07:34:00Z</time>
      </trkpt>
      <trkpt lat="43.43887" lon="6.06558">
        <ele>258.6</ele>
        <time>2017-06-10T07:34:01Z</time>
      </trkpt>
      <trkpt lat="43.43886" lon="6.06572">
        <ele>258.5</ele>
        <time>2017-06-10T07:34:02Z</time>
      </trkpt>
      <trkpt lat="43.43884" lon="6.06586">
        <ele>258.3</ele>
        <time>2017-06-10T07:34:03Z</time>
      </trkpt>
      <trkpt lat="43.43883" lon="6.06599">
        <ele>258.1</ele>
        <time>2017-06-10T07:34:04Z</time>
      </trkpt>
      <trkpt lat="43.43882" lon="6.06612">
        <ele>257.7</ele>
        <time>2017-06-10T07:34:05Z</time>
      </trkpt>
      <trkpt lat="43.43881" lon="6.06625">
        <ele>257.3</ele>
        <time>2017-06-10T07:34:06Z</time>
      </trkpt>
      <trkpt lat="43.4388" lon="6.0664">
        <ele>256.7</ele>
        <time>2017-06-10T07:34:07Z</time>
      </trkpt>
      <trkpt lat="43.4388" lon="6.06653">
        <ele>256.2</ele>
        <time>2017-06-10T07:34:08Z</time>
      </trkpt>
      <trkpt lat="43.43879" lon="6.06668">
        <ele>255.5</ele>
        <time>2017-06-10T07:34:09Z</time>
      </trkpt>
      <trkpt lat="43.43879" lon="6.06682">
        <ele>255</ele>
        <time>2017-06-10T07:34:10Z</time>
      </trkpt>
      <trkpt lat="43.43878" lon="6.06697">
        <ele>254.4</ele>
        <time>2017-06-10T07:34:11Z</time>
      </trkpt>
      <trkpt lat="43.43879" lon="6.06712">
        <ele>253.7</ele>
        <time>2017-06-10T07:34:12Z</time>
      </trkpt>
      <trkpt lat="43.43877" lon="6.06725">
        <ele>253</ele>
        <time>2017-06-10T07:34:13Z</time>
      </trkpt>
      <trkpt lat="43.43876" lon="6.0674">
        <ele>252.4</ele>
        <time>2017-06-10T07:34:14Z</time>
      </trkpt>
      <trkpt lat="43.43876" lon="6.06754">
        <ele>251.7</ele>
        <time>2017-06-10T07:34:15Z</time>
      </trkpt>
      <trkpt lat="43.43875" lon="6.06768">
        <ele>251.2</ele>
        <time>2017-06-10T07:34:16Z</time>
      </trkpt>
      <trkpt lat="43.43875" lon="6.06781">
        <ele>250.6</ele>
        <time>2017-06-10T07:34:17Z</time>
      </trkpt>
      <trkpt lat="43.43874" lon="6.06795">
        <ele>250.2</ele>
        <time>2017-06-10T07:34:18Z</time>
      </trkpt>
      <trkpt lat="43.43873" lon="6.0681">
        <ele>249.7</ele>
        <time>2017-06-10T07:34:19Z</time>
      </trkpt>
      <trkpt lat="43.43872" lon="6.06824">
        <ele>249.4</ele>
        <time>2017-06-10T07:34:20Z</time>
      </trkpt>
      <trkpt lat="43.43871" lon="6.06838">
        <ele>248.9</ele>
        <time>2017-06-10T07:34:21Z</time>
      </trkpt>
      <trkpt lat="43.43871" lon="6.06854">
        <ele>248.5</ele>
        <time>2017-06-10T07:34:22Z</time>
      </trkpt>
      <trkpt lat="43.43869" lon="6.06867">
        <ele>248.2</ele>
        <time>2017-06-10T07:34:23Z</time>
      </trkpt>
      <trkpt lat="43.43868" lon="6.0688">
        <ele>247.9</ele>
        <time>2017-06-10T07:34:24Z</time>
      </trkpt>
      <trkpt lat="43.43866" lon="6.06892">
        <ele>247.6</ele>
        <time>2017-06-10T07:34:25Z</time>
      </trkpt>
      <trkpt lat="43.43865" lon="6.06905">
        <ele>247.4</ele>
        <time>2017-06-10T07:34:26Z</time>
      </trkpt>
      <trkpt lat="43.43859" lon="6.06928">
        <ele>247.1</ele>
        <time>2017-06-10T07:34:28Z</time>
      </trkpt>
      <trkpt lat="43.43854" lon="6.06939">
        <ele>246.8</ele>
        <time>2017-06-10T07:34:29Z</time>
      </trkpt>
      <trkpt lat="43.43847" lon="6.06958">
        <ele>246.5</ele>
        <time>2017-06-10T07:34:31Z</time>
      </trkpt>
      <trkpt lat="43.43838" lon="6.06977">
        <ele>246.4</ele>
        <time>2017-06-10T07:34:33Z</time>
      </trkpt>
      <trkpt lat="43.43832" lon="6.06987">
        <ele>246.2</ele>
        <time>2017-06-10T07:34:34Z</time>
      </trkpt>
      <trkpt lat="43.43819" lon="6.07004">
        <ele>246</ele>
        <time>2017-06-10T07:34:36Z</time>
      </trkpt>
      <trkpt lat="43.4381" lon="6.07013">
        <ele>245.8</ele>
        <time>2017-06-10T07:34:37Z</time>
      </trkpt>
      <trkpt lat="43.43803" lon="6.07021">
        <ele>245.7</ele>
        <time>2017-06-10T07:34:38Z</time>
      </trkpt>
      <trkpt lat="43.43789" lon="6.07036">
        <ele>245.6</ele>
        <time>2017-06-10T07:34:40Z</time>
      </trkpt>
      <trkpt lat="43.43774" lon="6.0705">
        <ele>245.5</ele>
        <time>2017-06-10T07:34:42Z</time>
      </trkpt>
      <trkpt lat="43.4376" lon="6.07064">
        <ele>245.2</ele>
        <time>2017-06-10T07:34:44Z</time>
      </trkpt>
      <trkpt lat="43.43747" lon="6.07078">
        <ele>244.9</ele>
        <time>2017-06-10T07:34:46Z</time>
      </trkpt>
      <trkpt lat="43.43734" lon="6.07093">
        <ele>244.6</ele>
        <time>2017-06-10T07:34:48Z</time>
      </trkpt>
      <trkpt lat="43.4372" lon="6.07106">
        <ele>244.4</ele>
        <time>2017-06-10T07:34:50Z</time>
      </trkpt>
      <trkpt lat="43.43705" lon="6.07116">
        <ele>244.1</ele>
        <time>2017-06-10T07:34:52Z</time>
      </trkpt>
      <trkpt lat="43.43689" lon="6.07123">
        <ele>243.8</ele>
        <time>2017-06-10T07:34:54Z</time>
      </trkpt>
      <trkpt lat="43.4368" lon="6.07123">
        <ele>243.6</ele>
        <time>2017-06-10T07:34:55Z</time>
      </trkpt>
      <trkpt lat="43.43664" lon="6.07121">
        <ele>243.5</ele>
        <time>2017-06-10T07:34:57Z</time>
      </trkpt>
      <trkpt lat="43.43649" lon="6.07117">
        <ele>243.3</ele>
        <time>2017-06-10T07:34:59Z</time>
      </trkpt>
      <trkpt lat="43.43635" lon="6.07112">
        <ele>243.1</ele>
        <time>2017-06-10T07:35:01Z</time>
      </trkpt>
      <trkpt lat="43.43621" lon="6.07108">
        <ele>243</ele>
        <time>2017-06-10T07:35:03Z</time>
      </trkpt>
      <trkpt lat="43.43609" lon="6.07102">
        <ele>243.1</ele>
        <time>2017-06-10T07:35:05Z</time>
      </trkpt>
      <trkpt lat="43.43596" lon="6.07098">
        <ele>243.3</ele>
        <time>2017-06-10T07:35:07Z</time>
      </trkpt>
      <trkpt lat="43.43583" lon="6.07096">
        <ele>243.5</ele>
        <time>2017-06-10T07:35:09Z</time>
      </trkpt>
      <trkpt lat="43.43573" lon="6.07093">
        <ele>243.9</ele>
        <time>2017-06-10T07:35:11Z</time>
      </trkpt>
      <trkpt lat="43.43561" lon="6.07089">
        <ele>244.5</ele>
        <time>2017-06-10T07:35:14Z</time>
      </trkpt>
      <trkpt lat="43.4355" lon="6.07085">
        <ele>245</ele>
        <time>2017-06-10T07:35:17Z</time>
      </trkpt>
      <trkpt lat="43.4354" lon="6.07081">
        <ele>245.5</ele>
        <time>2017-06-10T07:35:20Z</time>
      </trkpt>
      <trkpt lat="43.43528" lon="6.07077">
        <ele>246</ele>
        <time>2017-06-10T07:35:24Z</time>
      </trkpt>
      <trkpt lat="43.43518" lon="6.07074">
        <ele>246.5</ele>
        <time>2017-06-10T07:35:27Z</time>
      </trkpt>
      <trkpt lat="43.43509" lon="6.07071">
        <ele>247.1</ele>
        <time>2017-06-10T07:35:30Z</time>
      </trkpt>
      <trkpt lat="43.43499" lon="6.07068">
        <ele>247.7</ele>
        <time>2017-06-10T07:35:33Z</time>
      </trkpt>
      <trkpt lat="43.43487" lon="6.07065">
        <ele>248.3</ele>
        <time>2017-06-10T07:35:37Z</time>
      </trkpt>
      <trkpt lat="43.43478" lon="6.07058">
        <ele>248.9</ele>
        <time>2017-06-10T07:35:41Z</time>
      </trkpt>
      <trkpt lat="43.43477" lon="6.07043">
        <ele>249.5</ele>
        <time>2017-06-10T07:35:45Z</time>
      </trkpt>
      <trkpt lat="43.43479" lon="6.07028">
        <ele>250.1</ele>
        <time>2017-06-10T07:35:49Z</time>
      </trkpt>
      <trkpt lat="43.43479" lon="6.07015">
        <ele>250.5</ele>
        <time>2017-06-10T07:35:53Z</time>
      </trkpt>
      <trkpt lat="43.43479" lon="6.07003">
        <ele>251</ele>
        <time>2017-06-10T07:35:57Z</time>
      </trkpt>
      <trkpt lat="43.43478" lon="6.06988">
        <ele>251.5</ele>
        <time>2017-06-10T07:36:02Z</time>
      </trkpt>
      <trkpt lat="43.43478" lon="6.06975">
        <ele>252</ele>
        <time>2017-06-10T07:36:06Z</time>
      </trkpt>
      <trkpt lat="43.4348" lon="6.06962">
        <ele>252.5</ele>
        <time>2017-06-10T07:36:10Z</time>
      </trkpt>
      <trkpt lat="43.43482" lon="6.0695">
        <ele>252.9</ele>
        <time>2017-06-10T07:36:14Z</time>
      </trkpt>
      <trkpt lat="43.43483" lon="6.06938">
        <ele>253.3</ele>
        <time>2017-06-10T07:36:18Z</time>
      </trkpt>
      <trkpt lat="43.43486" lon="6.06926">
        <ele>253.6</ele>
        <time>2017-06-10T07:36:22Z</time>
      </trkpt>
      <trkpt lat="43.43489" lon="6.06911">
        <ele>253.9</ele>
        <time>2017-06-10T07:36:27Z</time>
      </trkpt>
      <trkpt lat="43.43492" lon="6.06896">
        <ele>254.2</ele>
        <time>2017-06-10T07:36:32Z</time>
      </trkpt>
      <trkpt lat="43.43495" lon="6.06883">
        <ele>254.5</ele>
        <time>2017-06-10T07:36:36Z</time>
      </trkpt>
      <trkpt lat="43.43497" lon="6.06868">
        <ele>254.7</ele>
        <time>2017-06-10T07:36:41Z</time>
      </trkpt>
      <trkpt lat="43.43499" lon="6.06856">
        <ele>255</ele>
        <time>2017-06-10T07:36:45Z</time>
      </trkpt>
      <trkpt lat="43.43503" lon="6.06842">
        <ele>255.3</ele>
        <time>2017-06-10T07:36:50Z</time>
      </trkpt>
      <trkpt lat="43.43507" lon="6.0683">
        <ele>255.5</ele>
        <time>2017-06-10T07:36:54Z</time>
      </trkpt>
      <trkpt lat="43.43509" lon="6.06818">
        <ele>255.8</ele>
        <time>2017-06-10T07:36:58Z</time>
      </trkpt>
      <trkpt lat="43.4351" lon="6.06805">
        <ele>256</ele>
        <time>2017-06-10T07:37:02Z</time>
      </trkpt>
      <trkpt lat="43.43511" lon="6.06792">
        <ele>256.2</ele>
        <time>2017-06-10T07:37:06Z</time>
      </trkpt>
      <trkpt lat="43.43513" lon="6.06779">
        <ele>256.4</ele>
        <time>2017-06-10T07:37:10Z</time>
      </trkpt>
      <trkpt lat="43.43514" lon="6.06766">
        <ele>256.5</ele>
        <time>2017-06-10T07:37:14Z</time>
      </trkpt>
      <trkpt lat="43.43516" lon="6.0675">
        <ele>256.5</ele>
        <time>2017-06-10T07:37:18Z</time>
      </trkpt>
      <trkpt lat="43.43517" lon="6.06737">
        <ele>256.7</ele>
        <time>2017-06-10T07:37:21Z</time>
      </trkpt>
      <trkpt lat="43.43519" lon="6.06721">
        <ele>256.8</ele>
        <time>2017-06-10T07:37:25Z</time>
      </trkpt>
      <trkpt lat="43.43521" lon="6.06708">
        <ele>257</ele>
        <time>2017-06-10T07:37:28Z</time>
      </trkpt>
      <trkpt lat="43.43523" lon="6.06696">
        <ele>257.3</ele>
        <time>2017-06-10T07:37:31Z</time>
      </trkpt>
      <trkpt lat="43.43524" lon="6.06684">
        <ele>257.5</ele>
        <time>2017-06-10T07:37:34Z</time>
      </trkpt>
      <trkpt lat="43.43525" lon="6.06671">
        <ele>257.7</ele>
        <time>2017-06-10T07:37:37Z</time>
      </trkpt>
      <trkpt lat="43.43527" lon="6.06655">
        <ele>258</ele>
        <time>2017-06-10T07:37:41Z</time>
      </trkpt>
      <trkpt lat="43.43527" lon="6.06638">
        <ele>258.4</ele>
        <time>2017-06-10T07:37:45Z</time>
      </trkpt>
      <trkpt lat="43.43528" lon="6.06622">
        <ele>258.8</ele>
        <time>2017-06-10T07:37:49Z</time>
      </trkpt>
      <trkpt lat="43.43529" lon="6.06607">
        <ele>259.3</ele>
        <time>2017-06-10T07:37:53Z</time>
      </trkpt>
      <trkpt lat="43.43531" lon="6.0659">
        <ele>259.7</ele>
        <time>2017-06-10T07:37:57Z</time>
      </trkpt>
      <trkpt lat="43.43532" lon="6.06575">
        <ele>260.1</ele>
        <time>2017-06-10T07:38:01Z</time>
      </trkpt>
      <trkpt lat="43.43533" lon="6.06562">
        <ele>260.5</ele>
        <time>2017-06-10T07:38:04Z</time>
      </trkpt>
      <trkpt lat="43.43534" lon="6.06546">
        <ele>260.7</ele>
        <time>2017-06-10T07:38:08Z</time>
      </trkpt>
      <trkpt lat="43.43535" lon="6.0653">
        <ele>260.7</ele>
        <time>2017-06-10T07:38:12Z</time>
      </trkpt>
      <trkpt lat="43.43536" lon="6.06515">
        <ele>260.5</ele>
        <time>2017-06-10T07:38:16Z</time>
      </trkpt>
      <trkpt lat="43.43536" lon="6.06499">
        <ele>260.5</ele>
        <time>2017-06-10T07:38:20Z</time>
      </trkpt>
      <trkpt lat="43.43532" lon="6.06488">
        <ele>260.4</ele>
        <time>2017-06-10T07:38:24Z</time>
      </trkpt>
      <trkpt lat="43.43525" lon="6.06478">
        <ele>260.2</ele>
        <time>2017-06-10T07:38:29Z</time>
      </trkpt>
      <trkpt lat="43.43518" lon="6.06466">
        <ele>259.9</ele>
        <time>2017-06-10T07:38:32Z</time>
      </trkpt>
      <trkpt lat="43.43509" lon="6.06452">
        <ele>259.6</ele>
        <time>2017-06-10T07:38:34Z</time>
      </trkpt>
      <trkpt lat="43.43503" lon="6.06434">
        <ele>259.2</ele>
        <time>2017-06-10T07:38:36Z</time>
      </trkpt>
      <trkpt lat="43.43501" lon="6.06409">
        <ele>258.7</ele>
        <time>2017-06-10T07:38:38Z</time>
      </trkpt>
      <trkpt lat="43.43497" lon="6.06389">
        <ele>258.3</ele>
        <time>2017-06-10T07:38:40Z</time>
      </trkpt>
      <trkpt lat="43.43494" lon="6.06372">
        <ele>257.6</ele>
        <time>2017-06-10T07:38:42Z</time>
      </trkpt>
      <trkpt lat="43.43491" lon="6.06354">
        <ele>257.1</ele>
        <time>2017-06-10T07:38:44Z</time>
      </trkpt>
      <trkpt lat="43.4349" lon="6.0634">
        <ele>256.5</ele>
        <time>2017-06-10T07:38:46Z</time>
      </trkpt>
      <trkpt lat="43.43492" lon="6.06324">
        <ele>255.9</ele>
        <time>2017-06-10T07:38:48Z</time>
      </trkpt>
      <trkpt lat="43.43494" lon="6.06303">
        <ele>255.3</ele>
        <time>2017-06-10T07:38:50Z</time>
      </trkpt>
      <trkpt lat="43.43496" lon="6.06279">
        <ele>254.6</ele>
        <time>2017-06-10T07:38:52Z</time>
      </trkpt>
      <trkpt lat="43.43496" lon="6.06267">
        <ele>254.1</ele>
        <time>2017-06-10T07:38:53Z</time>
      </trkpt>
      <trkpt lat="43.43493" lon="6.06242">
        <ele>253.6</ele>
        <time>2017-06-10T07:38:55Z</time>
      </trkpt>
      <trkpt lat="43.43492" lon="6.06228">
        <ele>253.3</ele>
        <time>2017-06-10T07:38:56Z</time>
      </trkpt>
      <trkpt lat="43.43491" lon="6.06214">
        <ele>252.9</ele>
        <time>2017-06-10T07:38:57Z</time>
      </trkpt>
      <trkpt lat="43.4349" lon="6.06199">
        <ele>252.5</ele>
        <time>2017-06-10T07:38:58Z</time>
      </trkpt>
      <trkpt lat="43.43492" lon="6.06173">
        <ele>252.1</ele>
        <time>2017-06-10T07:39:00Z</time>
      </trkpt>
      <trkpt lat="43.43492" lon="6.06149">
        <ele>251.7</ele>
        <time>2017-06-10T07:39:02Z</time>
      </trkpt>
      <trkpt lat="43.43487" lon="6.06133">
        <ele>251.5</ele>
        <time>2017-06-10T07:39:04Z</time>
      </trkpt>
      <trkpt lat="43.43481" lon="6.06113">
        <ele>251.2</ele>
        <time>2017-06-10T07:39:06Z</time>
      </trkpt>
      <trkpt lat="43.43473" lon="6.06093">
        <ele>250.8</ele>
        <time>2017-06-10T07:39:08Z</time>
      </trkpt>
      <trkpt lat="43.43467" lon="6.06081">
        <ele>250.5</ele>
        <time>2017-06-10T07:39:10Z</time>
      </trkpt>
      <trkpt lat="43.4346" lon="6.06067">
        <ele>250</ele>
        <time>2017-06-10T07:39:13Z</time>
      </trkpt>
      <trkpt lat="43.43454" lon="6.06055">
        <ele>249.5</ele>
        <time>2017-06-10T07:39:16Z</time>
      </trkpt>
      <trkpt lat="43.43445" lon="6.06049">
        <ele>248.9</ele>
        <time>2017-06-10T07:39:19Z</time>
      </trkpt>
      <trkpt lat="43.43432" lon="6.06048">
        <ele>248.5</ele>
        <time>2017-06-10T07:39:22Z</time>
      </trkpt>
      <trkpt lat="43.4342" lon="6.06047">
        <ele>248.2</ele>
        <time>2017-06-10T07:39:25Z</time>
      </trkpt>
      <trkpt lat="43.43407" lon="6.06046">
        <ele>248.1</ele>
        <time>2017-06-10T07:39:28Z</time>
      </trkpt>
      <trkpt lat="43.43395" lon="6.06042">
        <ele>248</ele>
        <time>2017-06-10T07:39:31Z</time>
      </trkpt>
      <trkpt lat="43.43382" lon="6.0604">
        <ele>247.9</ele>
        <time>2017-06-10T07:39:34Z</time>
      </trkpt>
      <trkpt lat="43.43369" lon="6.06039">
        <ele>247.9</ele>
        <time>2017-06-10T07:39:37Z</time>
      </trkpt>
      <trkpt lat="43.43358" lon="6.06038">
        <ele>248</ele>
        <time>2017-06-10T07:39:40Z</time>
      </trkpt>
      <trkpt lat="43.43357" lon="6.06023">
        <ele>248.1</ele>
        <time>2017-06-10T07:39:44Z</time>
      </trkpt>
      <trkpt lat="43.43364" lon="6.06018">
        <ele>248.3</ele>
        <time>2017-06-10T07:41:47Z</time>
      </trkpt>
    </trkseg>
  </trk>
</gpx>